Darstellungsparameter: Aktuell verwendete Einstellungen:
Skalierung der Graphiken ... ?
xyx+y,   Skalierungsfaktor:      Skalierung: Modus: x, Faktor: 1
Darstellungszeitraum ... ?
Vom - - bis: - -   Zeitraum: 30.06.2020 - 29.09.2020
Min/Max/Avg-Anzeige ... ?
Zeige MMA aktuell
Zeige MMA Monat
Zeige MMA alles
Zeige --A aktuell
Zeige --A Monat
Zeige --A alles
Keine MMA-Anzeige
MMA:
Average (ber die Originaldaten)
MMA-Basis: 23.02.2003 - 30.09.2020
Quicknavigation für Darstellung... ?
Tage:      1T, 2T, 3T, 5T -1T -2T -3T -5T +1T +2T +3T +5T
Wochen: 1W, 2W, 3W -1W -2W -3W +1W +2W +3W
Monate: 1M, 3M, 6M -1M -3M -6M +1M +3M +6M
Jahre:    1J, 3J, 5J, 10J -1J -3J -5J -10J +1J +3J +5J +10J
Nutze für die Darstellung ... ?
Originaldaten oder ...
Mittelwerte Minima Maxima auf...
Stundenbasis Tagesbasis Wochenbasis
Monatsbasis Jahresbasis      Datenbasis: Mittelwerte auf Stundenbasis
Darstellen als:
Statistik (Auto) Statistik J:M      Darstellung:
Zur Graphik,    zurück zur Übersicht aller Sensoren.
 
Tabellarische Datenbersicht: ?
 
Sensor: Nr:Datum:Temp:Abs-Feuchte:Windchill:Wind:
Aussen-T/F 1 30-06-2020 00:00:00 13.73333 C 9.05 g/m*3 13.73 C 2.13333 km/h
2 30-06-2020 01:00:00 13.04167 C 8.97 g/m*3 13.04 C 0 km/h
3 30-06-2020 02:00:00 11.975 C 8.8 g/m*3 11.98 C 0 km/h
4 30-06-2020 03:00:00 11.075 C 8.72 g/m*3 11.08 C 0 km/h
5 30-06-2020 04:00:00 10.61667 C 8.66 g/m*3 10.62 C 0 km/h
6 30-06-2020 05:00:00 9.99167 C 8.48 g/m*3 9.99 C 0 km/h
7 30-06-2020 06:00:00 9.83333 C 8.56 g/m*3 9.83 C 0 km/h
8 30-06-2020 07:00:00 11.08333 C 9.22 g/m*3 11.08 C 0.13333 km/h
9 30-06-2020 08:00:00 13.675 C 9.97 g/m*3 13.68 C 0.13333 km/h
10 30-06-2020 09:00:00 15.98333 C 10.08 g/m*3 15.98 C 0 km/h
11 30-06-2020 10:00:00 17.325 C 9.95 g/m*3 17.33 C 7.51667 km/h
12 30-06-2020 11:00:00 17.8 C 9.98 g/m*3 17.8 C 7.78333 km/h
13 30-06-2020 12:00:00 18.24167 C 10.21 g/m*3 18.24 C 10.075 km/h
14 30-06-2020 13:00:00 19.69167 C 10.45 g/m*3 19.69 C 12.36667 km/h
15 30-06-2020 14:00:00 20.9 C 10.43 g/m*3 20.9 C 16.36667 km/h
16 30-06-2020 15:00:00 21.525 C 10.54 g/m*3 21.53 C 16.23333 km/h
17 30-06-2020 16:00:00 22.15833 C 10.89 g/m*3 22.16 C 15.3 km/h
18 30-06-2020 17:00:00 23.20833 C 10.82 g/m*3 23.21 C 15.025 km/h
19 30-06-2020 18:00:00 22.73333 C 10.78 g/m*3 22.73 C 15.3 km/h
20 30-06-2020 19:00:00 21.325 C 11.01 g/m*3 21.33 C 12.5 km/h
21 30-06-2020 20:00:00 20.94167 C 11.33 g/m*3 20.94 C 11.69167 km/h
22 30-06-2020 21:00:00 20.05833 C 11.56 g/m*3 20.06 C 6.175 km/h
23 30-06-2020 22:00:00 19.04167 C 11.72 g/m*3 19.04 C 4.95833 km/h
24 30-06-2020 23:00:00 19.20833 C 11.74 g/m*3 19.21 C 7.25 km/h
25 01-07-2020 00:00:00 19.40833 C 11.75 g/m*3 19.41 C 9.54167 km/h
Sensor: Nr:Datum:Temp:Abs-Feuchte:Windchill:Wind:
Aussen-T/F 26 01-07-2020 01:00:00 19.025 C 11.86 g/m*3 19.02 C 5.75833 km/h
27 01-07-2020 02:00:00 18.175 C 11.78 g/m*3 18.18 C 7.1 km/h
28 01-07-2020 03:00:00 17.78333 C 11.85 g/m*3 17.78 C 3.33333 km/h
29 01-07-2020 04:00:00 17.15833 C 11.8 g/m*3 17.16 C 2 km/h
30 01-07-2020 05:00:00 16.54167 C 11.72 g/m*3 16.54 C 0.53333 km/h
31 01-07-2020 06:00:00 15.71667 C 11.69 g/m*3 15.72 C 1.33333 km/h
32 01-07-2020 07:00:00 16.675 C 12.4 g/m*3 16.68 C 4.28333 km/h
33 01-07-2020 08:00:00 19.09167 C 12.85 g/m*3 19.09 C 9.825 km/h
34 01-07-2020 09:00:00 20.89167 C 13.53 g/m*3 20.89 C 9.26667 km/h
35 01-07-2020 10:00:00 21.55 C 13.84 g/m*3 21.55 C 13.43333 km/h
36 01-07-2020 11:00:00 22.125 C 13.9 g/m*3 22.13 C 11.96667 km/h
37 01-07-2020 12:00:00 23.56667 C 13.87 g/m*3 23.57 C 17.7 km/h
38 01-07-2020 13:00:00 24.09167 C 14.01 g/m*3 24.09 C 19.03333 km/h
39 01-07-2020 14:00:00 24.7 C 14.07 g/m*3 24.7 C 19.84167 km/h
40 01-07-2020 15:00:00 24.725 C 14.15 g/m*3 24.73 C 18.36667 km/h
41 01-07-2020 16:00:00 25.20833 C 14.32 g/m*3 25.21 C 16.23333 km/h
42 01-07-2020 17:00:00 25.61667 C 14.16 g/m*3 25.62 C 17.3 km/h
43 01-07-2020 18:00:00 25.05833 C 13.82 g/m*3 25.06 C 14.23333 km/h
44 01-07-2020 19:00:00 24.51667 C 13.93 g/m*3 24.52 C 13.56667 km/h
45 01-07-2020 20:00:00 24.53333 C 14.03 g/m*3 24.53 C 11.95833 km/h
46 01-07-2020 21:00:00 23.34167 C 13.78 g/m*3 23.34 C 9.95 km/h
47 01-07-2020 22:00:00 22.125 C 13.9 g/m*3 22.13 C 3.075 km/h
48 01-07-2020 23:00:00 19.55 C 14.17 g/m*3 19.55 C 10.2 km/h
49 02-07-2020 00:00:00 17.83333 C 14.09 g/m*3 17.83 C 0.26667 km/h
50 02-07-2020 01:00:00 17.71667 C 14.17 g/m*3 17.72 C 0 km/h
Sensor: Nr:Datum:Temp:Abs-Feuchte:Windchill:Wind:
Aussen-T/F 51 02-07-2020 02:00:00 17.46667 C 14.02 g/m*3 17.47 C 0.66667 km/h
52 02-07-2020 03:00:00 16.525 C 13.31 g/m*3 16.52 C 3.6 km/h
53 02-07-2020 04:00:00 15.71667 C 12.72 g/m*3 15.72 C 2.8 km/h
54 02-07-2020 05:00:00 15.05 C 12.24 g/m*3 15.05 C 0.13333 km/h
55 02-07-2020 06:00:00 15.575 C 12.77 g/m*3 15.58 C 0 km/h
56 02-07-2020 07:00:00 16.475 C 13.56 g/m*3 16.48 C 0 km/h
57 02-07-2020 08:00:00 16.56667 C 13.59 g/m*3 16.57 C 0 km/h
58 02-07-2020 09:00:00 17.98333 C 14.88 g/m*3 17.98 C 1.2 km/h
59 02-07-2020 10:00:00 18.85833 C 15.16 g/m*3 18.86 C 5.625 km/h
60 02-07-2020 11:00:00 21.075 C 14.03 g/m*3 21.08 C 12.89167 km/h
61 02-07-2020 12:00:00 21.9 C 12.41 g/m*3 21.9 C 14.63333 km/h
62 02-07-2020 13:00:00 22.575 C 12.39 g/m*3 22.58 C 14.9 km/h
63 02-07-2020 14:00:00 20.58333 C 13.26 g/m*3 20.58 C 4.29167 km/h
64 02-07-2020 15:00:00 21.075 C 12.85 g/m*3 21.08 C 8.6 km/h
65 02-07-2020 16:00:00 21.825 C 12.99 g/m*3 21.83 C 2.93333 km/h
66 02-07-2020 17:00:00 22.85833 C 12.22 g/m*3 22.86 C 13.81667 km/h
67 02-07-2020 18:00:00 21.40833 C 11.94 g/m*3 21.41 C 14.63333 km/h
68 02-07-2020 19:00:00 19.16667 C 11.97 g/m*3 19.17 C 8.2 km/h
69 02-07-2020 20:00:00 19.13333 C 11.72 g/m*3 19.13 C 6.30833 km/h
70 02-07-2020 21:00:00 18.85833 C 11.72 g/m*3 18.86 C 4.15 km/h
71 02-07-2020 22:00:00 17.43333 C 11.74 g/m*3 17.43 C 4.40833 km/h
72 02-07-2020 23:00:00 15.89167 C 11.29 g/m*3 15.89 C 3.46667 km/h
73 03-07-2020 00:00:00 14.88333 C 11.08 g/m*3 14.88 C 2.13333 km/h
74 03-07-2020 01:00:00 14.03333 C 10.79 g/m*3 14.03 C 1.73333 km/h
75 03-07-2020 02:00:00 13.31667 C 10.47 g/m*3 13.32 C 0.4 km/h
Sensor: Nr:Datum:Temp:Abs-Feuchte:Windchill:Wind:
Aussen-T/F 76 03-07-2020 03:00:00 12.45 C 10.11 g/m*3 12.45 C 0.26667 km/h
77 03-07-2020 04:00:00 11.875 C 9.86 g/m*3 11.88 C 1.33333 km/h
78 03-07-2020 05:00:00 11.39167 C 9.64 g/m*3 11.39 C 0.66667 km/h
79 03-07-2020 06:00:00 11.33333 C 9.68 g/m*3 11.33 C 0.26667 km/h
80 03-07-2020 07:00:00 11.79167 C 10.02 g/m*3 11.79 C 1.2 km/h
81 03-07-2020 08:00:00 13.74167 C 10.52 g/m*3 13.74 C 5.36667 km/h
82 03-07-2020 09:00:00 15.85 C 10.68 g/m*3 15.85 C 5.35 km/h
83 03-07-2020 10:00:00 18.13333 C 11.29 g/m*3 18.13 C 6.84167 km/h
84 03-07-2020 11:00:00 19.875 C 11.37 g/m*3 19.88 C 8.73333 km/h
85 03-07-2020 12:00:00 20.14167 C 11.17 g/m*3 20.14 C 7.78333 km/h
86 03-07-2020 13:00:00 21.05833 C 11.06 g/m*3 21.06 C 7.65833 km/h
87 03-07-2020 14:00:00 22.25 C 10.91 g/m*3 22.25 C 10.475 km/h
88 03-07-2020 15:00:00 23.49167 C 10.9 g/m*3 23.49 C 13.29167 km/h
89 03-07-2020 16:00:00 24.025 C 10.46 g/m*3 24.03 C 12.89167 km/h
90 03-07-2020 17:00:00 24.09167 C 10.46 g/m*3 24.09 C 13.16667 km/h
91 03-07-2020 18:00:00 23.98333 C 10.38 g/m*3 23.98 C 10.20833 km/h
92 03-07-2020 19:00:00 23.86667 C 10.04 g/m*3 23.87 C 11.425 km/h
93 03-07-2020 20:00:00 22.20833 C 10 g/m*3 22.21 C 10.86667 km/h
94 03-07-2020 21:00:00 19.60833 C 10.81 g/m*3 19.61 C 4.26667 km/h
95 03-07-2020 22:00:00 16.91667 C 10.57 g/m*3 16.92 C 3.86667 km/h
96 03-07-2020 23:00:00 15.43333 C 10.41 g/m*3 15.43 C 1.46667 km/h
97 04-07-2020 00:00:00 14.35833 C 10.25 g/m*3 14.36 C 0 km/h
98 04-07-2020 01:00:00 13.55833 C 10.08 g/m*3 13.56 C 1.86667 km/h
99 04-07-2020 02:00:00 13.24167 C 9.97 g/m*3 13.24 C 2.41667 km/h
100 04-07-2020 03:00:00 12.84167 C 9.84 g/m*3 12.84 C 1.46667 km/h
Sensor: Nr:Datum:Temp:Abs-Feuchte:Windchill:Wind:
Aussen-T/F 101 04-07-2020 04:00:00 12.53333 C 9.77 g/m*3 12.53 C 2.94167 km/h
102 04-07-2020 05:00:00 12.65833 C 9.72 g/m*3 12.66 C 1.60833 km/h
103 04-07-2020 06:00:00 12.80833 C 10 g/m*3 12.81 C 2 km/h
104 04-07-2020 07:00:00 14.11667 C 10.4 g/m*3 14.12 C 0.26667 km/h
105 04-07-2020 08:00:00 15.375 C 10.8 g/m*3 15.38 C 0 km/h
106 04-07-2020 09:00:00 17.14167 C 10.93 g/m*3 17.14 C 8.05833 km/h
107 04-07-2020 10:00:00 20.19167 C 10.94 g/m*3 20.19 C 13.16667 km/h
108 04-07-2020 11:00:00 21.70833 C 10.81 g/m*3 21.71 C 18.36667 km/h
109 04-07-2020 12:00:00 22.21667 C 10.96 g/m*3 22.22 C 17.43333 km/h
110 04-07-2020 13:00:00 22.39167 C 11.02 g/m*3 22.39 C 17.85 km/h
111 04-07-2020 14:00:00 23.1 C 10.89 g/m*3 23.1 C 17.04167 km/h
112 04-07-2020 15:00:00 23.31667 C 10.52 g/m*3 23.32 C 16.1 km/h
113 04-07-2020 16:00:00 24.075 C 11.18 g/m*3 24.08 C 13.56667 km/h
114 04-07-2020 17:00:00 24.90833 C 11.47 g/m*3 24.91 C 14.23333 km/h
115 04-07-2020 18:00:00 24.61667 C 11.79 g/m*3 24.62 C 15.3 km/h
116 04-07-2020 19:00:00 24.78333 C 12.2 g/m*3 24.78 C 14.89167 km/h
117 04-07-2020 20:00:00 23.03333 C 11.77 g/m*3 23.03 C 13.95833 km/h
118 04-07-2020 21:00:00 22.25833 C 12.1 g/m*3 22.26 C 10.09167 km/h
119 04-07-2020 22:00:00 21.71667 C 12.33 g/m*3 21.72 C 6.04167 km/h
120 04-07-2020 23:00:00 21.40833 C 12.77 g/m*3 21.41 C 8.19167 km/h
121 05-07-2020 00:00:00 21.31667 C 13.5 g/m*3 21.32 C 9.125 km/h
122 05-07-2020 01:00:00 21.11667 C 13.76 g/m*3 21.12 C 9.675 km/h
123 05-07-2020 02:00:00 20.99167 C 13.87 g/m*3 20.99 C 8.31667 km/h
124 05-07-2020 03:00:00 20.975 C 13.72 g/m*3 20.98 C 10.34167 km/h
125 05-07-2020 04:00:00 21.05833 C 13.86 g/m*3 21.06 C 10.19167 km/h
Sensor: Nr:Datum:Temp:Abs-Feuchte:Windchill:Wind:
Aussen-T/F 126 05-07-2020 05:00:00 21.1 C 13.97 g/m*3 21.1 C 13.16667 km/h
127 05-07-2020 06:00:00 20.93333 C 13.94 g/m*3 20.93 C 12.36667 km/h
128 05-07-2020 07:00:00 21.05 C 14.22 g/m*3 21.05 C 17.84167 km/h
129 05-07-2020 08:00:00 21.39167 C 14.57 g/m*3 21.39 C 16.23333 km/h
130 05-07-2020 09:00:00 22 C 14.83 g/m*3 22 C 15.575 km/h
131 05-07-2020 10:00:00 22.35833 C 14.73 g/m*3 22.36 C 19.70833 km/h
132 05-07-2020 11:00:00 23.04167 C 14.73 g/m*3 23.04 C 19.70833 km/h
133 05-07-2020 12:00:00 23.46667 C 14.92 g/m*3 23.47 C 19.3 km/h
134 05-07-2020 13:00:00 23.93333 C 15.03 g/m*3 23.93 C 18.9 km/h
135 05-07-2020 14:00:00 25.60833 C 14.63 g/m*3 25.61 C 18.1 km/h
136 05-07-2020 15:00:00 25.425 C 14.36 g/m*3 25.43 C 15.16667 km/h
137 05-07-2020 16:00:00 25.925 C 14.79 g/m*3 25.93 C 14.76667 km/h
138 05-07-2020 17:00:00 25.50833 C 14.67 g/m*3 25.51 C 15.96667 km/h
139 05-07-2020 18:00:00 25.63333 C 14.89 g/m*3 25.63 C 20.375 km/h
140 05-07-2020 19:00:00 25.525 C 14.82 g/m*3 25.53 C 17.70833 km/h
141 05-07-2020 20:00:00 24.20833 C 14.66 g/m*3 24.21 C 15.29167 km/h
142 05-07-2020 21:00:00 22.58333 C 14.55 g/m*3 22.58 C 11.95833 km/h
143 05-07-2020 22:00:00 21.45833 C 14.31 g/m*3 21.46 C 11.56667 km/h
144 05-07-2020 23:00:00 20.65 C 14.09 g/m*3 20.65 C 5.08333 km/h
145 06-07-2020 00:00:00 19.525 C 13.95 g/m*3 19.52 C 3.20833 km/h
146 06-07-2020 01:00:00 19.36667 C 13.36 g/m*3 19.37 C 9.39167 km/h
147 06-07-2020 02:00:00 18.96667 C 11.59 g/m*3 18.97 C 10.36667 km/h
148 06-07-2020 03:00:00 17.1 C 8.93 g/m*3 17.1 C 16.225 km/h
149 06-07-2020 04:00:00 14.90833 C 8.67 g/m*3 14.91 C 7.24167 km/h
150 06-07-2020 05:00:00 13.55833 C 8.64 g/m*3 13.56 C 3.89167 km/h
Sensor: Nr:Datum:Temp:Abs-Feuchte:Windchill:Wind:
Aussen-T/F 151 06-07-2020 06:00:00 12.95833 C 8.75 g/m*3 12.96 C 4.675 km/h
152 06-07-2020 07:00:00 14.05 C 9.07 g/m*3 14.05 C 8.6 km/h
153 06-07-2020 08:00:00 15.13333 C 8.76 g/m*3 15.13 C 13.83333 km/h
154 06-07-2020 09:00:00 15.84167 C 8.4 g/m*3 15.84 C 14.63333 km/h
155 06-07-2020 10:00:00 17.025 C 8.38 g/m*3 17.02 C 14.1 km/h
156 06-07-2020 11:00:00 18.15833 C 8.15 g/m*3 18.16 C 18.1 km/h
157 06-07-2020 12:00:00 18.80833 C 7.96 g/m*3 18.81 C 17.30833 km/h
158 06-07-2020 13:00:00 19.275 C 7.94 g/m*3 19.27 C 15.3 km/h
159 06-07-2020 14:00:00 19.925 C 7.71 g/m*3 19.93 C 16.9 km/h
160 06-07-2020 15:00:00 17.58333 C 9.45 g/m*3 17.58 C 12.89167 km/h
161 06-07-2020 16:00:00 15.88333 C 10.53 g/m*3 15.88 C 3.75 km/h
162 06-07-2020 17:00:00 17.59167 C 9.24 g/m*3 17.59 C 11.00833 km/h
163 06-07-2020 18:00:00 19.46667 C 9.6 g/m*3 19.47 C 13.85 km/h
164 06-07-2020 19:00:00 17 C 9.22 g/m*3 17 C 5.24167 km/h
165 06-07-2020 20:00:00 17.26667 C 9.46 g/m*3 17.27 C 2.40833 km/h
166 06-07-2020 21:00:00 16.63333 C 9.44 g/m*3 16.63 C 1.2 km/h
167 06-07-2020 22:00:00 14.08333 C 9.08 g/m*3 14.08 C 1.86667 km/h
168 06-07-2020 23:00:00 13.00833 C 8.94 g/m*3 13.01 C 3.2 km/h
169 07-07-2020 00:00:00 11.95833 C 8.87 g/m*3 11.96 C 1.46667 km/h
170 07-07-2020 01:00:00 11.05833 C 8.73 g/m*3 11.06 C 0.93333 km/h
171 07-07-2020 02:00:00 10.425 C 8.62 g/m*3 10.43 C 1.46667 km/h
172 07-07-2020 03:00:00 10.025 C 8.58 g/m*3 10.03 C 1.33333 km/h
173 07-07-2020 04:00:00 9.575 C 8.41 g/m*3 9.57 C 1.33333 km/h
174 07-07-2020 05:00:00 8.89167 C 8.1 g/m*3 8.89 C 1.6 km/h
175 07-07-2020 06:00:00 8.61667 C 8.03 g/m*3 8.62 C 1.06667 km/h
Sensor: Nr:Datum:Temp:Abs-Feuchte:Windchill:Wind:
Aussen-T/F 176 07-07-2020 07:00:00 9.35833 C 8.45 g/m*3 9.36 C 4.26667 km/h
177 07-07-2020 08:00:00 10.475 C 9.01 g/m*3 10.48 C 1.46667 km/h
178 07-07-2020 09:00:00 12.4 C 9.92 g/m*3 12.4 C 0.8 km/h
179 07-07-2020 10:00:00 15.875 C 9.66 g/m*3 15.88 C 3.73333 km/h
180 07-07-2020 11:00:00 18.275 C 8.57 g/m*3 18.27 C 5.90833 km/h
181 07-07-2020 12:00:00 19.65833 C 8.13 g/m*3 19.66 C 7.79167 km/h
182 07-07-2020 13:00:00 19.91667 C 7.98 g/m*3 19.92 C 6.04167 km/h
183 07-07-2020 14:00:00 20.50833 C 8.43 g/m*3 20.51 C 7.65 km/h
184 07-07-2020 15:00:00 21.875 C 8.77 g/m*3 21.88 C 11.025 km/h
185 07-07-2020 16:00:00 23.36667 C 8.8 g/m*3 23.37 C 11.16667 km/h
186 07-07-2020 17:00:00 22.76667 C 8.64 g/m*3 22.77 C 10.20833 km/h
187 07-07-2020 18:00:00 23.8 C 8.71 g/m*3 23.8 C 9.00833 km/h
188 07-07-2020 19:00:00 22.08333 C 8.53 g/m*3 22.08 C 8.06667 km/h
189 07-07-2020 20:00:00 21.1 C 8.94 g/m*3 21.1 C 4.00833 km/h
190 07-07-2020 21:00:00 19.76667 C 9.65 g/m*3 19.77 C 1.06667 km/h
191 07-07-2020 22:00:00 17.6 C 9.65 g/m*3 17.6 C 3.06667 km/h
192 07-07-2020 23:00:00 16.975 C 9.78 g/m*3 16.98 C 4 km/h
193 08-07-2020 00:00:00 16.31667 C 9.99 g/m*3 16.32 C 0.66667 km/h
194 08-07-2020 01:00:00 15.8 C 10.03 g/m*3 15.8 C 0.13333 km/h
195 08-07-2020 02:00:00 15.9 C 9.91 g/m*3 15.9 C 0.4 km/h
196 08-07-2020 03:00:00 16.31667 C 9.69 g/m*3 16.32 C 2.14167 km/h
197 08-07-2020 04:00:00 16.40833 C 9.72 g/m*3 16.41 C 1.06667 km/h
198 08-07-2020 05:00:00 15.83333 C 10.18 g/m*3 15.83 C 0 km/h
199 08-07-2020 06:00:00 15.38333 C 10.52 g/m*3 15.38 C 0.13333 km/h
200 08-07-2020 07:00:00 15.05 C 11.1 g/m*3 15.05 C 0.26667 km/h
Sensor: Nr:Datum:Temp:Abs-Feuchte:Windchill:Wind:
Aussen-T/F 201 08-07-2020 08:00:00 14.55833 C 10.13 g/m*3 14.56 C 6.16667 km/h
202 08-07-2020 09:00:00 13.96667 C 10.07 g/m*3 13.97 C 4.40833 km/h
203 08-07-2020 10:00:00 13.81667 C 10.61 g/m*3 13.82 C 2.4 km/h
204 08-07-2020 11:00:00 14.05 C 11.16 g/m*3 14.05 C 3.74167 km/h
205 08-07-2020 12:00:00 14.7 C 11.57 g/m*3 14.7 C 2.66667 km/h
206 08-07-2020 13:00:00 15.11667 C 11.88 g/m*3 15.12 C 6.025 km/h
207 08-07-2020 14:00:00 15.55 C 12.35 g/m*3 15.55 C 4.13333 km/h
208 08-07-2020 15:00:00 16.13333 C 12.86 g/m*3 16.13 C 5.475 km/h
209 08-07-2020 16:00:00 16.55 C 13.23 g/m*3 16.55 C 0.8 km/h
210 08-07-2020 17:00:00 17.30833 C 13.73 g/m*3 17.31 C 5.36667 km/h
211 08-07-2020 18:00:00 17.90833 C 13.84 g/m*3 17.91 C 2.53333 km/h
212 08-07-2020 19:00:00 17.36667 C 13.71 g/m*3 17.37 C 0.66667 km/h
213 08-07-2020 20:00:00 17.24167 C 13.65 g/m*3 17.24 C 0 km/h
214 08-07-2020 21:00:00 16.86667 C 13.48 g/m*3 16.87 C 0 km/h
215 08-07-2020 22:00:00 16.525 C 13.28 g/m*3 16.52 C 0.93333 km/h
216 08-07-2020 23:00:00 16.36667 C 13.23 g/m*3 16.37 C 2.66667 km/h
217 09-07-2020 00:00:00 16.5 C 13.43 g/m*3 16.5 C 1.06667 km/h
218 09-07-2020 01:00:00 16.68333 C 13.63 g/m*3 16.68 C 2.93333 km/h
219 09-07-2020 02:00:00 16.75833 C 13.69 g/m*3 16.76 C 1.73333 km/h
220 09-07-2020 03:00:00 16.69167 C 13.64 g/m*3 16.69 C 2.4 km/h
221 09-07-2020 04:00:00 16.76667 C 13.7 g/m*3 16.77 C 2.54167 km/h
222 09-07-2020 05:00:00 16.84167 C 13.76 g/m*3 16.84 C 2.8 km/h
223 09-07-2020 06:00:00 17.06667 C 13.85 g/m*3 17.07 C 4.00833 km/h
224 09-07-2020 07:00:00 17.63333 C 13.96 g/m*3 17.63 C 6.03333 km/h
225 09-07-2020 08:00:00 18.68333 C 14.14 g/m*3 18.68 C 6.7 km/h
Sensor: Nr:Datum:Temp:Abs-Feuchte:Windchill:Wind:
Aussen-T/F 226 09-07-2020 09:00:00 19.7 C 14.38 g/m*3 19.7 C 9.69167 km/h
227 09-07-2020 10:00:00 20.40833 C 14.53 g/m*3 20.41 C 9.41667 km/h
228 09-07-2020 11:00:00 21.64167 C 14.8 g/m*3 21.64 C 11.425 km/h
229 09-07-2020 12:00:00 23 C 14.8 g/m*3 23 C 11.3 km/h
230 09-07-2020 13:00:00 24.51667 C 14.09 g/m*3 24.52 C 13.825 km/h
231 09-07-2020 14:00:00 26.11667 C 13.48 g/m*3 26.12 C 15.7 km/h
232 09-07-2020 15:00:00 27.08333 C 12.99 g/m*3 27.08 C 14.1 km/h
233 09-07-2020 16:00:00 28.05 C 12.52 g/m*3 28.05 C 17.56667 km/h
234 09-07-2020 17:00:00 27.83333 C 12.26 g/m*3 27.83 C 15.96667 km/h
235 09-07-2020 18:00:00 27.76667 C 12.08 g/m*3 27.77 C 12.36667 km/h
236 09-07-2020 19:00:00 27.28333 C 12.2 g/m*3 27.28 C 7.25833 km/h
237 09-07-2020 20:00:00 26.325 C 12.81 g/m*3 26.33 C 5.225 km/h
238 09-07-2020 21:00:00 23.525 C 14.14 g/m*3 23.53 C 0 km/h
239 09-07-2020 22:00:00 21.425 C 14.08 g/m*3 21.43 C 0.53333 km/h
240 09-07-2020 23:00:00 20.44167 C 13.91 g/m*3 20.44 C 0 km/h
241 10-07-2020 00:00:00 18.96667 C 13.32 g/m*3 18.97 C 0 km/h
242 10-07-2020 01:00:00 17.81667 C 12.99 g/m*3 17.82 C 0 km/h
243 10-07-2020 02:00:00 16.96667 C 12.68 g/m*3 16.97 C 0 km/h
244 10-07-2020 03:00:00 16.61667 C 12.59 g/m*3 16.62 C 0 km/h
245 10-07-2020 04:00:00 16.2 C 12.42 g/m*3 16.2 C 0 km/h
246 10-07-2020 05:00:00 16.15 C 12.47 g/m*3 16.15 C 1.20833 km/h
247 10-07-2020 06:00:00 16.33333 C 12.55 g/m*3 16.33 C 1.075 km/h
248 10-07-2020 07:00:00 17.38333 C 12.92 g/m*3 17.38 C 2.4 km/h
249 10-07-2020 08:00:00 19.19167 C 13.46 g/m*3 19.19 C 5.5 km/h
250 10-07-2020 09:00:00 20.26667 C 13.33 g/m*3 20.27 C 12.23333 km/h
Sensor: Nr:Datum:Temp:Abs-Feuchte:Windchill:Wind:
Aussen-T/F 251 10-07-2020 10:00:00 20.69167 C 12.97 g/m*3 20.69 C 14.9 km/h
252 10-07-2020 11:00:00 21.425 C 12.74 g/m*3 21.43 C 17.16667 km/h
253 10-07-2020 12:00:00 21.98333 C 12.57 g/m*3 21.98 C 16.1 km/h
254 10-07-2020 13:00:00 21.25833 C 12.15 g/m*3 21.26 C 16.5 km/h
255 10-07-2020 14:00:00 20.95833 C 12.09 g/m*3 20.96 C 15.15833 km/h
256 10-07-2020 15:00:00 19.3 C 13.19 g/m*3 19.3 C 10.075 km/h
257 10-07-2020 16:00:00 18.33333 C 13.97 g/m*3 18.33 C 5.775 km/h
258 10-07-2020 17:00:00 18.25833 C 14.31 g/m*3 18.26 C 5.89167 km/h
259 10-07-2020 18:00:00 19.3 C 12.12 g/m*3 19.3 C 14.49167 km/h
260 10-07-2020 19:00:00 19.65833 C 11.65 g/m*3 19.66 C 13.83333 km/h
261 10-07-2020 20:00:00 18.58333 C 11.3 g/m*3 18.58 C 11.825 km/h
262 10-07-2020 21:00:00 17.75 C 10.76 g/m*3 17.75 C 4.80833 km/h
263 10-07-2020 22:00:00 17.18333 C 10.59 g/m*3 17.18 C 4.54167 km/h
264 10-07-2020 23:00:00 16.63333 C 10.44 g/m*3 16.63 C 1.86667 km/h
265 11-07-2020 00:00:00 15.58333 C 10.45 g/m*3 15.58 C 0.93333 km/h
266 11-07-2020 01:00:00 14.3 C 10.06 g/m*3 14.3 C 2.53333 km/h
267 11-07-2020 02:00:00 12.725 C 9.68 g/m*3 12.73 C 2.53333 km/h
268 11-07-2020 03:00:00 11.88333 C 9.55 g/m*3 11.88 C 3.06667 km/h
269 11-07-2020 04:00:00 11.20833 C 9.25 g/m*3 11.21 C 0 km/h
270 11-07-2020 05:00:00 10.45 C 8.94 g/m*3 10.45 C 0.26667 km/h
271 11-07-2020 06:00:00 10.41667 C 9.06 g/m*3 10.42 C 0 km/h
272 11-07-2020 07:00:00 11.10833 C 9.59 g/m*3 11.11 C 0 km/h
273 11-07-2020 08:00:00 13.51667 C 10.52 g/m*3 13.52 C 3.2 km/h
274 11-07-2020 09:00:00 15.38333 C 10.1 g/m*3 15.38 C 5.1 km/h
275 11-07-2020 10:00:00 16.6 C 9.42 g/m*3 16.6 C 6.71667 km/h
Sensor: Nr:Datum:Temp:Abs-Feuchte:Windchill:Wind:
Aussen-T/F 276 11-07-2020 11:00:00 17.75 C 8.98 g/m*3 17.75 C 6.84167 km/h
277 11-07-2020 12:00:00 18.4 C 8.81 g/m*3 18.4 C 9.40833 km/h
278 11-07-2020 13:00:00 19.10833 C 8.64 g/m*3 19.11 C 8.60833 km/h
279 11-07-2020 14:00:00 19.775 C 8.51 g/m*3 19.77 C 11.15833 km/h
280 11-07-2020 15:00:00 21.2 C 7.95 g/m*3 21.2 C 11.275 km/h
281 11-07-2020 16:00:00 22.05 C 7.85 g/m*3 22.05 C 10.9 km/h
282 11-07-2020 17:00:00 22.38333 C 7.95 g/m*3 22.38 C 8.05833 km/h
283 11-07-2020 18:00:00 21.99167 C 7.86 g/m*3 21.99 C 8.45 km/h
284 11-07-2020 19:00:00 21.88333 C 8.03 g/m*3 21.88 C 8.05833 km/h
285 11-07-2020 20:00:00 21.125 C 8.16 g/m*3 21.13 C 8.31667 km/h
286 11-07-2020 21:00:00 17.93333 C 9.43 g/m*3 17.93 C 7.8 km/h
287 11-07-2020 22:00:00 16.25 C 9.56 g/m*3 16.25 C 1.74167 km/h
288 11-07-2020 23:00:00 14.75833 C 9.4 g/m*3 14.76 C 3.86667 km/h
289 12-07-2020 00:00:00 13.35 C 9.25 g/m*3 13.35 C 4.93333 km/h
290 12-07-2020 01:00:00 12.61667 C 9.27 g/m*3 12.62 C 2.53333 km/h
291 12-07-2020 02:00:00 11.95833 C 9.14 g/m*3 11.96 C 0.66667 km/h
292 12-07-2020 03:00:00 10.73333 C 8.71 g/m*3 10.73 C 0 km/h
293 12-07-2020 04:00:00 9.91667 C 8.51 g/m*3 9.92 C 0 km/h
294 12-07-2020 05:00:00 9.39167 C 8.35 g/m*3 9.39 C 0 km/h
295 12-07-2020 06:00:00 9.25 C 8.37 g/m*3 9.25 C 0 km/h
296 12-07-2020 07:00:00 9.70833 C 8.7 g/m*3 9.71 C 0 km/h
297 12-07-2020 08:00:00 10.84167 C 9.41 g/m*3 10.84 C 0 km/h
298 12-07-2020 09:00:00 12.76667 C 10.45 g/m*3 12.77 C 0.53333 km/h
299 12-07-2020 10:00:00 16.29167 C 10.39 g/m*3 16.29 C 3.74167 km/h
300 12-07-2020 11:00:00 19.2 C 9.7 g/m*3 19.2 C 8.33333 km/h
Sensor: Nr:Datum:Temp:Abs-Feuchte:Windchill:Wind:
Aussen-T/F 301 12-07-2020 12:00:00 20.18333 C 9 g/m*3 20.18 C 7.78333 km/h
302 12-07-2020 13:00:00 21.31667 C 8.4 g/m*3 21.32 C 9.275 km/h
303 12-07-2020 14:00:00 21.93333 C 8.28 g/m*3 21.93 C 10.08333 km/h
304 12-07-2020 15:00:00 23.325 C 8.08 g/m*3 23.33 C 9.54167 km/h
305 12-07-2020 16:00:00 24.5 C 8.28 g/m*3 24.5 C 12.35833 km/h
306 12-07-2020 17:00:00 24.33333 C 8.13 g/m*3 24.33 C 12.1 km/h
307 12-07-2020 18:00:00 24.475 C 8.12 g/m*3 24.48 C 10.34167 km/h
308 12-07-2020 19:00:00 22.85 C 8.42 g/m*3 22.85 C 6.84167 km/h
309 12-07-2020 20:00:00 22.41667 C 8.42 g/m*3 22.42 C 11.16667 km/h
310 12-07-2020 21:00:00 20.50833 C 8.99 g/m*3 20.51 C 4.025 km/h
311 12-07-2020 22:00:00 17.125 C 8.97 g/m*3 17.13 C 3.6 km/h
312 12-07-2020 23:00:00 15.5 C 9.18 g/m*3 15.5 C 2.13333 km/h
313 13-07-2020 00:00:00 14.03333 C 9.01 g/m*3 14.03 C 0.13333 km/h
314 13-07-2020 01:00:00 12.68333 C 8.77 g/m*3 12.68 C 0.26667 km/h
315 13-07-2020 02:00:00 11.8 C 8.61 g/m*3 11.8 C 0 km/h
316 13-07-2020 03:00:00 11.04167 C 8.51 g/m*3 11.04 C 0 km/h
317 13-07-2020 04:00:00 10.31667 C 8.32 g/m*3 10.32 C 0 km/h
318 13-07-2020 05:00:00 9.83333 C 8.27 g/m*3 9.83 C 0 km/h
319 13-07-2020 06:00:00 10.01667 C 8.54 g/m*3 10.02 C 0.13333 km/h
320 13-07-2020 07:00:00 10.58333 C 8.87 g/m*3 10.58 C 0 km/h
321 13-07-2020 08:00:00 11.76667 C 9.58 g/m*3 11.77 C 0.26667 km/h
322 13-07-2020 09:00:00 14.44167 C 10.32 g/m*3 14.44 C 1.86667 km/h
323 13-07-2020 10:00:00 18.2 C 10.63 g/m*3 18.2 C 3.06667 km/h
324 13-07-2020 11:00:00 21.71667 C 10.01 g/m*3 21.72 C 5.34167 km/h
325 13-07-2020 12:00:00 23.29167 C 8.83 g/m*3 23.29 C 9.675 km/h
Sensor: Nr:Datum:Temp:Abs-Feuchte:Windchill:Wind:
Aussen-T/F 326 13-07-2020 13:00:00 24.03333 C 8.66 g/m*3 24.03 C 9.55833 km/h
327 13-07-2020 14:00:00 24.675 C 8.42 g/m*3 24.68 C 10.5 km/h
328 13-07-2020 15:00:00 26.14167 C 8.32 g/m*3 26.14 C 9.00833 km/h
329 13-07-2020 16:00:00 28.475 C 8.49 g/m*3 28.48 C 6.7 km/h
330 13-07-2020 17:00:00 28.575 C 8.23 g/m*3 28.58 C 9.15 km/h
331 13-07-2020 18:00:00 28.725 C 7.95 g/m*3 28.73 C 6.03333 km/h
332 13-07-2020 19:00:00 28 C 7.61 g/m*3 28 C 6.71667 km/h
333 13-07-2020 20:00:00 26.56667 C 7.94 g/m*3 26.57 C 5.61667 km/h
334 13-07-2020 21:00:00 23.84167 C 9.56 g/m*3 23.84 C 1.73333 km/h
335 13-07-2020 22:00:00 20.60833 C 9.65 g/m*3 20.61 C 3.73333 km/h
336 13-07-2020 23:00:00 18.68333 C 9.53 g/m*3 18.68 C 4.26667 km/h
337 14-07-2020 00:00:00 17.575 C 9.47 g/m*3 17.58 C 2.66667 km/h
338 14-07-2020 01:00:00 16.525 C 9.53 g/m*3 16.52 C 1.86667 km/h
339 14-07-2020 02:00:00 15.075 C 9.56 g/m*3 15.08 C 0 km/h
340 14-07-2020 03:00:00 13.75 C 9.39 g/m*3 13.75 C 0 km/h
341 14-07-2020 04:00:00 12.94167 C 9.29 g/m*3 12.94 C 0 km/h
342 14-07-2020 05:00:00 12.4 C 9.22 g/m*3 12.4 C 0 km/h
343 14-07-2020 06:00:00 12.38333 C 9.34 g/m*3 12.38 C 0 km/h
344 14-07-2020 07:00:00 13.76667 C 9.95 g/m*3 13.77 C 0 km/h
345 14-07-2020 08:00:00 14.95 C 10.33 g/m*3 14.95 C 0 km/h
346 14-07-2020 09:00:00 15.875 C 10.83 g/m*3 15.88 C 0 km/h
347 14-07-2020 10:00:00 19.15 C 10.95 g/m*3 19.15 C 0 km/h
348 14-07-2020 11:00:00 22.39167 C 10.47 g/m*3 22.39 C 2.00833 km/h
349 14-07-2020 12:00:00 23.85 C 9.94 g/m*3 23.85 C 7.11667 km/h
350 14-07-2020 13:00:00 25.65833 C 9.3 g/m*3 25.66 C 9.40833 km/h
Sensor: Nr:Datum:Temp:Abs-Feuchte:Windchill:Wind:
Aussen-T/F 351 14-07-2020 14:00:00 25.725 C 9.45 g/m*3 25.73 C 10.075 km/h
352 14-07-2020 15:00:00 25.35 C 9.53 g/m*3 25.35 C 7.53333 km/h
353 14-07-2020 16:00:00 25.64167 C 10.04 g/m*3 25.64 C 9.39167 km/h
354 14-07-2020 17:00:00 24.83333 C 10.64 g/m*3 24.83 C 15.56667 km/h
355 14-07-2020 18:00:00 21.80833 C 10.59 g/m*3 21.81 C 14.36667 km/h
356 14-07-2020 19:00:00 19.96667 C 11.1 g/m*3 19.97 C 8.325 km/h
357 14-07-2020 20:00:00 18.59167 C 12.02 g/m*3 18.59 C 6.83333 km/h
358 14-07-2020 21:00:00 17.44167 C 12.59 g/m*3 17.44 C 1.06667 km/h
359 14-07-2020 22:00:00 16.4 C 12.31 g/m*3 16.4 C 1.86667 km/h
360 14-07-2020 23:00:00 15.84167 C 12.02 g/m*3 15.84 C 1.06667 km/h
361 15-07-2020 00:00:00 15.70833 C 11.91 g/m*3 15.71 C 0 km/h
362 15-07-2020 01:00:00 15.98333 C 11.64 g/m*3 15.98 C 2.53333 km/h
363 15-07-2020 02:00:00 16.15 C 11.64 g/m*3 16.15 C 4.53333 km/h
364 15-07-2020 03:00:00 15.85833 C 11.79 g/m*3 15.86 C 4.55833 km/h
365 15-07-2020 04:00:00 15.475 C 12.02 g/m*3 15.48 C 0.53333 km/h
366 15-07-2020 05:00:00 15.11667 C 12.1 g/m*3 15.12 C 1.33333 km/h
367 15-07-2020 06:00:00 14.83333 C 11.93 g/m*3 14.83 C 2.94167 km/h
368 15-07-2020 07:00:00 14.6 C 11.88 g/m*3 14.6 C 1.06667 km/h
369 15-07-2020 08:00:00 14.80833 C 11.85 g/m*3 14.81 C 5.5 km/h
370 15-07-2020 09:00:00 15.49167 C 11.34 g/m*3 15.49 C 9.68333 km/h
371 15-07-2020 10:00:00 16.30833 C 10.53 g/m*3 16.31 C 11.425 km/h
372 15-07-2020 11:00:00 17.8 C 9.94 g/m*3 17.8 C 12.23333 km/h
373 15-07-2020 12:00:00 18.4 C 9.49 g/m*3 18.4 C 13.69167 km/h
374 15-07-2020 13:00:00 19.2 C 9.59 g/m*3 19.2 C 12.9 km/h
375 15-07-2020 14:00:00 20.05 C 9.55 g/m*3 20.05 C 13.7 km/h
Sensor: Nr:Datum:Temp:Abs-Feuchte:Windchill:Wind:
Aussen-T/F 376 15-07-2020 15:00:00 20.94167 C 9.6 g/m*3 20.94 C 14.23333 km/h
377 15-07-2020 16:00:00 21.59167 C 9.78 g/m*3 21.59 C 14.36667 km/h
378 15-07-2020 17:00:00 21.28333 C 9.65 g/m*3 21.28 C 12.5 km/h
379 15-07-2020 18:00:00 20.6 C 9.37 g/m*3 20.6 C 9.96667 km/h
380 15-07-2020 19:00:00 20.225 C 9.24 g/m*3 20.23 C 9.025 km/h
381 15-07-2020 20:00:00 19.74167 C 9.77 g/m*3 19.74 C 3.875 km/h
382 15-07-2020 21:00:00 17.95833 C 10.44 g/m*3 17.96 C 2.13333 km/h
383 15-07-2020 22:00:00 16.80833 C 10.13 g/m*3 16.81 C 6.425 km/h
384 15-07-2020 23:00:00 16.31667 C 10.32 g/m*3 16.32 C 2.93333 km/h
385 16-07-2020 00:00:00 15.775 C 10.36 g/m*3 15.78 C 0.4 km/h
386 16-07-2020 01:00:00 14.93333 C 10.28 g/m*3 14.93 C 1.73333 km/h
387 16-07-2020 02:00:00 15.31667 C 10.74 g/m*3 15.32 C 0.53333 km/h
388 16-07-2020 03:00:00 15.20833 C 10.98 g/m*3 15.21 C 0 km/h
389 16-07-2020 04:00:00 15.25833 C 11.32 g/m*3 15.26 C 1.2 km/h
390 16-07-2020 05:00:00 14.99167 C 11.56 g/m*3 14.99 C 0.13333 km/h
391 16-07-2020 06:00:00 14.525 C 11.47 g/m*3 14.53 C 3.475 km/h
392 16-07-2020 07:00:00 14.39167 C 11.5 g/m*3 14.39 C 1.2 km/h
393 16-07-2020 08:00:00 15 C 11.86 g/m*3 15 C 4.675 km/h
394 16-07-2020 09:00:00 15.36667 C 12.08 g/m*3 15.37 C 5.21667 km/h
395 16-07-2020 10:00:00 15.88333 C 12.2 g/m*3 15.88 C 3.33333 km/h
396 16-07-2020 11:00:00 16.46667 C 12.38 g/m*3 16.47 C 3.6 km/h
397 16-07-2020 12:00:00 16.51667 C 12.87 g/m*3 16.52 C 4.15 km/h
398 16-07-2020 13:00:00 17.11667 C 13.02 g/m*3 17.12 C 6.425 km/h
399 16-07-2020 14:00:00 17.18333 C 12.95 g/m*3 17.18 C 7.39167 km/h
400 16-07-2020 15:00:00 17.34167 C 13.11 g/m*3 17.34 C 8.075 km/h
Sensor: Nr:Datum:Temp:Abs-Feuchte:Windchill:Wind:
Aussen-T/F 401 16-07-2020 16:00:00 17.14167 C 13.47 g/m*3 17.14 C 3.475 km/h
402 16-07-2020 17:00:00 17.96667 C 13.2 g/m*3 17.97 C 4 km/h
403 16-07-2020 18:00:00 18.20833 C 13.49 g/m*3 18.21 C 0.93333 km/h
404 16-07-2020 19:00:00 17.80833 C 13.5 g/m*3 17.81 C 1.73333 km/h
405 16-07-2020 20:00:00 17.025 C 13.33 g/m*3 17.02 C 2.94167 km/h
406 16-07-2020 21:00:00 15.93333 C 12.36 g/m*3 15.93 C 6.44167 km/h
407 16-07-2020 22:00:00 15.475 C 12.31 g/m*3 15.48 C 3.46667 km/h
408 16-07-2020 23:00:00 15.26667 C 12.33 g/m*3 15.27 C 1.2 km/h
409 17-07-2020 00:00:00 15.14167 C 12.29 g/m*3 15.14 C 1.73333 km/h
410 17-07-2020 01:00:00 15.1 C 12.32 g/m*3 15.1 C 0.8 km/h
411 17-07-2020 02:00:00 15.125 C 12.4 g/m*3 15.13 C 0.53333 km/h
412 17-07-2020 03:00:00 15.16667 C 12.44 g/m*3 15.17 C 1.33333 km/h
413 17-07-2020 04:00:00 15.2 C 12.46 g/m*3 15.2 C 0 km/h
414 17-07-2020 05:00:00 15.2 C 12.46 g/m*3 15.2 C 0 km/h
415 17-07-2020 06:00:00 15.225 C 12.48 g/m*3 15.23 C 1.06667 km/h
416 17-07-2020 07:00:00 15.34167 C 12.57 g/m*3 15.34 C 0.26667 km/h
417 17-07-2020 08:00:00 15.575 C 12.83 g/m*3 15.58 C 0.53333 km/h
418 17-07-2020 09:00:00 15.84167 C 12.96 g/m*3 15.84 C 4.00833 km/h
419 17-07-2020 10:00:00 16.775 C 13.41 g/m*3 16.77 C 7.39167 km/h
420 17-07-2020 11:00:00 18.16667 C 13.46 g/m*3 18.17 C 5.76667 km/h
421 17-07-2020 12:00:00 19.275 C 13.31 g/m*3 19.27 C 3.2 km/h
422 17-07-2020 13:00:00 20.54167 C 12.9 g/m*3 20.54 C 5.35 km/h
423 17-07-2020 14:00:00 21.6 C 12.44 g/m*3 21.6 C 8.33333 km/h
424 17-07-2020 15:00:00 22.95833 C 12.05 g/m*3 22.96 C 7.50833 km/h
425 17-07-2020 16:00:00 23.825 C 12.78 g/m*3 23.83 C 4.83333 km/h
Sensor: Nr:Datum:Temp:Abs-Feuchte:Windchill:Wind:
Aussen-T/F 426 17-07-2020 17:00:00 23.89167 C 11.28 g/m*3 23.89 C 9.93333 km/h
427 17-07-2020 18:00:00 24.35833 C 11.32 g/m*3 24.36 C 10.75833 km/h
428 17-07-2020 19:00:00 24.3 C 11.78 g/m*3 24.3 C 10.225 km/h
429 17-07-2020 20:00:00 22.58333 C 11.82 g/m*3 22.58 C 6.56667 km/h
430 17-07-2020 21:00:00 20.50833 C 12.11 g/m*3 20.51 C 3.2 km/h
431 17-07-2020 22:00:00 17.84167 C 12.2 g/m*3 17.84 C 3.73333 km/h
432 17-07-2020 23:00:00 16.525 C 12.06 g/m*3 16.52 C 4 km/h
433 18-07-2020 00:00:00 15.45833 C 11.67 g/m*3 15.46 C 0.8 km/h
434 18-07-2020 01:00:00 14.375 C 11.27 g/m*3 14.38 C 0 km/h
435 18-07-2020 02:00:00 13.75 C 11.08 g/m*3 13.75 C 0 km/h
436 18-07-2020 03:00:00 13.20833 C 10.8 g/m*3 13.21 C 0 km/h
437 18-07-2020 04:00:00 12.84167 C 10.63 g/m*3 12.84 C 0 km/h
438 18-07-2020 05:00:00 13.10833 C 10.86 g/m*3 13.11 C 0 km/h
439 18-07-2020 06:00:00 13.475 C 11.21 g/m*3 13.48 C 0 km/h
440 18-07-2020 07:00:00 13.8 C 11.37 g/m*3 13.8 C 0 km/h
441 18-07-2020 08:00:00 14.09167 C 11.58 g/m*3 14.09 C 0 km/h
442 18-07-2020 09:00:00 15.55 C 12.56 g/m*3 15.55 C 0 km/h
443 18-07-2020 10:00:00 18.28333 C 13.65 g/m*3 18.28 C 0 km/h
444 18-07-2020 11:00:00 21.925 C 13.09 g/m*3 21.93 C 2.96667 km/h
445 18-07-2020 12:00:00 23 C 12.35 g/m*3 23 C 4.26667 km/h
446 18-07-2020 13:00:00 23.84167 C 12.27 g/m*3 23.84 C 5.225 km/h
447 18-07-2020 14:00:00 24.11667 C 12.96 g/m*3 24.12 C 3.60833 km/h
448 18-07-2020 15:00:00 24.15 C 13.48 g/m*3 24.15 C 1.33333 km/h
449 18-07-2020 16:00:00 26.45833 C 11.97 g/m*3 26.46 C 5.35 km/h
450 18-07-2020 17:00:00 26.11667 C 11.88 g/m*3 26.12 C 4.81667 km/h
Sensor: Nr:Datum:Temp:Abs-Feuchte:Windchill:Wind:
Aussen-T/F 451 18-07-2020 18:00:00 26.73333 C 11.86 g/m*3 26.73 C 4.96667 km/h
452 18-07-2020 19:00:00 27.91667 C 11.62 g/m*3 27.92 C 6.04167 km/h
453 18-07-2020 20:00:00 26.54167 C 12.65 g/m*3 26.54 C 3.6 km/h
454 18-07-2020 21:00:00 21.56667 C 12.52 g/m*3 21.57 C 7.25 km/h
455 18-07-2020 22:00:00 19.65833 C 12.31 g/m*3 19.66 C 6.425 km/h
456 18-07-2020 23:00:00 18.5 C 12.22 g/m*3 18.5 C 2 km/h
457 19-07-2020 00:00:00 17 C 11.96 g/m*3 17 C 0 km/h
458 19-07-2020 01:00:00 15.85 C 11.53 g/m*3 15.85 C 0 km/h
459 19-07-2020 02:00:00 14.975 C 11.18 g/m*3 14.98 C 0 km/h
460 19-07-2020 03:00:00 14.45 C 11.1 g/m*3 14.45 C 0 km/h
461 19-07-2020 04:00:00 14.6 C 11.26 g/m*3 14.6 C 0 km/h
462 19-07-2020 05:00:00 14.76667 C 11.45 g/m*3 14.77 C 0 km/h
463 19-07-2020 06:00:00 15.23333 C 11.74 g/m*3 15.23 C 0 km/h
464 19-07-2020 07:00:00 15.89167 C 12.13 g/m*3 15.89 C 0 km/h
465 19-07-2020 08:00:00 16.66667 C 12.61 g/m*3 16.67 C 0 km/h
466 19-07-2020 09:00:00 18.80833 C 13.66 g/m*3 18.81 C 0 km/h
467 19-07-2020 10:00:00 21.39167 C 13.77 g/m*3 21.39 C 0.53333 km/h
468 19-07-2020 11:00:00 25.28333 C 12.06 g/m*3 25.28 C 8.31667 km/h
469 19-07-2020 12:00:00 26.88333 C 11.49 g/m*3 26.88 C 11.69167 km/h
470 19-07-2020 13:00:00 27.80833 C 11.44 g/m*3 27.81 C 10.225 km/h
471 19-07-2020 14:00:00 28.33333 C 10.78 g/m*3 28.33 C 12.9 km/h
472 19-07-2020 15:00:00 29.80833 C 10.23 g/m*3 29.81 C 10.35833 km/h
473 19-07-2020 16:00:00 29.775 C 10.68 g/m*3 29.78 C 9.025 km/h
474 19-07-2020 17:00:00 31.25 C 10.14 g/m*3 31.25 C 11.41667 km/h
475 19-07-2020 18:00:00 30.59167 C 10.41 g/m*3 30.59 C 5.75833 km/h
Sensor: Nr:Datum:Temp:Abs-Feuchte:Windchill:Wind:
Aussen-T/F 476 19-07-2020 19:00:00 29.16667 C 12.66 g/m*3 29.17 C 2.8 km/h
477 19-07-2020 20:00:00 27.55 C 11.89 g/m*3 27.55 C 5.75833 km/h
478 19-07-2020 21:00:00 24.98333 C 11.92 g/m*3 24.98 C 3.875 km/h
479 19-07-2020 22:00:00 22.81667 C 10.93 g/m*3 22.82 C 5.075 km/h
480 19-07-2020 23:00:00 21.425 C 10.26 g/m*3 21.43 C 4.95 km/h
481 20-07-2020 00:00:00 19.93333 C 10.13 g/m*3 19.93 C 3.2 km/h
482 20-07-2020 01:00:00 18.44167 C 10.38 g/m*3 18.44 C 3.2 km/h
483 20-07-2020 02:00:00 18.2 C 11.2 g/m*3 18.2 C 3.875 km/h
484 20-07-2020 03:00:00 17.625 C 11.77 g/m*3 17.63 C 1.86667 km/h
485 20-07-2020 04:00:00 16.45833 C 11.84 g/m*3 16.46 C 0 km/h
486 20-07-2020 05:00:00 15.90833 C 11.97 g/m*3 15.91 C 0.66667 km/h
487 20-07-2020 06:00:00 16.38333 C 12.78 g/m*3 16.38 C 2.8 km/h
488 20-07-2020 07:00:00 17.33333 C 13.37 g/m*3 17.33 C 0.66667 km/h
489 20-07-2020 08:00:00 17.94167 C 13.44 g/m*3 17.94 C 6.58333 km/h
490 20-07-2020 09:00:00 17.74167 C 13.31 g/m*3 17.74 C 5.09167 km/h
491 20-07-2020 10:00:00 17.80833 C 13.08 g/m*3 17.81 C 1.46667 km/h
492 20-07-2020 11:00:00 19.15 C 13.21 g/m*3 19.15 C 6.975 km/h
493 20-07-2020 12:00:00 20.01667 C 12.84 g/m*3 20.02 C 11.43333 km/h
494 20-07-2020 13:00:00 20.975 C 12.77 g/m*3 20.98 C 9.425 km/h
495 20-07-2020 14:00:00 21.65833 C 12.62 g/m*3 21.66 C 12.1 km/h
496 20-07-2020 15:00:00 22.53333 C 12.42 g/m*3 22.53 C 11.83333 km/h
497 20-07-2020 16:00:00 23.25833 C 12.29 g/m*3 23.26 C 11.83333 km/h
498 20-07-2020 17:00:00 23.925 C 11.83 g/m*3 23.93 C 12.5 km/h
499 20-07-2020 18:00:00 23.83333 C 11.35 g/m*3 23.83 C 13.03333 km/h
500 20-07-2020 19:00:00 22.625 C 10.8 g/m*3 22.63 C 10.89167 km/h
Sensor: Nr:Datum:Temp:Abs-Feuchte:Windchill:Wind:
Aussen-T/F 501 20-07-2020 20:00:00 21.40833 C 10.1 g/m*3 21.41 C 8.74167 km/h
502 20-07-2020 21:00:00 19.76667 C 10.11 g/m*3 19.77 C 1.33333 km/h
503 20-07-2020 22:00:00 17.24167 C 10.01 g/m*3 17.24 C 3.2 km/h
504 20-07-2020 23:00:00 16.08333 C 9.96 g/m*3 16.08 C 0.93333 km/h
505 21-07-2020 00:00:00 14.75 C 9.53 g/m*3 14.75 C 3.33333 km/h
506 21-07-2020 01:00:00 13.58333 C 9.3 g/m*3 13.58 C 2.26667 km/h
507 21-07-2020 02:00:00 13.45833 C 9.18 g/m*3 13.46 C 3.33333 km/h
508 21-07-2020 03:00:00 13.15833 C 9.16 g/m*3 13.16 C 3.46667 km/h
509 21-07-2020 04:00:00 12.81667 C 9.09 g/m*3 12.82 C 1.46667 km/h
510 21-07-2020 05:00:00 12.65833 C 8.99 g/m*3 12.66 C 2.8 km/h
511 21-07-2020 06:00:00 11.625 C 8.75 g/m*3 11.63 C 2.4 km/h
512 21-07-2020 07:00:00 11.675 C 8.99 g/m*3 11.68 C 2.66667 km/h
513 21-07-2020 08:00:00 13.38333 C 9.45 g/m*3 13.38 C 3.2 km/h
514 21-07-2020 09:00:00 14.85833 C 9.92 g/m*3 14.86 C 4.13333 km/h
515 21-07-2020 10:00:00 17.225 C 10.3 g/m*3 17.23 C 5.35 km/h
516 21-07-2020 11:00:00 19.325 C 9.8 g/m*3 19.33 C 11.025 km/h
517 21-07-2020 12:00:00 20.26667 C 9.7 g/m*3 20.27 C 11.69167 km/h
518 21-07-2020 13:00:00 20.68333 C 8.92 g/m*3 20.68 C 12.23333 km/h
519 21-07-2020 14:00:00 21.51667 C 8.76 g/m*3 21.52 C 12.625 km/h
520 21-07-2020 15:00:00 23.01667 C 8.8 g/m*3 23.02 C 13.83333 km/h
521 21-07-2020 16:00:00 24.40833 C 8.72 g/m*3 24.41 C 13.16667 km/h
522 21-07-2020 17:00:00 24.85833 C 8.32 g/m*3 24.86 C 12.9 km/h
523 21-07-2020 18:00:00 24.80833 C 8.24 g/m*3 24.81 C 12.1 km/h
524 21-07-2020 19:00:00 23.59167 C 7.85 g/m*3 23.59 C 10.89167 km/h
525 21-07-2020 20:00:00 22.09167 C 7.61 g/m*3 22.09 C 7.675 km/h
Sensor: Nr:Datum:Temp:Abs-Feuchte:Windchill:Wind:
Aussen-T/F 526 21-07-2020 21:00:00 18.99167 C 8.14 g/m*3 18.99 C 2.8 km/h
527 21-07-2020 22:00:00 15.925 C 8.23 g/m*3 15.93 C 5.475 km/h
528 21-07-2020 23:00:00 14.85833 C 8.48 g/m*3 14.86 C 3.06667 km/h
529 22-07-2020 00:00:00 13.425 C 8.52 g/m*3 13.43 C 0 km/h
530 22-07-2020 01:00:00 12.00833 C 8.33 g/m*3 12.01 C 0 km/h
531 22-07-2020 02:00:00 11.025 C 8.15 g/m*3 11.03 C 0 km/h
532 22-07-2020 03:00:00 10.30833 C 8.07 g/m*3 10.31 C 0 km/h
533 22-07-2020 04:00:00 9.65833 C 7.99 g/m*3 9.66 C 0 km/h
534 22-07-2020 05:00:00 9.24167 C 7.95 g/m*3 9.24 C 0 km/h
535 22-07-2020 06:00:00 9.14167 C 8.08 g/m*3 9.14 C 0 km/h
536 22-07-2020 07:00:00 9.525 C 8.4 g/m*3 9.53 C 0 km/h
537 22-07-2020 08:00:00 10.925 C 9.25 g/m*3 10.93 C 0 km/h
538 22-07-2020 09:00:00 12.79167 C 9.83 g/m*3 12.79 C 1.06667 km/h
539 22-07-2020 10:00:00 16.1 C 9.95 g/m*3 16.1 C 3.2 km/h
540 22-07-2020 11:00:00 19.21667 C 9.06 g/m*3 19.22 C 4.41667 km/h
541 22-07-2020 12:00:00 20.78333 C 8.05 g/m*3 20.78 C 7.38333 km/h
542 22-07-2020 13:00:00 21.925 C 7.7 g/m*3 21.93 C 8.74167 km/h
543 22-07-2020 14:00:00 23.10833 C 7.67 g/m*3 23.11 C 8.325 km/h
544 22-07-2020 15:00:00 24.5 C 8.04 g/m*3 24.5 C 10.75 km/h
545 22-07-2020 16:00:00 25.99167 C 8.72 g/m*3 25.99 C 12.1 km/h
546 22-07-2020 17:00:00 25.66667 C 8.58 g/m*3 25.67 C 12.76667 km/h
547 22-07-2020 18:00:00 24.83333 C 8.7 g/m*3 24.83 C 12.36667 km/h
548 22-07-2020 19:00:00 23.825 C 8.92 g/m*3 23.83 C 11.7 km/h
549 22-07-2020 20:00:00 22.64167 C 8.96 g/m*3 22.64 C 10.08333 km/h
550 22-07-2020 21:00:00 20.56667 C 9.07 g/m*3 20.57 C 3.61667 km/h
Sensor: Nr:Datum:Temp:Abs-Feuchte:Windchill:Wind:
Aussen-T/F 551 22-07-2020 22:00:00 17.64167 C 9.01 g/m*3 17.64 C 4.13333 km/h
552 22-07-2020 23:00:00 16.33333 C 8.93 g/m*3 16.33 C 2.8 km/h
553 23-07-2020 00:00:00 15.325 C 8.99 g/m*3 15.33 C 2 km/h
554 23-07-2020 01:00:00 14.78333 C 9.05 g/m*3 14.78 C 2.66667 km/h
555 23-07-2020 02:00:00 13.79167 C 8.96 g/m*3 13.79 C 1.2 km/h
556 23-07-2020 03:00:00 13.33333 C 8.9 g/m*3 13.33 C 0.53333 km/h
557 23-07-2020 04:00:00 12.30833 C 8.7 g/m*3 12.31 C 0 km/h
558 23-07-2020 05:00:00 11.1 C 8.48 g/m*3 11.1 C 0 km/h
559 23-07-2020 06:00:00 10.625 C 8.53 g/m*3 10.63 C 0.13333 km/h
560 23-07-2020 07:00:00 10.725 C 8.75 g/m*3 10.73 C 0 km/h
561 23-07-2020 08:00:00 11.66667 C 9.29 g/m*3 11.67 C 0 km/h
562 23-07-2020 09:00:00 13.79167 C 9.81 g/m*3 13.79 C 0.66667 km/h
563 23-07-2020 10:00:00 17.15833 C 9.63 g/m*3 17.16 C 3.2 km/h
564 23-07-2020 11:00:00 20.01667 C 9.08 g/m*3 20.02 C 7.24167 km/h
565 23-07-2020 12:00:00 21.24167 C 8.61 g/m*3 21.24 C 9.525 km/h
566 23-07-2020 13:00:00 22.33333 C 8.28 g/m*3 22.33 C 9.26667 km/h
567 23-07-2020 14:00:00 23.6 C 8.29 g/m*3 23.6 C 9.26667 km/h
568 23-07-2020 15:00:00 25.15833 C 8.48 g/m*3 25.16 C 9.275 km/h
569 23-07-2020 16:00:00 26.99167 C 8.68 g/m*3 26.99 C 7.93333 km/h
570 23-07-2020 17:00:00 27.95 C 8.81 g/m*3 27.95 C 7.23333 km/h
571 23-07-2020 18:00:00 27.975 C 8.8 g/m*3 27.98 C 6.44167 km/h
572 23-07-2020 19:00:00 27.025 C 9.02 g/m*3 27.03 C 3.2 km/h
573 23-07-2020 20:00:00 23.73333 C 10.18 g/m*3 23.73 C 3.2 km/h
574 23-07-2020 21:00:00 21.56667 C 9.91 g/m*3 21.57 C 4.53333 km/h
575 23-07-2020 22:00:00 20.65 C 10.4 g/m*3 20.65 C 2.13333 km/h
Sensor: Nr:Datum:Temp:Abs-Feuchte:Windchill:Wind:
Aussen-T/F 576 23-07-2020 23:00:00 19.45833 C 10.51 g/m*3 19.46 C 0 km/h
577 24-07-2020 00:00:00 18.75 C 10.5 g/m*3 18.75 C 0 km/h
578 24-07-2020 01:00:00 18.225 C 10.36 g/m*3 18.23 C 1.6 km/h
579 24-07-2020 02:00:00 17.46667 C 10.17 g/m*3 17.47 C 0.66667 km/h
580 24-07-2020 03:00:00 16.41667 C 10.05 g/m*3 16.42 C 0.4 km/h
581 24-07-2020 04:00:00 16.34167 C 10.22 g/m*3 16.34 C 2.54167 km/h
582 24-07-2020 05:00:00 16.44167 C 10.42 g/m*3 16.44 C 1.06667 km/h
583 24-07-2020 06:00:00 15.79167 C 10.38 g/m*3 15.79 C 0.13333 km/h
584 24-07-2020 07:00:00 17.04167 C 10.84 g/m*3 17.04 C 4.13333 km/h
585 24-07-2020 08:00:00 18.43333 C 10.98 g/m*3 18.43 C 8.05833 km/h
586 24-07-2020 09:00:00 20.34167 C 10.95 g/m*3 20.34 C 4.53333 km/h
587 24-07-2020 10:00:00 22.28333 C 10.55 g/m*3 22.28 C 2.66667 km/h
588 24-07-2020 11:00:00 23.28333 C 10.37 g/m*3 23.28 C 6.56667 km/h
589 24-07-2020 12:00:00 24.59167 C 10.01 g/m*3 24.59 C 14.75833 km/h
590 24-07-2020 13:00:00 25.65 C 9.63 g/m*3 25.65 C 12.35833 km/h
591 24-07-2020 14:00:00 25.55833 C 9.82 g/m*3 25.56 C 10.09167 km/h
592 24-07-2020 15:00:00 24.875 C 10.1 g/m*3 24.88 C 9.54167 km/h
593 24-07-2020 16:00:00 24.85 C 10.46 g/m*3 24.85 C 8.6 km/h
594 24-07-2020 17:00:00 25.76667 C 10.49 g/m*3 25.77 C 7.65833 km/h
595 24-07-2020 18:00:00 25.575 C 10.94 g/m*3 25.58 C 9.69167 km/h
596 24-07-2020 19:00:00 24.25 C 11.68 g/m*3 24.25 C 9.26667 km/h
597 24-07-2020 20:00:00 23.95 C 11.99 g/m*3 23.95 C 3.46667 km/h
598 24-07-2020 21:00:00 21.13333 C 11.89 g/m*3 21.13 C 5.74167 km/h
599 24-07-2020 22:00:00 20.85 C 12.15 g/m*3 20.85 C 2.93333 km/h
600 24-07-2020 23:00:00 21.175 C 12.71 g/m*3 21.18 C 6.56667 km/h
Sensor: Nr:Datum:Temp:Abs-Feuchte:Windchill:Wind:
Aussen-T/F 601 25-07-2020 00:00:00 19.96667 C 12.98 g/m*3 19.97 C 0.66667 km/h
602 25-07-2020 01:00:00 18.9 C 12.78 g/m*3 18.9 C 2.26667 km/h
603 25-07-2020 02:00:00 17.68333 C 12.4 g/m*3 17.68 C 3.73333 km/h
604 25-07-2020 03:00:00 16.475 C 11.88 g/m*3 16.48 C 3.2 km/h
605 25-07-2020 04:00:00 15.28333 C 11.37 g/m*3 15.28 C 0.66667 km/h
606 25-07-2020 05:00:00 14.55 C 11.19 g/m*3 14.55 C 1.46667 km/h
607 25-07-2020 06:00:00 14.675 C 11.45 g/m*3 14.68 C 1.2 km/h
608 25-07-2020 07:00:00 15.84167 C 12.17 g/m*3 15.84 C 1.86667 km/h
609 25-07-2020 08:00:00 17.48333 C 12.64 g/m*3 17.48 C 2.13333 km/h
610 25-07-2020 09:00:00 18.63333 C 13.04 g/m*3 18.63 C 2.53333 km/h
611 25-07-2020 10:00:00 20.68333 C 13.2 g/m*3 20.68 C 8.75833 km/h
612 25-07-2020 11:00:00 22.55833 C 12.68 g/m*3 22.56 C 12.63333 km/h
613 25-07-2020 12:00:00 24.20833 C 12.25 g/m*3 24.21 C 13.15833 km/h
614 25-07-2020 13:00:00 25.34167 C 11.99 g/m*3 25.34 C 14.49167 km/h
615 25-07-2020 14:00:00 25.33333 C 11.57 g/m*3 25.33 C 15.16667 km/h
616 25-07-2020 15:00:00 25.84167 C 11.54 g/m*3 25.84 C 12.35833 km/h
617 25-07-2020 16:00:00 26.85 C 11.04 g/m*3 26.85 C 10.9 km/h
618 25-07-2020 17:00:00 25.85 C 11 g/m*3 25.85 C 8.2 km/h
619 25-07-2020 18:00:00 25.63333 C 11.79 g/m*3 25.63 C 3.875 km/h
620 25-07-2020 19:00:00 26.1 C 11.87 g/m*3 26.1 C 5.36667 km/h
621 25-07-2020 20:00:00 24.28333 C 12.51 g/m*3 24.28 C 4.66667 km/h
622 25-07-2020 21:00:00 22.00833 C 12.14 g/m*3 22.01 C 6.00833 km/h
623 25-07-2020 22:00:00 20.53333 C 11.9 g/m*3 20.53 C 4.4 km/h
624 25-07-2020 23:00:00 19.65833 C 12.21 g/m*3 19.66 C 0.8 km/h
625 26-07-2020 00:00:00 19.16667 C 12.43 g/m*3 19.17 C 0 km/h
Sensor: Nr:Datum:Temp:Abs-Feuchte:Windchill:Wind:
Aussen-T/F 626 26-07-2020 01:00:00 19.60833 C 12.78 g/m*3 19.61 C 5.24167 km/h
627 26-07-2020 02:00:00 19.34167 C 13.84 g/m*3 19.34 C 7.64167 km/h
628 26-07-2020 03:00:00 18.2 C 13.96 g/m*3 18.2 C 4.00833 km/h
629 26-07-2020 04:00:00 17.60833 C 13.83 g/m*3 17.61 C 3.06667 km/h
630 26-07-2020 05:00:00 17.21667 C 13.71 g/m*3 17.22 C 2.4 km/h
631 26-07-2020 06:00:00 17.13333 C 13.71 g/m*3 17.13 C 2.4 km/h
632 26-07-2020 07:00:00 18.36667 C 13.98 g/m*3 18.37 C 7.93333 km/h
633 26-07-2020 08:00:00 19.59167 C 13.79 g/m*3 19.59 C 13.15833 km/h
634 26-07-2020 09:00:00 20.6 C 13.98 g/m*3 20.6 C 11.95833 km/h
635 26-07-2020 10:00:00 21.18333 C 13.56 g/m*3 21.18 C 15.03333 km/h
636 26-07-2020 11:00:00 22.11667 C 13.76 g/m*3 22.12 C 12.5 km/h
637 26-07-2020 12:00:00 21.15833 C 14.04 g/m*3 21.16 C 14.08333 km/h
638 26-07-2020 13:00:00 20.85 C 13.77 g/m*3 20.85 C 11.025 km/h
639 26-07-2020 14:00:00 23.59167 C 11.51 g/m*3 23.59 C 14.76667 km/h
640 26-07-2020 15:00:00 24.50833 C 11.16 g/m*3 24.51 C 15.43333 km/h
641 26-07-2020 16:00:00 25.625 C 10.67 g/m*3 25.63 C 13.56667 km/h
642 26-07-2020 17:00:00 26.3 C 10.25 g/m*3 26.3 C 13.96667 km/h
643 26-07-2020 18:00:00 26.1 C 10.24 g/m*3 26.1 C 13.56667 km/h
644 26-07-2020 19:00:00 23.94167 C 10.52 g/m*3 23.94 C 13.43333 km/h
645 26-07-2020 20:00:00 22.14167 C 10.96 g/m*3 22.14 C 3.88333 km/h
646 26-07-2020 21:00:00 20.58333 C 11.41 g/m*3 20.58 C 1.33333 km/h
647 26-07-2020 22:00:00 18.76667 C 11.16 g/m*3 18.77 C 3.86667 km/h
648 26-07-2020 23:00:00 17.34167 C 11.16 g/m*3 17.34 C 1.06667 km/h
649 27-07-2020 00:00:00 16.64167 C 11.32 g/m*3 16.64 C 0 km/h
650 27-07-2020 01:00:00 15.41667 C 10.75 g/m*3 15.42 C 0 km/h
Sensor: Nr:Datum:Temp:Abs-Feuchte:Windchill:Wind:
Aussen-T/F 651 27-07-2020 02:00:00 14.35833 C 10.49 g/m*3 14.36 C 0 km/h
652 27-07-2020 03:00:00 13.5 C 10.23 g/m*3 13.5 C 0 km/h
653 27-07-2020 04:00:00 12.85 C 10.05 g/m*3 12.85 C 0 km/h
654 27-07-2020 05:00:00 12.78333 C 10.29 g/m*3 12.78 C 0 km/h
655 27-07-2020 06:00:00 12.86667 C 10.38 g/m*3 12.87 C 0 km/h
656 27-07-2020 07:00:00 13.64167 C 10.91 g/m*3 13.64 C 0.4 km/h
657 27-07-2020 08:00:00 15.39167 C 11.63 g/m*3 15.39 C 0.13333 km/h
658 27-07-2020 09:00:00 17.2 C 12.08 g/m*3 17.2 C 1.2 km/h
659 27-07-2020 10:00:00 19.9 C 13.07 g/m*3 19.9 C 1.86667 km/h
660 27-07-2020 11:00:00 22.79167 C 13.15 g/m*3 22.79 C 2.93333 km/h
661 27-07-2020 12:00:00 24.79167 C 12.29 g/m*3 24.79 C 8.85833 km/h
662 27-07-2020 13:00:00 26.49167 C 10.93 g/m*3 26.49 C 11.425 km/h
663 27-07-2020 14:00:00 27.43333 C 11.86 g/m*3 27.43 C 10.75 km/h
664 27-07-2020 15:00:00 29.06667 C 11.53 g/m*3 29.07 C 9.95 km/h
665 27-07-2020 16:00:00 28.9 C 10.69 g/m*3 28.9 C 8.85833 km/h
666 27-07-2020 17:00:00 31.65 C 10.11 g/m*3 31.65 C 14.625 km/h
667 27-07-2020 18:00:00 31.275 C 10.1 g/m*3 31.28 C 10.48333 km/h
668 27-07-2020 19:00:00 30.54167 C 11.81 g/m*3 30.54 C 2.66667 km/h
669 27-07-2020 20:00:00 28.575 C 12.44 g/m*3 28.58 C 5.475 km/h
670 27-07-2020 21:00:00 26.09167 C 11.87 g/m*3 26.09 C 6.54167 km/h
671 27-07-2020 22:00:00 24.54167 C 11.7 g/m*3 24.54 C 3.20833 km/h
672 27-07-2020 23:00:00 23.19167 C 11.97 g/m*3 23.19 C 0 km/h
673 28-07-2020 00:00:00 21.54167 C 11.58 g/m*3 21.54 C 0 km/h
674 28-07-2020 01:00:00 21.90833 C 11.74 g/m*3 21.91 C 0 km/h
675 28-07-2020 02:00:00 22.19167 C 11.76 g/m*3 22.19 C 2.26667 km/h
Sensor: Nr:Datum:Temp:Abs-Feuchte:Windchill:Wind:
Aussen-T/F 676 28-07-2020 03:00:00 21.16667 C 11.56 g/m*3 21.17 C 1.33333 km/h
677 28-07-2020 04:00:00 20.19167 C 11.49 g/m*3 20.19 C 4.54167 km/h
678 28-07-2020 05:00:00 20.075 C 11.17 g/m*3 20.08 C 2.55 km/h
679 28-07-2020 06:00:00 19.7 C 11.65 g/m*3 19.7 C 0.26667 km/h
680 28-07-2020 07:00:00 20.35 C 12.1 g/m*3 20.35 C 2.94167 km/h
681 28-07-2020 08:00:00 21.71667 C 12.89 g/m*3 21.72 C 8.18333 km/h
682 28-07-2020 09:00:00 22.54167 C 13.35 g/m*3 22.54 C 12.9 km/h
683 28-07-2020 10:00:00 23.03333 C 12.6 g/m*3 23.03 C 16.1 km/h
684 28-07-2020 11:00:00 23.83333 C 12.19 g/m*3 23.83 C 15.83333 km/h
685 28-07-2020 12:00:00 24.425 C 11.83 g/m*3 24.43 C 16.1 km/h
686 28-07-2020 13:00:00 25.56667 C 11.07 g/m*3 25.57 C 17.96667 km/h
687 28-07-2020 14:00:00 25.93333 C 10.63 g/m*3 25.93 C 15.43333 km/h
688 28-07-2020 15:00:00 26.26667 C 10.11 g/m*3 26.27 C 13.95833 km/h
689 28-07-2020 16:00:00 27.025 C 10.14 g/m*3 27.03 C 13.96667 km/h
690 28-07-2020 17:00:00 27.4 C 9.71 g/m*3 27.4 C 15.96667 km/h
691 28-07-2020 18:00:00 27.275 C 9.56 g/m*3 27.28 C 13.56667 km/h
692 28-07-2020 19:00:00 25.625 C 9.24 g/m*3 25.63 C 15.7 km/h
693 28-07-2020 20:00:00 23.18333 C 8.9 g/m*3 23.18 C 11.56667 km/h
694 28-07-2020 21:00:00 21.01667 C 8.95 g/m*3 21.02 C 5.89167 km/h
695 28-07-2020 22:00:00 19.30833 C 9.04 g/m*3 19.31 C 4.69167 km/h
696 28-07-2020 23:00:00 18.66667 C 9.28 g/m*3 18.67 C 3.21667 km/h
697 29-07-2020 00:00:00 16.475 C 9.3 g/m*3 16.48 C 1.86667 km/h
698 29-07-2020 01:00:00 15.94167 C 9.93 g/m*3 15.94 C 3.875 km/h
699 29-07-2020 02:00:00 15.18333 C 9.85 g/m*3 15.18 C 3.6 km/h
700 29-07-2020 03:00:00 13.625 C 9.5 g/m*3 13.63 C 0 km/h
Sensor: Nr:Datum:Temp:Abs-Feuchte:Windchill:Wind:
Aussen-T/F 701 29-07-2020 04:00:00 12.425 C 9.33 g/m*3 12.43 C 1.33333 km/h
702 29-07-2020 05:00:00 11.70833 C 9.16 g/m*3 11.71 C 0.13333 km/h
703 29-07-2020 06:00:00 11.7 C 9.23 g/m*3 11.7 C 1.86667 km/h
704 29-07-2020 07:00:00 12.03333 C 9.37 g/m*3 12.03 C 3.46667 km/h
705 29-07-2020 08:00:00 13.1 C 9.79 g/m*3 13.1 C 2.53333 km/h
706 29-07-2020 09:00:00 15.5 C 10.13 g/m*3 15.5 C 3.86667 km/h
707 29-07-2020 10:00:00 18.125 C 10.03 g/m*3 18.13 C 4.95 km/h
708 29-07-2020 11:00:00 20.34167 C 9.99 g/m*3 20.34 C 8.85833 km/h
709 29-07-2020 12:00:00 21.3 C 9.69 g/m*3 21.3 C 10.225 km/h
710 29-07-2020 13:00:00 22.13333 C 9.24 g/m*3 22.13 C 9.54167 km/h
711 29-07-2020 14:00:00 23.725 C 8.96 g/m*3 23.73 C 8.46667 km/h
712 29-07-2020 15:00:00 25.4 C 8.95 g/m*3 25.4 C 8.875 km/h
713 29-07-2020 16:00:00 26.7 C 9.13 g/m*3 26.7 C 11.83333 km/h
714 29-07-2020 17:00:00 26.99167 C 9.11 g/m*3 26.99 C 10.9 km/h
715 29-07-2020 18:00:00 26.90833 C 9.22 g/m*3 26.91 C 11.03333 km/h
716 29-07-2020 19:00:00 25.675 C 9.44 g/m*3 25.68 C 10.49167 km/h
717 29-07-2020 20:00:00 23.55 C 9.46 g/m*3 23.55 C 10.89167 km/h
718 29-07-2020 21:00:00 21.25 C 9.57 g/m*3 21.25 C 2.54167 km/h
719 29-07-2020 22:00:00 18.10833 C 9.44 g/m*3 18.11 C 0.13333 km/h
720 29-07-2020 23:00:00 16.8 C 9.5 g/m*3 16.8 C 0 km/h
721 30-07-2020 00:00:00 15.30833 C 9.46 g/m*3 15.31 C 0 km/h
722 30-07-2020 01:00:00 14.05833 C 9.33 g/m*3 14.06 C 0 km/h
723 30-07-2020 02:00:00 13.23333 C 9.21 g/m*3 13.23 C 0 km/h
724 30-07-2020 03:00:00 12.50833 C 9.11 g/m*3 12.51 C 0 km/h
725 30-07-2020 04:00:00 11.88333 C 9 g/m*3 11.88 C 0 km/h
Sensor: Nr:Datum:Temp:Abs-Feuchte:Windchill:Wind:
Aussen-T/F 726 30-07-2020 05:00:00 11.425 C 8.94 g/m*3 11.43 C 0 km/h
727 30-07-2020 06:00:00 11.18333 C 8.96 g/m*3 11.18 C 0 km/h
728 30-07-2020 07:00:00 11.65833 C 9.34 g/m*3 11.66 C 0 km/h
729 30-07-2020 08:00:00 12.58333 C 9.83 g/m*3 12.58 C 0 km/h
730 30-07-2020 09:00:00 14.55833 C 10.57 g/m*3 14.56 C 0.13333 km/h
731 30-07-2020 10:00:00 18.74167 C 10.87 g/m*3 18.74 C 3.74167 km/h
732 30-07-2020 11:00:00 22.01667 C 10.68 g/m*3 22.02 C 4.80833 km/h
733 30-07-2020 12:00:00 23.54167 C 10.4 g/m*3 23.54 C 7.38333 km/h
734 30-07-2020 13:00:00 24.925 C 9.78 g/m*3 24.93 C 8.05 km/h
735 30-07-2020 14:00:00 26.43333 C 9.56 g/m*3 26.43 C 8.86667 km/h
736 30-07-2020 15:00:00 28.15833 C 9.58 g/m*3 28.16 C 9.95 km/h
737 30-07-2020 16:00:00 30.00833 C 8.9 g/m*3 30.01 C 8.475 km/h
738 30-07-2020 17:00:00 31.15833 C 8.77 g/m*3 31.16 C 6.95833 km/h
739 30-07-2020 18:00:00 31.74167 C 8.69 g/m*3 31.74 C 7.79167 km/h
740 30-07-2020 19:00:00 30.46667 C 8.63 g/m*3 30.47 C 8.61667 km/h
741 30-07-2020 20:00:00 28.75 C 9.52 g/m*3 28.75 C 3.60833 km/h
742 30-07-2020 21:00:00 24.4 C 9.9 g/m*3 24.4 C 4.26667 km/h
743 30-07-2020 22:00:00 21.8 C 9.59 g/m*3 21.8 C 2.8 km/h
744 30-07-2020 23:00:00 19.8 C 9.76 g/m*3 19.8 C 0.4 km/h
745 31-07-2020 00:00:00 18.05833 C 9.58 g/m*3 18.06 C 0 km/h
746 31-07-2020 01:00:00 16.85833 C 9.48 g/m*3 16.86 C 0 km/h
747 31-07-2020 02:00:00 15.76667 C 9.46 g/m*3 15.77 C 0 km/h
748 31-07-2020 03:00:00 14.99167 C 9.52 g/m*3 14.99 C 0 km/h
749 31-07-2020 04:00:00 14.15 C 9.54 g/m*3 14.15 C 0 km/h
750 31-07-2020 05:00:00 13.54167 C 9.54 g/m*3 13.54 C 0 km/h
Sensor: Nr:Datum:Temp:Abs-Feuchte:Windchill:Wind:
Aussen-T/F 751 31-07-2020 06:00:00 13.23333 C 9.63 g/m*3 13.23 C 0.13333 km/h
752 31-07-2020 07:00:00 13.45833 C 9.9 g/m*3 13.46 C 0 km/h
753 31-07-2020 08:00:00 14.39167 C 10.42 g/m*3 14.39 C 0.13333 km/h
754 31-07-2020 09:00:00 16.38333 C 11.11 g/m*3 16.38 C 0.4 km/h
755 31-07-2020 10:00:00 20.825 C 11.3 g/m*3 20.83 C 2.13333 km/h
756 31-07-2020 11:00:00 25.40833 C 11.05 g/m*3 25.41 C 5.90833 km/h
757 31-07-2020 12:00:00 29.4 C 10.23 g/m*3 29.4 C 14.76667 km/h
758 31-07-2020 13:00:00 30.825 C 10.49 g/m*3 30.83 C 10.1 km/h
759 31-07-2020 14:00:00 32.25833 C 10.58 g/m*3 32.26 C 8.34167 km/h
760 31-07-2020 15:00:00 34.3 C 10.32 g/m*3 34.3 C 8.46667 km/h
761 31-07-2020 16:00:00 36.68333 C 10.35 g/m*3 36.68 C 7.51667 km/h
762 31-07-2020 17:00:00 37.475 C 10.25 g/m*3 37.48 C 8.06667 km/h
763 31-07-2020 18:00:00 37.51667 C 9.71 g/m*3 37.52 C 8.2 km/h
764 31-07-2020 19:00:00 36.10833 C 10.05 g/m*3 36.11 C 5.35 km/h
765 31-07-2020 20:00:00 33.38333 C 11.38 g/m*3 33.38 C 3.73333 km/h
766 31-07-2020 21:00:00 27.14167 C 11.22 g/m*3 27.14 C 7.39167 km/h
767 31-07-2020 22:00:00 24.775 C 11.02 g/m*3 24.78 C 3.74167 km/h
768 31-07-2020 23:00:00 22.90833 C 11.18 g/m*3 22.91 C 1.73333 km/h
769 01-08-2020 00:00:00 21.03333 C 11.26 g/m*3 21.03 C 0.13333 km/h
770 01-08-2020 01:00:00 19.66667 C 11.48 g/m*3 19.67 C 0 km/h
771 01-08-2020 02:00:00 18.95 C 11.44 g/m*3 18.95 C 0.8 km/h
772 01-08-2020 03:00:00 18.31667 C 11.36 g/m*3 18.32 C 0 km/h
773 01-08-2020 04:00:00 17.65833 C 11.39 g/m*3 17.66 C 0.26667 km/h
774 01-08-2020 05:00:00 18.01667 C 11.66 g/m*3 18.02 C 0.8 km/h
775 01-08-2020 06:00:00 18.16667 C 11.71 g/m*3 18.17 C 0.8 km/h
Sensor: Nr:Datum:Temp:Abs-Feuchte:Windchill:Wind:
Aussen-T/F 776 01-08-2020 07:00:00 18.06667 C 12.13 g/m*3 18.07 C 0.4 km/h
777 01-08-2020 08:00:00 20.725 C 13.07 g/m*3 20.73 C 9.54167 km/h
778 01-08-2020 09:00:00 19.875 C 14.73 g/m*3 19.88 C 9.53333 km/h
779 01-08-2020 10:00:00 19.83333 C 15.73 g/m*3 19.83 C 2.275 km/h
780 01-08-2020 11:00:00 20.24167 C 16.52 g/m*3 20.24 C 0.13333 km/h
781 01-08-2020 12:00:00 21.00833 C 17.24 g/m*3 21.01 C 1.46667 km/h
782 01-08-2020 13:00:00 21.80833 C 17.76 g/m*3 21.81 C 1.73333 km/h
783 01-08-2020 14:00:00 23.7 C 18.36 g/m*3 23.7 C 2.93333 km/h
784 01-08-2020 15:00:00 25.79167 C 19.21 g/m*3 25.79 C 6.15833 km/h
785 01-08-2020 16:00:00 29.71667 C 18.57 g/m*3 29.72 C 6.15 km/h
786 01-08-2020 17:00:00 31.86667 C 17.35 g/m*3 31.87 C 7.10833 km/h
787 01-08-2020 18:00:00 30.9 C 17.35 g/m*3 30.9 C 5.49167 km/h
788 01-08-2020 19:00:00 27.6 C 17.56 g/m*3 27.6 C 5.75 km/h
789 01-08-2020 20:00:00 22.15 C 17.26 g/m*3 22.15 C 11.16667 km/h
790 01-08-2020 21:00:00 21.10833 C 17.45 g/m*3 21.11 C 8.59167 km/h
791 01-08-2020 22:00:00 20.9 C 17.48 g/m*3 20.9 C 8.21667 km/h
792 01-08-2020 23:00:00 20.525 C 17.11 g/m*3 20.53 C 7.11667 km/h
793 02-08-2020 00:00:00 20.11667 C 16.7 g/m*3 20.12 C 5.75 km/h
794 02-08-2020 01:00:00 20.01667 C 16.71 g/m*3 20.02 C 4.68333 km/h
795 02-08-2020 02:00:00 19.41667 C 16.03 g/m*3 19.42 C 3.075 km/h
796 02-08-2020 03:00:00 18.95 C 15.6 g/m*3 18.95 C 3.74167 km/h
797 02-08-2020 04:00:00 18.53333 C 15.27 g/m*3 18.53 C 2.93333 km/h
798 02-08-2020 05:00:00 17.55833 C 14.36 g/m*3 17.56 C 2.53333 km/h
799 02-08-2020 06:00:00 17.075 C 13.92 g/m*3 17.08 C 3.88333 km/h
800 02-08-2020 07:00:00 17.50833 C 14.03 g/m*3 17.51 C 1.46667 km/h
Sensor: Nr:Datum:Temp:Abs-Feuchte:Windchill:Wind:
Aussen-T/F 801 02-08-2020 08:00:00 18.175 C 14.59 g/m*3 18.18 C 0.4 km/h
802 02-08-2020 09:00:00 19.45833 C 14.06 g/m*3 19.46 C 3.75 km/h
803 02-08-2020 10:00:00 21.06667 C 13.56 g/m*3 21.07 C 8.6 km/h
804 02-08-2020 11:00:00 22.16667 C 13.6 g/m*3 22.17 C 8.34167 km/h
805 02-08-2020 12:00:00 22.63333 C 12.65 g/m*3 22.63 C 8.74167 km/h
806 02-08-2020 13:00:00 23.4 C 12.79 g/m*3 23.4 C 8.45833 km/h
807 02-08-2020 14:00:00 23.71667 C 12.06 g/m*3 23.72 C 10.75833 km/h
808 02-08-2020 15:00:00 24.61667 C 11.68 g/m*3 24.62 C 10.61667 km/h
809 02-08-2020 16:00:00 25.7 C 11.41 g/m*3 25.7 C 11.025 km/h
810 02-08-2020 17:00:00 26.125 C 12.05 g/m*3 26.13 C 12.9 km/h
811 02-08-2020 18:00:00 26.05833 C 11.24 g/m*3 26.06 C 11.96667 km/h
812 02-08-2020 19:00:00 25.53333 C 10.59 g/m*3 25.53 C 10.36667 km/h
813 02-08-2020 20:00:00 23.625 C 11.5 g/m*3 23.63 C 9.00833 km/h
814 02-08-2020 21:00:00 21.15833 C 11.82 g/m*3 21.16 C 3.35 km/h
815 02-08-2020 22:00:00 19.24167 C 12.11 g/m*3 19.24 C 1.46667 km/h
816 02-08-2020 23:00:00 18.98333 C 12.24 g/m*3 18.98 C 1.33333 km/h
817 03-08-2020 00:00:00 17.69167 C 12.13 g/m*3 17.69 C 2 km/h
818 03-08-2020 01:00:00 16.575 C 11.74 g/m*3 16.58 C 4.26667 km/h
819 03-08-2020 02:00:00 15.83333 C 11.54 g/m*3 15.83 C 2.4 km/h
820 03-08-2020 03:00:00 15 C 11.35 g/m*3 15 C 0.66667 km/h
821 03-08-2020 04:00:00 14.525 C 11.29 g/m*3 14.53 C 0.13333 km/h
822 03-08-2020 05:00:00 14.175 C 11.1 g/m*3 14.18 C 0 km/h
823 03-08-2020 06:00:00 13.46667 C 10.77 g/m*3 13.47 C 0 km/h
824 03-08-2020 07:00:00 14.2 C 11.34 g/m*3 14.2 C 1.33333 km/h
825 03-08-2020 08:00:00 16.075 C 11.69 g/m*3 16.08 C 0.13333 km/h
Sensor: Nr:Datum:Temp:Abs-Feuchte:Windchill:Wind:
Aussen-T/F 826 03-08-2020 09:00:00 17.925 C 11.89 g/m*3 17.93 C 0.80833 km/h
827 03-08-2020 10:00:00 19.01667 C 11.88 g/m*3 19.02 C 1.73333 km/h
828 03-08-2020 11:00:00 20.16667 C 11.37 g/m*3 20.17 C 3.74167 km/h
829 03-08-2020 12:00:00 21.18333 C 10.58 g/m*3 21.18 C 1.73333 km/h
830 03-08-2020 13:00:00 21.88333 C 10.44 g/m*3 21.88 C 3.6 km/h
831 03-08-2020 14:00:00 22.74167 C 10.55 g/m*3 22.74 C 4.00833 km/h
832 03-08-2020 15:00:00 22.83333 C 9.87 g/m*3 22.83 C 4.69167 km/h
833 03-08-2020 16:00:00 22.95 C 9.55 g/m*3 22.95 C 7.66667 km/h
834 03-08-2020 17:00:00 20.75833 C 10.67 g/m*3 20.76 C 12.23333 km/h
835 03-08-2020 18:00:00 20.08333 C 10.72 g/m*3 20.08 C 8.74167 km/h
836 03-08-2020 19:00:00 19.14167 C 11.19 g/m*3 19.14 C 5.075 km/h
837 03-08-2020 20:00:00 18.59167 C 11.19 g/m*3 18.59 C 1.73333 km/h
838 03-08-2020 21:00:00 17.55833 C 10.81 g/m*3 17.56 C 1.06667 km/h
839 03-08-2020 22:00:00 17.1 C 10.74 g/m*3 17.1 C 2.4 km/h
840 03-08-2020 23:00:00 16.56667 C 10.75 g/m*3 16.57 C 0 km/h
841 04-08-2020 00:00:00 16.3 C 10.93 g/m*3 16.3 C 0 km/h
842 04-08-2020 01:00:00 16.16667 C 11.09 g/m*3 16.17 C 0.66667 km/h
843 04-08-2020 02:00:00 16.35833 C 11.21 g/m*3 16.36 C 2.93333 km/h
844 04-08-2020 03:00:00 16.96667 C 11.13 g/m*3 16.97 C 8.45833 km/h
845 04-08-2020 04:00:00 16.29167 C 11.09 g/m*3 16.29 C 6.03333 km/h
846 04-08-2020 05:00:00 15.6 C 11.06 g/m*3 15.6 C 5.23333 km/h
847 04-08-2020 06:00:00 15.325 C 11.1 g/m*3 15.33 C 4.41667 km/h
848 04-08-2020 07:00:00 15.475 C 11.24 g/m*3 15.48 C 6.29167 km/h
849 04-08-2020 08:00:00 16.24167 C 11.35 g/m*3 16.24 C 6.71667 km/h
850 04-08-2020 09:00:00 17.05 C 11.33 g/m*3 17.05 C 8.05833 km/h
Sensor: Nr:Datum:Temp:Abs-Feuchte:Windchill:Wind:
Aussen-T/F 851 04-08-2020 10:00:00 17.78333 C 11.46 g/m*3 17.78 C 5.9 km/h
852 04-08-2020 11:00:00 19.25833 C 11.29 g/m*3 19.26 C 8.325 km/h
853 04-08-2020 12:00:00 20.05833 C 10.43 g/m*3 20.06 C 9.96667 km/h
854 04-08-2020 13:00:00 21.21667 C 10 g/m*3 21.22 C 11.43333 km/h
855 04-08-2020 14:00:00 22.275 C 9.83 g/m*3 22.28 C 11.29167 km/h
856 04-08-2020 15:00:00 23.31667 C 9.28 g/m*3 23.32 C 11.83333 km/h
857 04-08-2020 16:00:00 25.125 C 8.98 g/m*3 25.13 C 7.375 km/h
858 04-08-2020 17:00:00 24.95 C 8.95 g/m*3 24.95 C 8.6 km/h
859 04-08-2020 18:00:00 25.44167 C 8.93 g/m*3 25.44 C 9.53333 km/h
860 04-08-2020 19:00:00 24.74167 C 8.83 g/m*3 24.74 C 6.425 km/h
861 04-08-2020 20:00:00 22.95833 C 9.01 g/m*3 22.96 C 4.69167 km/h
862 04-08-2020 21:00:00 18.86667 C 9.34 g/m*3 18.87 C 5.46667 km/h
863 04-08-2020 22:00:00 16.825 C 9.19 g/m*3 16.83 C 4.93333 km/h
864 04-08-2020 23:00:00 15.125 C 9.32 g/m*3 15.13 C 0.26667 km/h
865 05-08-2020 00:00:00 13.75 C 9.01 g/m*3 13.75 C 0.13333 km/h
866 05-08-2020 01:00:00 12.93333 C 8.82 g/m*3 12.93 C 0.26667 km/h
867 05-08-2020 02:00:00 12.25833 C 8.74 g/m*3 12.26 C 0 km/h
868 05-08-2020 03:00:00 11.48333 C 8.58 g/m*3 11.48 C 0 km/h
869 05-08-2020 04:00:00 10.90833 C 8.52 g/m*3 10.91 C 0 km/h
870 05-08-2020 05:00:00 10.425 C 8.39 g/m*3 10.43 C 0 km/h
871 05-08-2020 06:00:00 10.15833 C 8.4 g/m*3 10.16 C 0 km/h
872 05-08-2020 07:00:00 10.43333 C 8.69 g/m*3 10.43 C 0 km/h
873 05-08-2020 08:00:00 11.25 C 9.11 g/m*3 11.25 C 0 km/h
874 05-08-2020 09:00:00 12.975 C 9.91 g/m*3 12.98 C 0 km/h
875 05-08-2020 10:00:00 15.775 C 10.85 g/m*3 15.78 C 0 km/h
Sensor: Nr:Datum:Temp:Abs-Feuchte:Windchill:Wind:
Aussen-T/F 876 05-08-2020 11:00:00 20.85833 C 10.83 g/m*3 20.86 C 4.55833 km/h
877 05-08-2020 12:00:00 24.08333 C 10.04 g/m*3 24.08 C 10.625 km/h
878 05-08-2020 13:00:00 25.325 C 9.77 g/m*3 25.33 C 10.225 km/h
879 05-08-2020 14:00:00 26.71667 C 9.75 g/m*3 26.72 C 9.41667 km/h
880 05-08-2020 15:00:00 28.66667 C 9.4 g/m*3 28.67 C 9.95833 km/h
881 05-08-2020 16:00:00 30.38333 C 9.29 g/m*3 30.38 C 9.55 km/h
882 05-08-2020 17:00:00 30.8 C 9.76 g/m*3 30.8 C 8.46667 km/h
883 05-08-2020 18:00:00 30.95833 C 9.61 g/m*3 30.96 C 8.45 km/h
884 05-08-2020 19:00:00 29.59167 C 9.07 g/m*3 29.59 C 6.56667 km/h
885 05-08-2020 20:00:00 27.075 C 9.43 g/m*3 27.08 C 3.74167 km/h
886 05-08-2020 21:00:00 21.8 C 9.61 g/m*3 21.8 C 5.61667 km/h
887 05-08-2020 22:00:00 19.61667 C 9.43 g/m*3 19.62 C 5.33333 km/h
888 05-08-2020 23:00:00 18.46667 C 9.47 g/m*3 18.47 C 1.46667 km/h
889 06-08-2020 00:00:00 16.99167 C 9.75 g/m*3 16.99 C 0 km/h
890 06-08-2020 01:00:00 15.95 C 9.61 g/m*3 15.95 C 0 km/h
891 06-08-2020 02:00:00 14.98333 C 9.48 g/m*3 14.98 C 0 km/h
892 06-08-2020 03:00:00 14.04167 C 9.44 g/m*3 14.04 C 0 km/h
893 06-08-2020 04:00:00 13.44167 C 9.48 g/m*3 13.44 C 0 km/h
894 06-08-2020 05:00:00 12.89167 C 9.36 g/m*3 12.89 C 0 km/h
895 06-08-2020 06:00:00 12.36667 C 9.37 g/m*3 12.37 C 0 km/h
896 06-08-2020 07:00:00 12.58333 C 9.68 g/m*3 12.58 C 0 km/h
897 06-08-2020 08:00:00 13.41667 C 10.16 g/m*3 13.42 C 0 km/h
898 06-08-2020 09:00:00 15.25833 C 10.97 g/m*3 15.26 C 0 km/h
899 06-08-2020 10:00:00 19.33333 C 11.76 g/m*3 19.33 C 3.75 km/h
900 06-08-2020 11:00:00 24.83333 C 11.21 g/m*3 24.83 C 7.39167 km/h
Sensor: Nr:Datum:Temp:Abs-Feuchte:Windchill:Wind:
Aussen-T/F 901 06-08-2020 12:00:00 26.23333 C 11.1 g/m*3 26.23 C 9 km/h
902 06-08-2020 13:00:00 27.21667 C 10.85 g/m*3 27.22 C 8.45833 km/h
903 06-08-2020 14:00:00 28.625 C 10.74 g/m*3 28.63 C 10.20833 km/h
904 06-08-2020 15:00:00 30.275 C 10.85 g/m*3 30.28 C 10.34167 km/h
905 06-08-2020 16:00:00 32.175 C 10.53 g/m*3 32.17 C 7.78333 km/h
906 06-08-2020 17:00:00 33.15833 C 10.56 g/m*3 33.16 C 7.66667 km/h
907 06-08-2020 18:00:00 32.84167 C 10.44 g/m*3 32.84 C 9.15 km/h
908 06-08-2020 19:00:00 31.30833 C 10.63 g/m*3 31.31 C 7.25 km/h
909 06-08-2020 20:00:00 29.03333 C 12.71 g/m*3 29.03 C 4 km/h
910 06-08-2020 21:00:00 24.38333 C 11.58 g/m*3 24.38 C 7.13333 km/h
911 06-08-2020 22:00:00 21.95 C 11.93 g/m*3 21.95 C 1.2 km/h
912 06-08-2020 23:00:00 20.35 C 11.76 g/m*3 20.35 C 0 km/h
913 07-08-2020 00:00:00 18.86667 C 11.56 g/m*3 18.87 C 0 km/h
914 07-08-2020 01:00:00 17.7 C 11.39 g/m*3 17.7 C 0 km/h
915 07-08-2020 02:00:00 16.95833 C 11.32 g/m*3 16.96 C 0 km/h
916 07-08-2020 03:00:00 16.225 C 11.19 g/m*3 16.23 C 0 km/h
917 07-08-2020 04:00:00 15.48333 C 11.05 g/m*3 15.48 C 0 km/h
918 07-08-2020 05:00:00 14.75833 C 10.87 g/m*3 14.76 C 0 km/h
919 07-08-2020 06:00:00 14.43333 C 10.92 g/m*3 14.43 C 0 km/h
920 07-08-2020 07:00:00 14.76667 C 11.18 g/m*3 14.77 C 0 km/h
921 07-08-2020 08:00:00 15.475 C 11.67 g/m*3 15.48 C 0 km/h
922 07-08-2020 09:00:00 17.13333 C 12.58 g/m*3 17.13 C 0 km/h
923 07-08-2020 10:00:00 19.925 C 13.29 g/m*3 19.93 C 0 km/h
924 07-08-2020 11:00:00 24.90833 C 13.28 g/m*3 24.91 C 0.13333 km/h
925 07-08-2020 12:00:00 28.75833 C 11.81 g/m*3 28.76 C 6.7 km/h
Sensor: Nr:Datum:Temp:Abs-Feuchte:Windchill:Wind:
Aussen-T/F 926 07-08-2020 13:00:00 30.26667 C 11.25 g/m*3 30.27 C 9.14167 km/h
927 07-08-2020 14:00:00 31.65833 C 11.19 g/m*3 31.66 C 9.39167 km/h
928 07-08-2020 15:00:00 32.99167 C 11.3 g/m*3 32.99 C 11.95833 km/h
929 07-08-2020 16:00:00 34.60833 C 11.39 g/m*3 34.61 C 11.16667 km/h
930 07-08-2020 17:00:00 34.99167 C 11.1 g/m*3 34.99 C 12.63333 km/h
931 07-08-2020 18:00:00 35.4 C 10.9 g/m*3 35.4 C 9.80833 km/h
932 07-08-2020 19:00:00 34.58333 C 11.96 g/m*3 34.58 C 4.025 km/h
933 07-08-2020 20:00:00 31.36667 C 12.92 g/m*3 31.37 C 4.13333 km/h
934 07-08-2020 21:00:00 27.05 C 12.17 g/m*3 27.05 C 6.45 km/h
935 07-08-2020 22:00:00 24.48333 C 12.63 g/m*3 24.48 C 0.93333 km/h
936 07-08-2020 23:00:00 22.61667 C 12.58 g/m*3 22.62 C 0 km/h
937 08-08-2020 00:00:00 21.14167 C 12.53 g/m*3 21.14 C 0 km/h
938 08-08-2020 01:00:00 20.04167 C 12.46 g/m*3 20.04 C 0 km/h
939 08-08-2020 02:00:00 19.19167 C 12.39 g/m*3 19.19 C 0 km/h
940 08-08-2020 03:00:00 18.58333 C 12.3 g/m*3 18.58 C 0 km/h
941 08-08-2020 04:00:00 17.83333 C 12.19 g/m*3 17.83 C 0 km/h
942 08-08-2020 05:00:00 17.36667 C 12.13 g/m*3 17.37 C 0 km/h
943 08-08-2020 06:00:00 17.025 C 12.16 g/m*3 17.02 C 0 km/h
944 08-08-2020 07:00:00 17.41667 C 12.61 g/m*3 17.42 C 0 km/h
945 08-08-2020 08:00:00 18.48333 C 13.32 g/m*3 18.48 C 0 km/h
946 08-08-2020 09:00:00 20.175 C 14.14 g/m*3 20.18 C 0 km/h
947 08-08-2020 10:00:00 22.85 C 14.49 g/m*3 22.85 C 0 km/h
948 08-08-2020 11:00:00 27.075 C 15.44 g/m*3 27.08 C 0 km/h
949 08-08-2020 12:00:00 30.46667 C 15.29 g/m*3 30.47 C 0 km/h
950 08-08-2020 13:00:00 32.61667 C 14.07 g/m*3 32.62 C 8.6 km/h
Sensor: Nr:Datum:Temp:Abs-Feuchte:Windchill:Wind:
Aussen-T/F 951 08-08-2020 14:00:00 33.7 C 13.45 g/m*3 33.7 C 8.75833 km/h
952 08-08-2020 15:00:00 34.825 C 13.22 g/m*3 34.83 C 8.34167 km/h
953 08-08-2020 16:00:00 36.80833 C 13.06 g/m*3 36.81 C 7.375 km/h
954 08-08-2020 17:00:00 37.90833 C 12.09 g/m*3 37.91 C 6.425 km/h
955 08-08-2020 18:00:00 37.19167 C 11.88 g/m*3 37.19 C 7.125 km/h
956 08-08-2020 19:00:00 36.44167 C 13.28 g/m*3 36.44 C 4.01667 km/h
957 08-08-2020 20:00:00 31.76667 C 13.42 g/m*3 31.77 C 5.475 km/h
958 08-08-2020 21:00:00 27.80833 C 13.14 g/m*3 27.81 C 5.60833 km/h
959 08-08-2020 22:00:00 26.21667 C 13.22 g/m*3 26.22 C 2.53333 km/h
960 08-08-2020 23:00:00 24.21667 C 13.27 g/m*3 24.22 C 0 km/h
961 09-08-2020 00:00:00 23.01667 C 13.39 g/m*3 23.02 C 0 km/h
962 09-08-2020 01:00:00 22 C 13.31 g/m*3 22 C 0 km/h
963 09-08-2020 02:00:00 20.875 C 13.11 g/m*3 20.88 C 0 km/h
964 09-08-2020 03:00:00 19.925 C 12.89 g/m*3 19.93 C 0 km/h
965 09-08-2020 04:00:00 19.375 C 12.86 g/m*3 19.38 C 0 km/h
966 09-08-2020 05:00:00 18.775 C 12.77 g/m*3 18.77 C 0 km/h
967 09-08-2020 06:00:00 18.54167 C 12.86 g/m*3 18.54 C 0 km/h
968 09-08-2020 07:00:00 18.96667 C 13.38 g/m*3 18.97 C 0 km/h
969 09-08-2020 08:00:00 19.76667 C 13.89 g/m*3 19.77 C 0 km/h
970 09-08-2020 09:00:00 21.375 C 14.73 g/m*3 21.38 C 0 km/h
971 09-08-2020 10:00:00 24.14167 C 14.73 g/m*3 24.14 C 0 km/h
972 09-08-2020 11:00:00 28.25 C 14.73 g/m*3 28.25 C 0 km/h
973 09-08-2020 12:00:00 32.01667 C 13.66 g/m*3 32.02 C 2.81667 km/h
974 09-08-2020 13:00:00 33.56667 C 12.93 g/m*3 33.57 C 5.61667 km/h
975 09-08-2020 14:00:00 34.46667 C 13.14 g/m*3 34.47 C 6.70833 km/h
Sensor: Nr:Datum:Temp:Abs-Feuchte:Windchill:Wind:
Aussen-T/F 976 09-08-2020 15:00:00 31.25 C 16.33 g/m*3 31.25 C 6.96667 km/h
977 09-08-2020 16:00:00 28.85 C 14.39 g/m*3 28.85 C 4.95 km/h
978 09-08-2020 17:00:00 28.025 C 14.52 g/m*3 28.03 C 3.075 km/h
979 09-08-2020 18:00:00 27.50833 C 14.38 g/m*3 27.51 C 3.86667 km/h
980 09-08-2020 19:00:00 26.88333 C 15.77 g/m*3 26.88 C 3.20833 km/h
981 09-08-2020 20:00:00 24.6 C 15.87 g/m*3 24.6 C 7.50833 km/h
982 09-08-2020 21:00:00 21.11667 C 15.92 g/m*3 21.12 C 6.15833 km/h
983 09-08-2020 22:00:00 20.66667 C 16.32 g/m*3 20.67 C 3.875 km/h
984 09-08-2020 23:00:00 20.66667 C 16.13 g/m*3 20.67 C 1.2 km/h
985 10-08-2020 00:00:00 19.74167 C 15.22 g/m*3 19.74 C 0.26667 km/h
986 10-08-2020 01:00:00 19.94167 C 15.54 g/m*3 19.94 C 6.16667 km/h
987 10-08-2020 02:00:00 20.61667 C 15.63 g/m*3 20.62 C 1.33333 km/h
988 10-08-2020 03:00:00 20.19167 C 15.41 g/m*3 20.19 C 1.46667 km/h
989 10-08-2020 04:00:00 19.55 C 15.06 g/m*3 19.55 C 0.26667 km/h
990 10-08-2020 05:00:00 19.80833 C 15.38 g/m*3 19.81 C 0.26667 km/h
991 10-08-2020 06:00:00 19.39167 C 15.04 g/m*3 19.39 C 0 km/h
992 10-08-2020 07:00:00 19.48333 C 15.38 g/m*3 19.48 C 0.13333 km/h
993 10-08-2020 08:00:00 20.59167 C 16.1 g/m*3 20.59 C 0.4 km/h
994 10-08-2020 09:00:00 23.175 C 16.47 g/m*3 23.18 C 6.175 km/h
995 10-08-2020 10:00:00 25.19167 C 16.09 g/m*3 25.19 C 7.11667 km/h
996 10-08-2020 11:00:00 26.81667 C 15.69 g/m*3 26.82 C 11.3 km/h
997 10-08-2020 12:00:00 27.4 C 15.81 g/m*3 27.4 C 11.15833 km/h
998 10-08-2020 13:00:00 29.275 C 16.01 g/m*3 29.28 C 13.7 km/h
999 10-08-2020 14:00:00 31.04167 C 15.98 g/m*3 31.04 C 12.63333 km/h
1000 10-08-2020 15:00:00 32.54167 C 15.87 g/m*3 32.54 C 13.43333 km/h
Sensor: Nr:Datum:Temp:Abs-Feuchte:Windchill:Wind:
Aussen-T/F 1001 10-08-2020 16:00:00 33.825 C 14.13 g/m*3 33.83 C 11.41667 km/h
1002 10-08-2020 17:00:00 34.40833 C 13.99 g/m*3 34.41 C 10.89167 km/h
1003 10-08-2020 18:00:00 33.76667 C 14.73 g/m*3 33.77 C 8.875 km/h
1004 10-08-2020 19:00:00 32.325 C 16.34 g/m*3 32.33 C 1.6 km/h
1005 10-08-2020 20:00:00 29.50833 C 16.29 g/m*3 29.51 C 1.46667 km/h
1006 10-08-2020 21:00:00 26.48333 C 15.88 g/m*3 26.48 C 2.4 km/h
1007 10-08-2020 22:00:00 26.375 C 15.43 g/m*3 26.38 C 2.675 km/h
1008 10-08-2020 23:00:00 24.98333 C 15.39 g/m*3 24.98 C 2.53333 km/h
1009 11-08-2020 00:00:00 23.59167 C 15.43 g/m*3 23.59 C 1.86667 km/h
1010 11-08-2020 01:00:00 22.78333 C 15.41 g/m*3 22.78 C 1.6 km/h
1011 11-08-2020 02:00:00 22.04167 C 15.26 g/m*3 22.04 C 2.53333 km/h
1012 11-08-2020 03:00:00 21.56667 C 15.03 g/m*3 21.57 C 2.8 km/h
1013 11-08-2020 04:00:00 20.99167 C 14.83 g/m*3 20.99 C 0.13333 km/h
1014 11-08-2020 05:00:00 20.6 C 14.68 g/m*3 20.6 C 0 km/h
1015 11-08-2020 06:00:00 20.11667 C 14.41 g/m*3 20.12 C 0 km/h
1016 11-08-2020 07:00:00 20.30833 C 14.88 g/m*3 20.31 C 0 km/h
1017 11-08-2020 08:00:00 21.775 C 15.53 g/m*3 21.78 C 0.66667 km/h
1018 11-08-2020 09:00:00 23.60833 C 15.59 g/m*3 23.61 C 0.53333 km/h
1019 11-08-2020 10:00:00 25.6 C 16.03 g/m*3 25.6 C 5.65 km/h
1020 11-08-2020 11:00:00 28.30833 C 16.2 g/m*3 28.31 C 10.75833 km/h
1021 11-08-2020 12:00:00 29.675 C 16.41 g/m*3 29.68 C 4.54167 km/h
1022 11-08-2020 13:00:00 30.40833 C 16.66 g/m*3 30.41 C 2.4 km/h
1023 11-08-2020 14:00:00 32.28333 C 15.68 g/m*3 32.28 C 7.525 km/h
1024 11-08-2020 15:00:00 33.4 C 14.75 g/m*3 33.4 C 7.51667 km/h
1025 11-08-2020 16:00:00 35.275 C 13.97 g/m*3 35.28 C 10.61667 km/h
Sensor: Nr:Datum:Temp:Abs-Feuchte:Windchill:Wind:
Aussen-T/F 1026 11-08-2020 17:00:00 34.475 C 13.94 g/m*3 34.48 C 8.86667 km/h
1027 11-08-2020 18:00:00 32.14167 C 14.2 g/m*3 32.14 C 6.15833 km/h
1028 11-08-2020 19:00:00 29.80833 C 15.88 g/m*3 29.81 C 5.75833 km/h
1029 11-08-2020 20:00:00 24.85 C 17.71 g/m*3 24.85 C 8.45833 km/h
1030 11-08-2020 21:00:00 22.13333 C 17.88 g/m*3 22.13 C 8.325 km/h
1031 11-08-2020 22:00:00 21.525 C 17.63 g/m*3 21.53 C 6.30833 km/h
1032 11-08-2020 23:00:00 21.30833 C 17.69 g/m*3 21.31 C 5.08333 km/h
1033 12-08-2020 00:00:00 21.13333 C 17.54 g/m*3 21.13 C 4.4 km/h
1034 12-08-2020 01:00:00 20.75 C 17.2 g/m*3 20.75 C 2 km/h
1035 12-08-2020 02:00:00 20.59167 C 17.17 g/m*3 20.59 C 0.66667 km/h
1036 12-08-2020 03:00:00 20.33333 C 16.92 g/m*3 20.33 C 0 km/h
1037 12-08-2020 04:00:00 19.825 C 16.42 g/m*3 19.83 C 0 km/h
1038 12-08-2020 05:00:00 19.66667 C 16.31 g/m*3 19.67 C 1.2 km/h
1039 12-08-2020 06:00:00 19.425 C 16.17 g/m*3 19.43 C 2.4 km/h
1040 12-08-2020 07:00:00 19.75833 C 16.53 g/m*3 19.76 C 0 km/h
1041 12-08-2020 08:00:00 20.48333 C 17.26 g/m*3 20.48 C 0 km/h
1042 12-08-2020 09:00:00 20.70833 C 17.49 g/m*3 20.71 C 0 km/h
1043 12-08-2020 10:00:00 21.23333 C 18.01 g/m*3 21.23 C 2.69167 km/h
1044 12-08-2020 11:00:00 24.20833 C 17.69 g/m*3 24.21 C 10.61667 km/h
1045 12-08-2020 12:00:00 27.01667 C 17.37 g/m*3 27.02 C 10.1 km/h
1046 12-08-2020 13:00:00 29.01667 C 17.56 g/m*3 29.02 C 11.81667 km/h
1047 12-08-2020 14:00:00 30.84167 C 17.56 g/m*3 30.84 C 9.275 km/h
1048 12-08-2020 15:00:00 33.1 C 16.43 g/m*3 33.1 C 8.05 km/h
1049 12-08-2020 16:00:00 34.81667 C 16.02 g/m*3 34.82 C 10.08333 km/h
1050 12-08-2020 17:00:00 31.975 C 18.49 g/m*3 31.98 C 6.69167 km/h
Sensor: Nr:Datum:Temp:Abs-Feuchte:Windchill:Wind:
Aussen-T/F 1051 12-08-2020 18:00:00 27.06667 C 15.52 g/m*3 27.07 C 11.94167 km/h
1052 12-08-2020 19:00:00 23.43333 C 17.5 g/m*3 23.43 C 5.08333 km/h
1053 12-08-2020 20:00:00 21.38333 C 17.11 g/m*3 21.38 C 0.66667 km/h
1054 12-08-2020 21:00:00 20.73333 C 16.83 g/m*3 20.73 C 0.93333 km/h
1055 12-08-2020 22:00:00 20.45 C 16.68 g/m*3 20.45 C 4.54167 km/h
1056 12-08-2020 23:00:00 19.84167 C 16.07 g/m*3 19.84 C 1.73333 km/h
1057 13-08-2020 00:00:00 19.925 C 16.3 g/m*3 19.93 C 0.93333 km/h
1058 13-08-2020 01:00:00 19.75833 C 16.09 g/m*3 19.76 C 0.66667 km/h
1059 13-08-2020 02:00:00 19.38333 C 15.68 g/m*3 19.38 C 2.66667 km/h
1060 13-08-2020 03:00:00 19.025 C 15.5 g/m*3 19.02 C 0.53333 km/h
1061 13-08-2020 04:00:00 18.99167 C 15.53 g/m*3 18.99 C 1.075 km/h
1062 13-08-2020 05:00:00 19.775 C 16.37 g/m*3 19.77 C 6.16667 km/h
1063 13-08-2020 06:00:00 19.83333 C 16.43 g/m*3 19.83 C 4.14167 km/h
1064 13-08-2020 07:00:00 19.65833 C 16.29 g/m*3 19.66 C 2 km/h
1065 13-08-2020 08:00:00 19.80833 C 16.58 g/m*3 19.81 C 1.06667 km/h
1066 13-08-2020 09:00:00 20.525 C 17.29 g/m*3 20.53 C 0 km/h
1067 13-08-2020 10:00:00 21.64167 C 18.44 g/m*3 21.64 C 0.4 km/h
1068 13-08-2020 11:00:00 23.025 C 19.91 g/m*3 23.03 C 2 km/h
1069 13-08-2020 12:00:00 25.13333 C 19.48 g/m*3 25.13 C 5.49167 km/h
1070 13-08-2020 13:00:00 27.83333 C 19.04 g/m*3 27.83 C 8.33333 km/h
1071 13-08-2020 14:00:00 29.725 C 16.98 g/m*3 29.73 C 13.025 km/h
1072 13-08-2020 15:00:00 29.45833 C 15.48 g/m*3 29.46 C 15.7 km/h
1073 13-08-2020 16:00:00 28.44167 C 15.69 g/m*3 28.44 C 11.01667 km/h
1074 13-08-2020 17:00:00 28.45833 C 16.5 g/m*3 28.46 C 5.89167 km/h
1075 13-08-2020 18:00:00 28.85833 C 17.5 g/m*3 28.86 C 2.54167 km/h
Sensor: Nr:Datum:Temp:Abs-Feuchte:Windchill:Wind:
Aussen-T/F 1076 13-08-2020 19:00:00 27.60833 C 18.67 g/m*3 27.61 C 0.66667 km/h
1077 13-08-2020 20:00:00 25.25833 C 17.98 g/m*3 25.26 C 2.8 km/h
1078 13-08-2020 21:00:00 22.86667 C 16.95 g/m*3 22.87 C 6.43333 km/h
1079 13-08-2020 22:00:00 22.6 C 16.86 g/m*3 22.6 C 4.28333 km/h
1080 13-08-2020 23:00:00 22.61667 C 16.76 g/m*3 22.62 C 0.26667 km/h
1081 14-08-2020 00:00:00 22.15 C 16.57 g/m*3 22.15 C 1.2 km/h
1082 14-08-2020 01:00:00 21.7 C 16.44 g/m*3 21.7 C 1.86667 km/h
1083 14-08-2020 02:00:00 21.09167 C 16.02 g/m*3 21.09 C 1.2 km/h
1084 14-08-2020 03:00:00 20.03333 C 15.43 g/m*3 20.03 C 0 km/h
1085 14-08-2020 04:00:00 19.26667 C 14.95 g/m*3 19.27 C 0.93333 km/h
1086 14-08-2020 05:00:00 18.74167 C 14.78 g/m*3 18.74 C 0.66667 km/h
1087 14-08-2020 06:00:00 18.74167 C 14.89 g/m*3 18.74 C 0.53333 km/h
1088 14-08-2020 07:00:00 18.95 C 14.98 g/m*3 18.95 C 0.26667 km/h
1089 14-08-2020 08:00:00 19.95833 C 15.66 g/m*3 19.96 C 0 km/h
1090 14-08-2020 09:00:00 21.06667 C 15.94 g/m*3 21.07 C 3.89167 km/h
1091 14-08-2020 10:00:00 22.61667 C 15.72 g/m*3 22.62 C 10.35833 km/h
1092 14-08-2020 11:00:00 22.3 C 15.67 g/m*3 22.3 C 7.78333 km/h
1093 14-08-2020 12:00:00 22.33333 C 15.65 g/m*3 22.33 C 6.70833 km/h
1094 14-08-2020 13:00:00 23.25833 C 16.06 g/m*3 23.26 C 8.88333 km/h
1095 14-08-2020 14:00:00 25.225 C 16.42 g/m*3 25.23 C 12.9 km/h
1096 14-08-2020 15:00:00 27.36667 C 16.02 g/m*3 27.37 C 11.43333 km/h
1097 14-08-2020 16:00:00 29.175 C 15.01 g/m*3 29.18 C 14.36667 km/h
1098 14-08-2020 17:00:00 30.06667 C 15.06 g/m*3 30.07 C 10.49167 km/h
1099 14-08-2020 18:00:00 30.35833 C 15.23 g/m*3 30.36 C 11.43333 km/h
1100 14-08-2020 19:00:00 28.625 C 15.92 g/m*3 28.63 C 5.5 km/h
Sensor: Nr:Datum:Temp:Abs-Feuchte:Windchill:Wind:
Aussen-T/F 1101 14-08-2020 20:00:00 26.15 C 15.94 g/m*3 26.15 C 2.94167 km/h
1102 14-08-2020 21:00:00 23.05833 C 16.1 g/m*3 23.06 C 4.55 km/h
1103 14-08-2020 22:00:00 22.05 C 15.83 g/m*3 22.05 C 0 km/h
1104 14-08-2020 23:00:00 21.625 C 15.72 g/m*3 21.63 C 0.53333 km/h
1105 15-08-2020 00:00:00 21.30833 C 15.82 g/m*3 21.31 C 1.73333 km/h
1106 15-08-2020 01:00:00 20.91667 C 15.78 g/m*3 20.92 C 0.26667 km/h
1107 15-08-2020 02:00:00 20.15 C 15.28 g/m*3 20.15 C 1.33333 km/h
1108 15-08-2020 03:00:00 19.4 C 15.07 g/m*3 19.4 C 0.13333 km/h
1109 15-08-2020 04:00:00 18.70833 C 14.79 g/m*3 18.71 C 0 km/h
1110 15-08-2020 05:00:00 18.30833 C 14.65 g/m*3 18.31 C 0 km/h
1111 15-08-2020 06:00:00 18.28333 C 14.72 g/m*3 18.28 C 0 km/h
1112 15-08-2020 07:00:00 18.56667 C 15.08 g/m*3 18.57 C 0 km/h
1113 15-08-2020 08:00:00 19.5 C 15.79 g/m*3 19.5 C 0 km/h
1114 15-08-2020 09:00:00 20.65833 C 16.21 g/m*3 20.66 C 0.53333 km/h
1115 15-08-2020 10:00:00 22.24167 C 16.74 g/m*3 22.24 C 3.73333 km/h
1116 15-08-2020 11:00:00 23.94167 C 17.11 g/m*3 23.94 C 4.15 km/h
1117 15-08-2020 12:00:00 25.04167 C 16.98 g/m*3 25.04 C 6.43333 km/h
1118 15-08-2020 13:00:00 25.825 C 16.63 g/m*3 25.83 C 5.91667 km/h
1119 15-08-2020 14:00:00 26.01667 C 16.04 g/m*3 26.02 C 8.59167 km/h
1120 15-08-2020 15:00:00 24.44167 C 15.48 g/m*3 24.44 C 2.94167 km/h
1121 15-08-2020 16:00:00 23.025 C 16.98 g/m*3 23.03 C 4.68333 km/h
1122 15-08-2020 17:00:00 23.55 C 17.43 g/m*3 23.55 C 4.00833 km/h
1123 15-08-2020 18:00:00 23.98333 C 17.48 g/m*3 23.98 C 0 km/h
1124 15-08-2020 19:00:00 23.4 C 17.7 g/m*3 23.4 C 0.26667 km/h
1125 15-08-2020 20:00:00 23.175 C 17.61 g/m*3 23.18 C 0.26667 km/h
Sensor: Nr:Datum:Temp:Abs-Feuchte:Windchill:Wind:
Aussen-T/F 1126 15-08-2020 21:00:00 21.99167 C 16.63 g/m*3 21.99 C 0 km/h
1127 15-08-2020 22:00:00 21.13333 C 16.48 g/m*3 21.13 C 0 km/h
1128 15-08-2020 23:00:00 20.44167 C 16.11 g/m*3 20.44 C 0 km/h
1129 16-08-2020 00:00:00 19.65 C 15.62 g/m*3 19.65 C 0.13333 km/h
1130 16-08-2020 01:00:00 19.175 C 15.35 g/m*3 19.18 C 0.26667 km/h
1131 16-08-2020 02:00:00 18.875 C 15.21 g/m*3 18.88 C 0.53333 km/h
1132 16-08-2020 03:00:00 18.43333 C 14.83 g/m*3 18.43 C 0 km/h
1133 16-08-2020 04:00:00 18.13333 C 14.68 g/m*3 18.13 C 0 km/h
1134 16-08-2020 05:00:00 17.9 C 14.5 g/m*3 17.9 C 0 km/h
1135 16-08-2020 06:00:00 17.45833 C 14.18 g/m*3 17.46 C 0 km/h
1136 16-08-2020 07:00:00 17.59167 C 14.39 g/m*3 17.59 C 0 km/h
1137 16-08-2020 08:00:00 18.44167 C 15.27 g/m*3 18.44 C 0.4 km/h
1138 16-08-2020 09:00:00 19.525 C 16.16 g/m*3 19.52 C 2.94167 km/h
1139 16-08-2020 10:00:00 22.6 C 16.71 g/m*3 22.6 C 7.8 km/h
1140 16-08-2020 11:00:00 25.84167 C 16.61 g/m*3 25.84 C 9.68333 km/h
1141 16-08-2020 12:00:00 27.64167 C 16.38 g/m*3 27.64 C 9.26667 km/h
1142 16-08-2020 13:00:00 28.5 C 16.33 g/m*3 28.5 C 7.26667 km/h
1143 16-08-2020 14:00:00 29.825 C 15.29 g/m*3 29.83 C 11.83333 km/h
1144 16-08-2020 15:00:00 30.73333 C 14.75 g/m*3 30.73 C 9.80833 km/h
1145 16-08-2020 16:00:00 31.375 C 14.8 g/m*3 31.38 C 8.875 km/h
1146 16-08-2020 17:00:00 28.84167 C 15.92 g/m*3 28.84 C 3.08333 km/h
1147 16-08-2020 18:00:00 27.45833 C 15.57 g/m*3 27.46 C 7.10833 km/h
1148 16-08-2020 19:00:00 24.15 C 16.55 g/m*3 24.15 C 6.025 km/h
1149 16-08-2020 20:00:00 21.40833 C 15.83 g/m*3 21.41 C 9.54167 km/h
1150 16-08-2020 21:00:00 19.51667 C 15.44 g/m*3 19.52 C 5.09167 km/h
Sensor: Nr:Datum:Temp:Abs-Feuchte:Windchill:Wind:
Aussen-T/F 1151 16-08-2020 22:00:00 19.25833 C 15.55 g/m*3 19.26 C 4.55 km/h
1152 16-08-2020 23:00:00 18.275 C 14.74 g/m*3 18.27 C 4.68333 km/h
1153 17-08-2020 00:00:00 18.54167 C 15.21 g/m*3 18.54 C 5.35833 km/h
1154 17-08-2020 01:00:00 18.35 C 15.05 g/m*3 18.35 C 3.06667 km/h
1155 17-08-2020 02:00:00 18.075 C 14.81 g/m*3 18.08 C 3.06667 km/h
1156 17-08-2020 03:00:00 18.25 C 15.11 g/m*3 18.25 C 6.56667 km/h
1157 17-08-2020 04:00:00 17.875 C 14.66 g/m*3 17.88 C 3.2 km/h
1158 17-08-2020 05:00:00 17.46667 C 14.41 g/m*3 17.47 C 2 km/h
1159 17-08-2020 06:00:00 17.475 C 14.44 g/m*3 17.48 C 2.53333 km/h
1160 17-08-2020 07:00:00 17.475 C 14.44 g/m*3 17.48 C 0.93333 km/h
1161 17-08-2020 08:00:00 18.1 C 14.99 g/m*3 18.1 C 1.33333 km/h
1162 17-08-2020 09:00:00 18.86667 C 15.68 g/m*3 18.87 C 0.4 km/h
1163 17-08-2020 10:00:00 19.35833 C 15.95 g/m*3 19.36 C 5.36667 km/h
1164 17-08-2020 11:00:00 20.78333 C 16.34 g/m*3 20.78 C 7.80833 km/h
1165 17-08-2020 12:00:00 22.04167 C 16.49 g/m*3 22.04 C 7.25 km/h
1166 17-08-2020 13:00:00 23.35833 C 16.42 g/m*3 23.36 C 5.50833 km/h
1167 17-08-2020 14:00:00 24.475 C 15.51 g/m*3 24.48 C 12.63333 km/h
1168 17-08-2020 15:00:00 25.58333 C 14.95 g/m*3 25.58 C 9.68333 km/h
1169 17-08-2020 16:00:00 26.91667 C 14.26 g/m*3 26.92 C 10.35833 km/h
1170 17-08-2020 17:00:00 27.93333 C 13.48 g/m*3 27.93 C 9.68333 km/h
1171 17-08-2020 18:00:00 26.65833 C 13.09 g/m*3 26.66 C 8.46667 km/h
1172 17-08-2020 19:00:00 26.44167 C 12.93 g/m*3 26.44 C 9.26667 km/h
1173 17-08-2020 20:00:00 22.925 C 13.87 g/m*3 22.93 C 7.4 km/h
1174 17-08-2020 21:00:00 20.08333 C 13.79 g/m*3 20.08 C 4.54167 km/h
1175 17-08-2020 22:00:00 19.61667 C 13.74 g/m*3 19.62 C 2.13333 km/h
Sensor: Nr:Datum:Temp:Abs-Feuchte:Windchill:Wind:
Aussen-T/F 1176 17-08-2020 23:00:00 19.28333 C 13.59 g/m*3 19.28 C 2.66667 km/h
1177 18-08-2020 00:00:00 18.95833 C 13.48 g/m*3 18.96 C 1.33333 km/h
1178 18-08-2020 01:00:00 18.40833 C 13.47 g/m*3 18.41 C 0.26667 km/h
1179 18-08-2020 02:00:00 18.2 C 13.37 g/m*3 18.2 C 1.46667 km/h
1180 18-08-2020 03:00:00 17.60833 C 12.79 g/m*3 17.61 C 2.53333 km/h
1181 18-08-2020 04:00:00 16.76667 C 12.51 g/m*3 16.77 C 0.26667 km/h
1182 18-08-2020 05:00:00 16.59167 C 12.61 g/m*3 16.59 C 2.13333 km/h
1183 18-08-2020 06:00:00 16.46667 C 12.44 g/m*3 16.47 C 3.20833 km/h
1184 18-08-2020 07:00:00 17.53333 C 12.7 g/m*3 17.53 C 5.60833 km/h
1185 18-08-2020 08:00:00 17.85833 C 12.98 g/m*3 17.86 C 9.14167 km/h
1186 18-08-2020 09:00:00 18.75 C 13.3 g/m*3 18.75 C 9.01667 km/h
1187 18-08-2020 10:00:00 20.00833 C 13.76 g/m*3 20.01 C 6.575 km/h
1188 18-08-2020 11:00:00 21.50833 C 13.58 g/m*3 21.51 C 7.11667 km/h
1189 18-08-2020 12:00:00 22.79167 C 13.13 g/m*3 22.79 C 9.28333 km/h
1190 18-08-2020 13:00:00 23.54167 C 13.14 g/m*3 23.54 C 8.46667 km/h
1191 18-08-2020 14:00:00 24.625 C 12.96 g/m*3 24.63 C 8.475 km/h
1192 18-08-2020 15:00:00 23.91667 C 12.63 g/m*3 23.92 C 12.225 km/h
1193 18-08-2020 16:00:00 22.36667 C 12.31 g/m*3 22.37 C 8.46667 km/h
1194 18-08-2020 17:00:00 18.9 C 14.7 g/m*3 18.9 C 4.56667 km/h
1195 18-08-2020 18:00:00 19.48333 C 15.41 g/m*3 19.48 C 6.15833 km/h
1196 18-08-2020 19:00:00 18.30833 C 14.5 g/m*3 18.31 C 7.25 km/h
1197 18-08-2020 20:00:00 17.775 C 14.25 g/m*3 17.77 C 6.425 km/h
1198 18-08-2020 21:00:00 16.71667 C 13.42 g/m*3 16.72 C 6.425 km/h
1199 18-08-2020 22:00:00 15.98333 C 12.92 g/m*3 15.98 C 2.8 km/h
1200 18-08-2020 23:00:00 15.075 C 12.24 g/m*3 15.08 C 1.6 km/h
Sensor: Nr:Datum:Temp:Abs-Feuchte:Windchill:Wind:
Aussen-T/F 1201 19-08-2020 00:00:00 14.8 C 12.13 g/m*3 14.8 C 0.8 km/h
1202 19-08-2020 01:00:00 14.44167 C 11.9 g/m*3 14.44 C 0 km/h
1203 19-08-2020 02:00:00 14.05833 C 11.62 g/m*3 14.06 C 0 km/h
1204 19-08-2020 03:00:00 13.75833 C 11.42 g/m*3 13.76 C 0.26667 km/h
1205 19-08-2020 04:00:00 13.4 C 11.22 g/m*3 13.4 C 0.13333 km/h
1206 19-08-2020 05:00:00 13.10833 C 11.05 g/m*3 13.11 C 0.13333 km/h
1207 19-08-2020 06:00:00 13.15833 C 11.11 g/m*3 13.16 C 0 km/h
1208 19-08-2020 07:00:00 13.925 C 11.65 g/m*3 13.93 C 0 km/h
1209 19-08-2020 08:00:00 14.45 C 12.03 g/m*3 14.45 C 0.8 km/h
1210 19-08-2020 09:00:00 15.1 C 12.57 g/m*3 15.1 C 0.8 km/h
1211 19-08-2020 10:00:00 16.01667 C 13.31 g/m*3 16.02 C 0 km/h
1212 19-08-2020 11:00:00 18.15833 C 15.16 g/m*3 18.16 C 0 km/h
1213 19-08-2020 12:00:00 20.175 C 16.3 g/m*3 20.18 C 2.53333 km/h
1214 19-08-2020 13:00:00 22.71667 C 14.95 g/m*3 22.72 C 2.8 km/h
1215 19-08-2020 14:00:00 25.425 C 14.11 g/m*3 25.43 C 3.08333 km/h
1216 19-08-2020 15:00:00 25.95 C 14.18 g/m*3 25.95 C 6.45 km/h
1217 19-08-2020 16:00:00 26.85 C 14.72 g/m*3 26.85 C 4.01667 km/h
1218 19-08-2020 17:00:00 28.43333 C 13.65 g/m*3 28.43 C 9.01667 km/h
1219 19-08-2020 18:00:00 28.24167 C 13.62 g/m*3 28.24 C 7.54167 km/h
1220 19-08-2020 19:00:00 24.36667 C 14.99 g/m*3 24.37 C 2.4 km/h
1221 19-08-2020 20:00:00 21.74167 C 14.34 g/m*3 21.74 C 6.95833 km/h
1222 19-08-2020 21:00:00 20.45833 C 13.85 g/m*3 20.46 C 5.46667 km/h
1223 19-08-2020 22:00:00 20.175 C 14.24 g/m*3 20.18 C 4.53333 km/h
1224 19-08-2020 23:00:00 20.24167 C 14.47 g/m*3 20.24 C 4.66667 km/h
1225 20-08-2020 00:00:00 19.96667 C 14.65 g/m*3 19.97 C 2.53333 km/h
Sensor: Nr:Datum:Temp:Abs-Feuchte:Windchill:Wind:
Aussen-T/F 1226 20-08-2020 01:00:00 20.19167 C 14.62 g/m*3 20.19 C 2.8 km/h
1227 20-08-2020 02:00:00 19.86667 C 14.89 g/m*3 19.87 C 5.09167 km/h
1228 20-08-2020 03:00:00 19.05833 C 14.73 g/m*3 19.06 C 0.4 km/h
1229 20-08-2020 04:00:00 18.95 C 14.81 g/m*3 18.95 C 0.26667 km/h
1230 20-08-2020 05:00:00 18.85833 C 15.04 g/m*3 18.86 C 1.33333 km/h
1231 20-08-2020 06:00:00 18.675 C 15.12 g/m*3 18.68 C 0 km/h
1232 20-08-2020 07:00:00 18.61667 C 15.17 g/m*3 18.62 C 0 km/h
1233 20-08-2020 08:00:00 19.275 C 15.9 g/m*3 19.27 C 0.4 km/h
1234 20-08-2020 09:00:00 20.29167 C 16.89 g/m*3 20.29 C 1.60833 km/h
1235 20-08-2020 10:00:00 20.96667 C 17.37 g/m*3 20.97 C 0.4 km/h
1236 20-08-2020 11:00:00 22.30833 C 18.16 g/m*3 22.31 C 1.06667 km/h
1237 20-08-2020 12:00:00 24.73333 C 17.86 g/m*3 24.73 C 2.26667 km/h
1238 20-08-2020 13:00:00 26.49167 C 17.26 g/m*3 26.49 C 6.04167 km/h
1239 20-08-2020 14:00:00 28.64167 C 17.44 g/m*3 28.64 C 6.15833 km/h
1240 20-08-2020 15:00:00 30.34167 C 17.22 g/m*3 30.34 C 8.19167 km/h
1241 20-08-2020 16:00:00 31.66667 C 17.27 g/m*3 31.67 C 10.08333 km/h
1242 20-08-2020 17:00:00 32.56667 C 16.82 g/m*3 32.57 C 8.19167 km/h
1243 20-08-2020 18:00:00 33.33333 C 16.18 g/m*3 33.33 C 8.725 km/h
1244 20-08-2020 19:00:00 31.53333 C 17.84 g/m*3 31.53 C 4.55 km/h
1245 20-08-2020 20:00:00 26.125 C 17.1 g/m*3 26.13 C 2.54167 km/h
1246 20-08-2020 21:00:00 23.95 C 16.54 g/m*3 23.95 C 5.61667 km/h
1247 20-08-2020 22:00:00 23.26667 C 16.19 g/m*3 23.27 C 4.26667 km/h
1248 20-08-2020 23:00:00 22.975 C 15.94 g/m*3 22.98 C 4.66667 km/h
1249 21-08-2020 00:00:00 23.6 C 15.9 g/m*3 23.6 C 4.00833 km/h
1250 21-08-2020 01:00:00 23.625 C 15.99 g/m*3 23.63 C 4.41667 km/h
Sensor: Nr:Datum:Temp:Abs-Feuchte:Windchill:Wind:
Aussen-T/F 1251 21-08-2020 02:00:00 23.88333 C 15.89 g/m*3 23.88 C 3.48333 km/h
1252 21-08-2020 03:00:00 25.10833 C 15.61 g/m*3 25.11 C 4.28333 km/h
1253 21-08-2020 04:00:00 24.375 C 15.83 g/m*3 24.38 C 4.01667 km/h
1254 21-08-2020 05:00:00 23.05 C 15.97 g/m*3 23.05 C 3.73333 km/h
1255 21-08-2020 06:00:00 22.15833 C 15.82 g/m*3 22.16 C 2.4 km/h
1256 21-08-2020 07:00:00 22.29167 C 15.89 g/m*3 22.29 C 2.93333 km/h
1257 21-08-2020 08:00:00 23.50833 C 16.93 g/m*3 23.51 C 2.13333 km/h
1258 21-08-2020 09:00:00 24.94167 C 17.61 g/m*3 24.94 C 0.4 km/h
1259 21-08-2020 10:00:00 25.725 C 16.82 g/m*3 25.73 C 4.15833 km/h
1260 21-08-2020 11:00:00 26.54167 C 16.29 g/m*3 26.54 C 6.69167 km/h
1261 21-08-2020 12:00:00 26.55833 C 16.34 g/m*3 26.56 C 4.55 km/h
1262 21-08-2020 13:00:00 27.66667 C 16.31 g/m*3 27.67 C 8.325 km/h
1263 21-08-2020 14:00:00 27.625 C 17.49 g/m*3 27.63 C 3.21667 km/h
1264 21-08-2020 15:00:00 28.81667 C 16.56 g/m*3 28.82 C 4.55 km/h
1265 21-08-2020 16:00:00 28.69167 C 18.31 g/m*3 28.69 C 0.26667 km/h
1266 21-08-2020 17:00:00 27.175 C 19.06 g/m*3 27.18 C 0.26667 km/h
1267 21-08-2020 18:00:00 27.80833 C 17.74 g/m*3 27.81 C 6.18333 km/h
1268 21-08-2020 19:00:00 27.79167 C 16.8 g/m*3 27.79 C 3.89167 km/h
1269 21-08-2020 20:00:00 25.85 C 16.96 g/m*3 25.85 C 0.4 km/h
1270 21-08-2020 21:00:00 24.26667 C 16.18 g/m*3 24.27 C 0.66667 km/h
1271 21-08-2020 22:00:00 23.35 C 16.22 g/m*3 23.35 C 1.06667 km/h
1272 21-08-2020 23:00:00 22.25 C 16.1 g/m*3 22.25 C 0 km/h
1273 22-08-2020 00:00:00 21.8 C 16 g/m*3 21.8 C 0 km/h
1274 22-08-2020 01:00:00 21.65 C 15.88 g/m*3 21.65 C 0.8 km/h
1275 22-08-2020 02:00:00 21.43333 C 15.75 g/m*3 21.43 C 0.93333 km/h
Sensor: Nr:Datum:Temp:Abs-Feuchte:Windchill:Wind:
Aussen-T/F 1276 22-08-2020 03:00:00 21.28333 C 15.46 g/m*3 21.28 C 1.06667 km/h
1277 22-08-2020 04:00:00 20.675 C 15.08 g/m*3 20.68 C 1.2 km/h
1278 22-08-2020 05:00:00 20.525 C 15.21 g/m*3 20.53 C 1.86667 km/h
1279 22-08-2020 06:00:00 20.94167 C 15.46 g/m*3 20.94 C 6.29167 km/h
1280 22-08-2020 07:00:00 21.5 C 15.51 g/m*3 21.5 C 8.725 km/h
1281 22-08-2020 08:00:00 21.525 C 15.33 g/m*3 21.53 C 9.00833 km/h
1282 22-08-2020 09:00:00 21.70833 C 13.9 g/m*3 21.71 C 10.2 km/h
1283 22-08-2020 10:00:00 21.79167 C 12.99 g/m*3 21.79 C 12.76667 km/h
1284 22-08-2020 11:00:00 22.35 C 12.31 g/m*3 22.35 C 16.76667 km/h
1285 22-08-2020 12:00:00 23.175 C 11.97 g/m*3 23.18 C 18.63333 km/h
1286 22-08-2020 13:00:00 24.24167 C 11.78 g/m*3 24.24 C 17.96667 km/h
1287 22-08-2020 14:00:00 25.16667 C 11.62 g/m*3 25.17 C 17.025 km/h
1288 22-08-2020 15:00:00 25.38333 C 11.15 g/m*3 25.38 C 15.56667 km/h
1289 22-08-2020 16:00:00 26.63333 C 10.93 g/m*3 26.63 C 18.9 km/h
1290 22-08-2020 17:00:00 26.49167 C 10.8 g/m*3 26.49 C 16.5 km/h
1291 22-08-2020 18:00:00 25.15833 C 10.7 g/m*3 25.16 C 16.9 km/h
1292 22-08-2020 19:00:00 24.09167 C 10.99 g/m*3 24.09 C 9.01667 km/h
1293 22-08-2020 20:00:00 22.5 C 11.53 g/m*3 22.5 C 3.075 km/h
1294 22-08-2020 21:00:00 20.53333 C 11.65 g/m*3 20.53 C 0.53333 km/h
1295 22-08-2020 22:00:00 19.75833 C 11.88 g/m*3 19.76 C 0 km/h
1296 22-08-2020 23:00:00 18.63333 C 11.65 g/m*3 18.63 C 0 km/h
1297 23-08-2020 00:00:00 18.81667 C 11.74 g/m*3 18.82 C 0 km/h
1298 23-08-2020 01:00:00 18.90833 C 12.17 g/m*3 18.91 C 0 km/h
1299 23-08-2020 02:00:00 18.375 C 12.3 g/m*3 18.38 C 0 km/h
1300 23-08-2020 03:00:00 17.71667 C 12.09 g/m*3 17.72 C 0 km/h
Sensor: Nr:Datum:Temp:Abs-Feuchte:Windchill:Wind:
Aussen-T/F 1301 23-08-2020 04:00:00 17.26667 C 12.08 g/m*3 17.27 C 0 km/h
1302 23-08-2020 05:00:00 17.16667 C 11.97 g/m*3 17.17 C 0.4 km/h
1303 23-08-2020 06:00:00 16.93333 C 11.82 g/m*3 16.93 C 2.13333 km/h
1304 23-08-2020 07:00:00 16.49167 C 11.86 g/m*3 16.49 C 0.93333 km/h
1305 23-08-2020 08:00:00 18.025 C 12.46 g/m*3 18.02 C 2.53333 km/h
1306 23-08-2020 09:00:00 18.975 C 12.5 g/m*3 18.98 C 3.875 km/h
1307 23-08-2020 10:00:00 20.11667 C 11.86 g/m*3 20.12 C 11.29167 km/h
1308 23-08-2020 11:00:00 20.38333 C 10.96 g/m*3 20.38 C 15.16667 km/h
1309 23-08-2020 12:00:00 20.825 C 10.77 g/m*3 20.83 C 15.43333 km/h
1310 23-08-2020 13:00:00 21.175 C 9.96 g/m*3 21.18 C 15.03333 km/h
1311 23-08-2020 14:00:00 22.1 C 9.6 g/m*3 22.1 C 15.56667 km/h
1312 23-08-2020 15:00:00 22.2 C 9.8 g/m*3 22.2 C 15.83333 km/h
1313 23-08-2020 16:00:00 22.34167 C 9.78 g/m*3 22.34 C 13.56667 km/h
1314 23-08-2020 17:00:00 21.83333 C 10.03 g/m*3 21.83 C 13.15833 km/h
1315 23-08-2020 18:00:00 20.60833 C 10.76 g/m*3 20.61 C 15.7 km/h
1316 23-08-2020 19:00:00 18.925 C 11.53 g/m*3 18.93 C 12.36667 km/h
1317 23-08-2020 20:00:00 18.26667 C 11.6 g/m*3 18.27 C 10.35833 km/h
1318 23-08-2020 21:00:00 17.90833 C 11.51 g/m*3 17.91 C 11.43333 km/h
1319 23-08-2020 22:00:00 17.50833 C 11.47 g/m*3 17.51 C 10.20833 km/h
1320 23-08-2020 23:00:00 16.91667 C 11.4 g/m*3 16.92 C 7.10833 km/h
1321 24-08-2020 00:00:00 16.85833 C 11.33 g/m*3 16.86 C 4.55 km/h
1322 24-08-2020 01:00:00 16.425 C 11.36 g/m*3 16.43 C 2.53333 km/h
1323 24-08-2020 02:00:00 16.5 C 11.46 g/m*3 16.5 C 4.40833 km/h
1324 24-08-2020 03:00:00 16.41667 C 11.44 g/m*3 16.42 C 0.93333 km/h
1325 24-08-2020 04:00:00 16.275 C 11.39 g/m*3 16.27 C 3.74167 km/h
Sensor: Nr:Datum:Temp:Abs-Feuchte:Windchill:Wind:
Aussen-T/F 1326 24-08-2020 05:00:00 16.03333 C 11.25 g/m*3 16.03 C 2.93333 km/h
1327 24-08-2020 06:00:00 15.65833 C 11.19 g/m*3 15.66 C 3.33333 km/h
1328 24-08-2020 07:00:00 14.875 C 10.88 g/m*3 14.88 C 3.475 km/h
1329 24-08-2020 08:00:00 14.76667 C 10.7 g/m*3 14.77 C 5.08333 km/h
1330 24-08-2020 09:00:00 16.325 C 10.9 g/m*3 16.33 C 13.96667 km/h
1331 24-08-2020 10:00:00 17.88333 C 11 g/m*3 17.88 C 12.76667 km/h
1332 24-08-2020 11:00:00 18.9 C 10.91 g/m*3 18.9 C 13.7 km/h
1333 24-08-2020 12:00:00 19.41667 C 11.09 g/m*3 19.42 C 10.48333 km/h
1334 24-08-2020 13:00:00 19.71667 C 11.02 g/m*3 19.72 C 12.1 km/h
1335 24-08-2020 14:00:00 19.98333 C 11.08 g/m*3 19.98 C 13.43333 km/h
1336 24-08-2020 15:00:00 21.05833 C 10.61 g/m*3 21.06 C 14.36667 km/h
1337 24-08-2020 16:00:00 21.95 C 10.29 g/m*3 21.95 C 11.96667 km/h
1338 24-08-2020 17:00:00 22.70833 C 10.34 g/m*3 22.71 C 14.5 km/h
1339 24-08-2020 18:00:00 22.86667 C 10.1 g/m*3 22.87 C 12.23333 km/h
1340 24-08-2020 19:00:00 21.06667 C 10.16 g/m*3 21.07 C 6.45 km/h
1341 24-08-2020 20:00:00 19.93333 C 10.46 g/m*3 19.93 C 8.45833 km/h
1342 24-08-2020 21:00:00 18.23333 C 11.28 g/m*3 18.23 C 0.8 km/h
1343 24-08-2020 22:00:00 16.96667 C 11.22 g/m*3 16.97 C 0 km/h
1344 24-08-2020 23:00:00 16.80833 C 11.3 g/m*3 16.81 C 1.2 km/h
1345 25-08-2020 00:00:00 16.83333 C 11.31 g/m*3 16.83 C 0.26667 km/h
1346 25-08-2020 01:00:00 17.025 C 11.4 g/m*3 17.02 C 0 km/h
1347 25-08-2020 02:00:00 16.74167 C 11.67 g/m*3 16.74 C 0.93333 km/h
1348 25-08-2020 03:00:00 16.025 C 11.55 g/m*3 16.02 C 0.26667 km/h
1349 25-08-2020 04:00:00 14.76667 C 10.82 g/m*3 14.77 C 3.2 km/h
1350 25-08-2020 05:00:00 13.60833 C 10.46 g/m*3 13.61 C 0 km/h
Sensor: Nr:Datum:Temp:Abs-Feuchte:Windchill:Wind:
Aussen-T/F 1351 25-08-2020 06:00:00 12.94167 C 10.3 g/m*3 12.94 C 0 km/h
1352 25-08-2020 07:00:00 13.33333 C 10.72 g/m*3 13.33 C 0 km/h
1353 25-08-2020 08:00:00 14.70833 C 11.35 g/m*3 14.71 C 0.66667 km/h
1354 25-08-2020 09:00:00 15.925 C 11.57 g/m*3 15.93 C 0.13333 km/h
1355 25-08-2020 10:00:00 17.125 C 11.92 g/m*3 17.13 C 0.4 km/h
1356 25-08-2020 11:00:00 19.61667 C 12.12 g/m*3 19.62 C 4.41667 km/h
1357 25-08-2020 12:00:00 21.9 C 11.4 g/m*3 21.9 C 7.51667 km/h
1358 25-08-2020 13:00:00 22.65833 C 11.4 g/m*3 22.66 C 7.51667 km/h
1359 25-08-2020 14:00:00 22.425 C 11.24 g/m*3 22.43 C 7.93333 km/h
1360 25-08-2020 15:00:00 22.35833 C 11.97 g/m*3 22.36 C 0.93333 km/h
1361 25-08-2020 16:00:00 21.05833 C 14.38 g/m*3 21.06 C 1.06667 km/h
1362 25-08-2020 17:00:00 21.575 C 14.11 g/m*3 21.58 C 1.2 km/h
1363 25-08-2020 18:00:00 26.175 C 12.05 g/m*3 26.18 C 6.56667 km/h
1364 25-08-2020 19:00:00 25.375 C 12.07 g/m*3 25.38 C 3.74167 km/h
1365 25-08-2020 20:00:00 22.625 C 11.37 g/m*3 22.63 C 2.4 km/h
1366 25-08-2020 21:00:00 21.3 C 10.81 g/m*3 21.3 C 2.275 km/h
1367 25-08-2020 22:00:00 20.83333 C 10.37 g/m*3 20.83 C 3.60833 km/h
1368 25-08-2020 23:00:00 20.96667 C 10.56 g/m*3 20.97 C 2.28333 km/h
1369 26-08-2020 00:00:00 21.03333 C 11.01 g/m*3 21.03 C 5.49167 km/h
1370 26-08-2020 01:00:00 21.40833 C 11.91 g/m*3 21.41 C 8.18333 km/h
1371 26-08-2020 02:00:00 22.49167 C 12.54 g/m*3 22.49 C 16.79167 km/h
1372 26-08-2020 03:00:00 21.85833 C 12.18 g/m*3 21.86 C 23.325 km/h
1373 26-08-2020 04:00:00 20.59167 C 11.03 g/m*3 20.59 C 21.7 km/h
1374 26-08-2020 05:00:00 20.075 C 10.1 g/m*3 20.08 C 22.51667 km/h
1375 26-08-2020 06:00:00 19.58333 C 9.74 g/m*3 19.58 C 21.575 km/h
Sensor: Nr:Datum:Temp:Abs-Feuchte:Windchill:Wind:
Aussen-T/F 1376 26-08-2020 07:00:00 19.225 C 9.61 g/m*3 19.23 C 20.50833 km/h
1377 26-08-2020 08:00:00 19.3 C 9.77 g/m*3 19.3 C 19.44167 km/h
1378 26-08-2020 09:00:00 19.41667 C 9.99 g/m*3 19.42 C 18.24167 km/h
1379 26-08-2020 10:00:00 19.55 C 10.14 g/m*3 19.55 C 17.83333 km/h
1380 26-08-2020 11:00:00 19.74167 C 10.11 g/m*3 19.74 C 20.38333 km/h
1381 26-08-2020 12:00:00 20.13333 C 10.57 g/m*3 20.13 C 19.70833 km/h
1382 26-08-2020 13:00:00 21.025 C 10.87 g/m*3 21.03 C 21.84167 km/h
1383 26-08-2020 14:00:00 21.675 C 10.51 g/m*3 21.68 C 21.04167 km/h
1384 26-08-2020 15:00:00 22.49167 C 10.38 g/m*3 22.49 C 21.16667 km/h
1385 26-08-2020 16:00:00 22.95833 C 10.24 g/m*3 22.96 C 26.95833 km/h
1386 26-08-2020 17:00:00 22.70833 C 10.19 g/m*3 22.71 C 20.23333 km/h
1387 26-08-2020 18:00:00 22.35 C 10.18 g/m*3 22.35 C 19.43333 km/h
1388 26-08-2020 19:00:00 21.525 C 10.35 g/m*3 21.53 C 14.76667 km/h
1389 26-08-2020 20:00:00 20.60833 C 10.65 g/m*3 20.61 C 15.96667 km/h
1390 26-08-2020 21:00:00 19.93333 C 10.59 g/m*3 19.93 C 13.83333 km/h
1391 26-08-2020 22:00:00 19.41667 C 10.58 g/m*3 19.42 C 6.98333 km/h
1392 26-08-2020 23:00:00 18.69167 C 10.68 g/m*3 18.69 C 2.4 km/h
1393 27-08-2020 00:00:00 18.05833 C 10.7 g/m*3 18.06 C 4.68333 km/h
1394 27-08-2020 01:00:00 17.31667 C 10.74 g/m*3 17.32 C 2.4 km/h
1395 27-08-2020 02:00:00 16.175 C 10.8 g/m*3 16.18 C 2.4 km/h
1396 27-08-2020 03:00:00 15.49167 C 10.59 g/m*3 15.49 C 1.6 km/h
1397 27-08-2020 04:00:00 14.05833 C 10.34 g/m*3 14.06 C 1.33333 km/h
1398 27-08-2020 05:00:00 13.23333 C 10.16 g/m*3 13.23 C 0 km/h
1399 27-08-2020 06:00:00 12.80833 C 10.11 g/m*3 12.81 C 0.93333 km/h
1400 27-08-2020 07:00:00 12.76667 C 10.18 g/m*3 12.77 C 3.74167 km/h
Sensor: Nr:Datum:Temp:Abs-Feuchte:Windchill:Wind:
Aussen-T/F 1401 27-08-2020 08:00:00 13.69167 C 10.58 g/m*3 13.69 C 4.43333 km/h
1402 27-08-2020 09:00:00 15.975 C 11.09 g/m*3 15.98 C 9.56667 km/h
1403 27-08-2020 10:00:00 17.20833 C 11.34 g/m*3 17.21 C 6.3 km/h
1404 27-08-2020 11:00:00 18.9 C 11.43 g/m*3 18.9 C 6.575 km/h
1405 27-08-2020 12:00:00 19.5 C 11.02 g/m*3 19.5 C 5.21667 km/h
1406 27-08-2020 13:00:00 20.125 C 10.85 g/m*3 20.13 C 9.275 km/h
1407 27-08-2020 14:00:00 21.30833 C 10.65 g/m*3 21.31 C 7.25833 km/h
1408 27-08-2020 15:00:00 22.59167 C 10.29 g/m*3 22.59 C 11.15833 km/h
1409 27-08-2020 16:00:00 24.475 C 10.24 g/m*3 24.48 C 10.48333 km/h
1410 27-08-2020 17:00:00 25.51667 C 9.95 g/m*3 25.52 C 10.9 km/h
1411 27-08-2020 18:00:00 25.83333 C 9.65 g/m*3 25.83 C 9.81667 km/h
1412 27-08-2020 19:00:00 24.425 C 10.33 g/m*3 24.43 C 4.15 km/h
1413 27-08-2020 20:00:00 19.86667 C 10.19 g/m*3 19.87 C 3.6 km/h
1414 27-08-2020 21:00:00 17.48333 C 9.89 g/m*3 17.48 C 2.53333 km/h
1415 27-08-2020 22:00:00 17.20833 C 10.11 g/m*3 17.21 C 0 km/h
1416 27-08-2020 23:00:00 17.40833 C 11.38 g/m*3 17.41 C 1.20833 km/h
1417 28-08-2020 00:00:00 16.45 C 11.64 g/m*3 16.45 C 3.73333 km/h
1418 28-08-2020 01:00:00 16.65833 C 11.88 g/m*3 16.66 C 1.46667 km/h
1419 28-08-2020 02:00:00 16.425 C 12.69 g/m*3 16.43 C 3.75 km/h
1420 28-08-2020 03:00:00 15.9 C 12.54 g/m*3 15.9 C 1.73333 km/h
1421 28-08-2020 04:00:00 15.725 C 12.62 g/m*3 15.73 C 5.61667 km/h
1422 28-08-2020 05:00:00 15.65 C 12.67 g/m*3 15.65 C 3.06667 km/h
1423 28-08-2020 06:00:00 15.525 C 12.58 g/m*3 15.53 C 4.14167 km/h
1424 28-08-2020 07:00:00 15.56667 C 12.61 g/m*3 15.57 C 2.66667 km/h
1425 28-08-2020 08:00:00 15.99167 C 12.94 g/m*3 15.99 C 1.73333 km/h
Sensor: Nr:Datum:Temp:Abs-Feuchte:Windchill:Wind:
Aussen-T/F 1426 28-08-2020 09:00:00 16.78333 C 12.74 g/m*3 16.78 C 3.20833 km/h
1427 28-08-2020 10:00:00 18.51667 C 12.23 g/m*3 18.52 C 8.875 km/h
1428 28-08-2020 11:00:00 19.95833 C 11.92 g/m*3 19.96 C 11.425 km/h
1429 28-08-2020 12:00:00 20.63333 C 11.87 g/m*3 20.63 C 8.89167 km/h
1430 28-08-2020 13:00:00 20.40833 C 11.52 g/m*3 20.41 C 10.09167 km/h
1431 28-08-2020 14:00:00 20.875 C 11.68 g/m*3 20.88 C 5.88333 km/h
1432 28-08-2020 15:00:00 21.38333 C 11.71 g/m*3 21.38 C 6.3 km/h
1433 28-08-2020 16:00:00 21.73333 C 11.91 g/m*3 21.73 C 9.53333 km/h
1434 28-08-2020 17:00:00 22.425 C 11.45 g/m*3 22.43 C 12.5 km/h
1435 28-08-2020 18:00:00 21.525 C 10.42 g/m*3 21.53 C 11.14167 km/h
1436 28-08-2020 19:00:00 20.36667 C 9.75 g/m*3 20.37 C 5.225 km/h
1437 28-08-2020 20:00:00 18.75 C 10.24 g/m*3 18.75 C 9.39167 km/h
1438 28-08-2020 21:00:00 14.975 C 10.65 g/m*3 14.98 C 5.78333 km/h
1439 28-08-2020 22:00:00 13.625 C 10.32 g/m*3 13.63 C 3.33333 km/h
1440 28-08-2020 23:00:00 12.95 C 10.1 g/m*3 12.95 C 1.46667 km/h
1441 29-08-2020 00:00:00 12.475 C 9.99 g/m*3 12.48 C 1.46667 km/h
1442 29-08-2020 01:00:00 12.425 C 10 g/m*3 12.43 C 2.93333 km/h
1443 29-08-2020 02:00:00 12.05 C 9.84 g/m*3 12.05 C 1.86667 km/h
1444 29-08-2020 03:00:00 11.71667 C 9.69 g/m*3 11.72 C 1.6 km/h
1445 29-08-2020 04:00:00 11.725 C 9.76 g/m*3 11.73 C 2.13333 km/h
1446 29-08-2020 05:00:00 11.15833 C 9.42 g/m*3 11.16 C 1.33333 km/h
1447 29-08-2020 06:00:00 10.96667 C 9.41 g/m*3 10.97 C 0 km/h
1448 29-08-2020 07:00:00 11.275 C 9.67 g/m*3 11.28 C 1.46667 km/h
1449 29-08-2020 08:00:00 12.3 C 10.34 g/m*3 12.3 C 3.88333 km/h
1450 29-08-2020 09:00:00 14.73333 C 10.81 g/m*3 14.73 C 10.75 km/h
Sensor: Nr:Datum:Temp:Abs-Feuchte:Windchill:Wind:
Aussen-T/F 1451 29-08-2020 10:00:00 16.60833 C 10.97 g/m*3 16.61 C 13.56667 km/h
1452 29-08-2020 11:00:00 17.73333 C 11.09 g/m*3 17.73 C 15.16667 km/h
1453 29-08-2020 12:00:00 18.84167 C 11.07 g/m*3 18.84 C 16.23333 km/h
1454 29-08-2020 13:00:00 19.35 C 10.91 g/m*3 19.35 C 14.09167 km/h
1455 29-08-2020 14:00:00 20.28333 C 10.69 g/m*3 20.28 C 15.16667 km/h
1456 29-08-2020 15:00:00 21.31667 C 10.32 g/m*3 21.32 C 13.16667 km/h
1457 29-08-2020 16:00:00 22.5 C 10.37 g/m*3 22.5 C 9.80833 km/h
1458 29-08-2020 17:00:00 22.75 C 10.18 g/m*3 22.75 C 11.55833 km/h
1459 29-08-2020 18:00:00 21.88333 C 10.72 g/m*3 21.88 C 2.15 km/h
1460 29-08-2020 19:00:00 22.025 C 10.82 g/m*3 22.03 C 3.075 km/h
1461 29-08-2020 20:00:00 19.88333 C 11.1 g/m*3 19.88 C 3.20833 km/h
1462 29-08-2020 21:00:00 17.675 C 11.4 g/m*3 17.68 C 8.06667 km/h
1463 29-08-2020 22:00:00 14.83333 C 11.01 g/m*3 14.83 C 7.25833 km/h
1464 29-08-2020 23:00:00 13.36667 C 10.55 g/m*3 13.37 C 4 km/h
1465 30-08-2020 00:00:00 13.025 C 10.5 g/m*3 13.03 C 0.66667 km/h
1466 30-08-2020 01:00:00 12.325 C 10.13 g/m*3 12.33 C 0.53333 km/h
1467 30-08-2020 02:00:00 11.58333 C 9.76 g/m*3 11.58 C 0 km/h
1468 30-08-2020 03:00:00 11.06667 C 9.48 g/m*3 11.07 C 0 km/h
1469 30-08-2020 04:00:00 10.675 C 9.32 g/m*3 10.68 C 0 km/h
1470 30-08-2020 05:00:00 10.86667 C 9.5 g/m*3 10.87 C 0 km/h
1471 30-08-2020 06:00:00 10.66667 C 9.39 g/m*3 10.67 C 0 km/h
1472 30-08-2020 07:00:00 11.1 C 9.67 g/m*3 11.1 C 1.2 km/h
1473 30-08-2020 08:00:00 11.94167 C 10.2 g/m*3 11.94 C 0.26667 km/h
1474 30-08-2020 09:00:00 13.15833 C 11.01 g/m*3 13.16 C 0.66667 km/h
1475 30-08-2020 10:00:00 14.78333 C 11.25 g/m*3 14.78 C 6.28333 km/h
Sensor: Nr:Datum:Temp:Abs-Feuchte:Windchill:Wind:
Aussen-T/F 1476 30-08-2020 11:00:00 16.20833 C 11.42 g/m*3 16.21 C 6.55833 km/h
1477 30-08-2020 12:00:00 17.03333 C 11.54 g/m*3 17.03 C 8.06667 km/h
1478 30-08-2020 13:00:00 18.01667 C 11.63 g/m*3 18.02 C 6.03333 km/h
1479 30-08-2020 14:00:00 18.85 C 11.5 g/m*3 18.85 C 5.75833 km/h
1480 30-08-2020 15:00:00 19.89167 C 11.21 g/m*3 19.89 C 7.38333 km/h
1481 30-08-2020 16:00:00 21.325 C 10.55 g/m*3 21.33 C 8.06667 km/h
1482 30-08-2020 17:00:00 21.625 C 10.34 g/m*3 21.63 C 7.79167 km/h
1483 30-08-2020 18:00:00 21.61667 C 9.92 g/m*3 21.62 C 5.5 km/h
1484 30-08-2020 19:00:00 20.63333 C 10.39 g/m*3 20.63 C 2.15 km/h
1485 30-08-2020 20:00:00 18.9 C 10.81 g/m*3 18.9 C 3.49167 km/h
1486 30-08-2020 21:00:00 18.875 C 11.53 g/m*3 18.88 C 4.01667 km/h
1487 30-08-2020 22:00:00 17.65833 C 11.53 g/m*3 17.66 C 0 km/h
1488 30-08-2020 23:00:00 16.69167 C 11.34 g/m*3 16.69 C 0 km/h
1489 31-08-2020 00:00:00 16.06667 C 11.23 g/m*3 16.07 C 0 km/h
1490 31-08-2020 01:00:00 15.70833 C 11.37 g/m*3 15.71 C 0 km/h
1491 31-08-2020 02:00:00 15.46667 C 11.4 g/m*3 15.47 C 0 km/h
1492 31-08-2020 03:00:00 14.65833 C 10.85 g/m*3 14.66 C 0 km/h
1493 31-08-2020 04:00:00 13.725 C 10.62 g/m*3 13.73 C 0 km/h
1494 31-08-2020 05:00:00 13.15833 C 10.37 g/m*3 13.16 C 0.26667 km/h
1495 31-08-2020 06:00:00 12.70833 C 10.28 g/m*3 12.71 C 0.4 km/h
1496 31-08-2020 07:00:00 13.19167 C 10.71 g/m*3 13.19 C 0 km/h
1497 31-08-2020 08:00:00 14.24167 C 11.26 g/m*3 14.24 C 0 km/h
1498 31-08-2020 09:00:00 15.55 C 11.74 g/m*3 15.55 C 0.4 km/h
1499 31-08-2020 10:00:00 16.6 C 12.04 g/m*3 16.6 C 4.69167 km/h
1500 31-08-2020 11:00:00 17.70833 C 12.16 g/m*3 17.71 C 6.425 km/h
Sensor: Nr:Datum:Temp:Abs-Feuchte:Windchill:Wind:
Aussen-T/F 1501 31-08-2020 12:00:00 18.95833 C 12.61 g/m*3 18.96 C 6.975 km/h
1502 31-08-2020 13:00:00 19.55 C 12.68 g/m*3 19.55 C 6.69167 km/h
1503 31-08-2020 14:00:00 18.38333 C 12.83 g/m*3 18.38 C 7.64167 km/h
1504 31-08-2020 15:00:00 16.35 C 12.76 g/m*3 16.35 C 1.2 km/h
1505 31-08-2020 16:00:00 16.74167 C 13.17 g/m*3 16.74 C 0 km/h
1506 31-08-2020 17:00:00 16.4 C 12.91 g/m*3 16.4 C 0.4 km/h
1507 31-08-2020 18:00:00 16.025 C 12.78 g/m*3 16.02 C 0.66667 km/h
1508 31-08-2020 19:00:00 15.6 C 12.45 g/m*3 15.6 C 2.26667 km/h
1509 31-08-2020 20:00:00 14.91667 C 12 g/m*3 14.92 C 2.13333 km/h
1510 31-08-2020 21:00:00 14.56667 C 11.86 g/m*3 14.57 C 0.66667 km/h
1511 31-08-2020 22:00:00 14.49167 C 11.84 g/m*3 14.49 C 0.4 km/h
1512 31-08-2020 23:00:00 14.45833 C 11.91 g/m*3 14.46 C 0.53333 km/h
1513 01-09-2020 00:00:00 14.15 C 11.69 g/m*3 14.15 C 0.26667 km/h
1514 01-09-2020 01:00:00 14.06667 C 11.63 g/m*3 14.07 C 0 km/h
1515 01-09-2020 02:00:00 13.66667 C 11.34 g/m*3 13.67 C 0.66667 km/h
1516 01-09-2020 03:00:00 13.125 C 10.97 g/m*3 13.13 C 2.4 km/h
1517 01-09-2020 04:00:00 12.94167 C 10.86 g/m*3 12.94 C 1.33333 km/h
1518 01-09-2020 05:00:00 12.55833 C 10.63 g/m*3 12.56 C 2.66667 km/h
1519 01-09-2020 06:00:00 12.14167 C 10.4 g/m*3 12.14 C 2.13333 km/h
1520 01-09-2020 07:00:00 12.50833 C 10.67 g/m*3 12.51 C 0 km/h
1521 01-09-2020 08:00:00 13.40833 C 11.28 g/m*3 13.41 C 0 km/h
1522 01-09-2020 09:00:00 13.875 C 11.61 g/m*3 13.88 C 0 km/h
1523 01-09-2020 10:00:00 14.26667 C 11.86 g/m*3 14.27 C 1.33333 km/h
1524 01-09-2020 11:00:00 15.35833 C 12.14 g/m*3 15.36 C 2.13333 km/h
1525 01-09-2020 12:00:00 17 C 12.36 g/m*3 17 C 1.6 km/h
Sensor: Nr:Datum:Temp:Abs-Feuchte:Windchill:Wind:
Aussen-T/F 1526 01-09-2020 13:00:00 18.525 C 11.57 g/m*3 18.52 C 6.85833 km/h
1527 01-09-2020 14:00:00 19.45833 C 10.77 g/m*3 19.46 C 8.475 km/h
1528 01-09-2020 15:00:00 19.99167 C 10.44 g/m*3 19.99 C 4.83333 km/h
1529 01-09-2020 16:00:00 18.60833 C 11.8 g/m*3 18.61 C 5.64167 km/h
1530 01-09-2020 17:00:00 17.18333 C 11.62 g/m*3 17.18 C 4.43333 km/h
1531 01-09-2020 18:00:00 16.375 C 11.76 g/m*3 16.38 C 0.8 km/h
1532 01-09-2020 19:00:00 16.5 C 11.99 g/m*3 16.5 C 1.46667 km/h
1533 01-09-2020 20:00:00 15.26667 C 11.15 g/m*3 15.27 C 2.53333 km/h
1534 01-09-2020 21:00:00 14.15 C 10.8 g/m*3 14.15 C 2 km/h
1535 01-09-2020 22:00:00 13.7 C 10.68 g/m*3 13.7 C 0.26667 km/h
1536 01-09-2020 23:00:00 13.30833 C 10.61 g/m*3 13.31 C 0 km/h
1537 02-09-2020 00:00:00 13.30833 C 10.72 g/m*3 13.31 C 0 km/h
1538 02-09-2020 01:00:00 13.2 C 10.68 g/m*3 13.2 C 0.4 km/h
1539 02-09-2020 02:00:00 12.90833 C 10.51 g/m*3 12.91 C 0.26667 km/h
1540 02-09-2020 03:00:00 12.80833 C 10.53 g/m*3 12.81 C 0.4 km/h
1541 02-09-2020 04:00:00 12.70833 C 10.47 g/m*3 12.71 C 0 km/h
1542 02-09-2020 05:00:00 12.51667 C 10.41 g/m*3 12.52 C 0 km/h
1543 02-09-2020 06:00:00 12.3 C 10.32 g/m*3 12.3 C 0.26667 km/h
1544 02-09-2020 07:00:00 11.59167 C 9.87 g/m*3 11.59 C 0.93333 km/h
1545 02-09-2020 08:00:00 11.49167 C 9.85 g/m*3 11.49 C 0.26667 km/h
1546 02-09-2020 09:00:00 12.83333 C 10.7 g/m*3 12.83 C 0.26667 km/h
1547 02-09-2020 10:00:00 14.63333 C 11.02 g/m*3 14.63 C 1.33333 km/h
1548 02-09-2020 11:00:00 16.36667 C 11.09 g/m*3 16.37 C 1.6 km/h
1549 02-09-2020 12:00:00 17.19167 C 11.38 g/m*3 17.19 C 1.33333 km/h
1550 02-09-2020 13:00:00 18.68333 C 10.54 g/m*3 18.68 C 3.88333 km/h
Sensor: Nr:Datum:Temp:Abs-Feuchte:Windchill:Wind:
Aussen-T/F 1551 02-09-2020 14:00:00 19.825 C 9.65 g/m*3 19.83 C 5.76667 km/h
1552 02-09-2020 15:00:00 21.1 C 9.44 g/m*3 21.1 C 6.43333 km/h
1553 02-09-2020 16:00:00 22.025 C 9.43 g/m*3 22.03 C 4.16667 km/h
1554 02-09-2020 17:00:00 23.05 C 9.91 g/m*3 23.05 C 3.89167 km/h
1555 02-09-2020 18:00:00 19.98333 C 11.31 g/m*3 19.98 C 0.8 km/h
1556 02-09-2020 19:00:00 18.55833 C 10.64 g/m*3 18.56 C 3.75833 km/h
1557 02-09-2020 20:00:00 16.25 C 9.57 g/m*3 16.25 C 7.39167 km/h
1558 02-09-2020 21:00:00 14.8 C 9.7 g/m*3 14.8 C 0 km/h
1559 02-09-2020 22:00:00 14.16667 C 10.04 g/m*3 14.17 C 0 km/h
1560 02-09-2020 23:00:00 13.5 C 9.67 g/m*3 13.5 C 0 km/h
1561 03-09-2020 00:00:00 12.325 C 9.24 g/m*3 12.33 C 0 km/h
1562 03-09-2020 01:00:00 11.38333 C 9 g/m*3 11.38 C 0 km/h
1563 03-09-2020 02:00:00 10.55833 C 8.75 g/m*3 10.56 C 0 km/h
1564 03-09-2020 03:00:00 10.275 C 8.76 g/m*3 10.28 C 0 km/h
1565 03-09-2020 04:00:00 10.05833 C 8.73 g/m*3 10.06 C 0 km/h
1566 03-09-2020 05:00:00 9.84167 C 8.69 g/m*3 9.84 C 0.26667 km/h
1567 03-09-2020 06:00:00 10.14167 C 8.91 g/m*3 10.14 C 0.13333 km/h
1568 03-09-2020 07:00:00 10.35833 C 9.04 g/m*3 10.36 C 0.13333 km/h
1569 03-09-2020 08:00:00 11.25833 C 9.47 g/m*3 11.26 C 0.8 km/h
1570 03-09-2020 09:00:00 12.76667 C 9.91 g/m*3 12.77 C 1.33333 km/h
1571 03-09-2020 10:00:00 14.60833 C 10.5 g/m*3 14.61 C 0.53333 km/h
1572 03-09-2020 11:00:00 17.63333 C 11.13 g/m*3 17.63 C 6.85833 km/h
1573 03-09-2020 12:00:00 19.33333 C 11.12 g/m*3 19.33 C 8.475 km/h
1574 03-09-2020 13:00:00 19.08333 C 11.57 g/m*3 19.08 C 7.39167 km/h
1575 03-09-2020 14:00:00 17.73333 C 11.89 g/m*3 17.73 C 4.3 km/h
Sensor: Nr:Datum:Temp:Abs-Feuchte:Windchill:Wind:
Aussen-T/F 1576 03-09-2020 15:00:00 17.99167 C 12.31 g/m*3 17.99 C 5.225 km/h
1577 03-09-2020 16:00:00 16.2 C 12.32 g/m*3 16.2 C 3.475 km/h
1578 03-09-2020 17:00:00 15.85833 C 12.52 g/m*3 15.86 C 1.2 km/h
1579 03-09-2020 18:00:00 16.11667 C 12.82 g/m*3 16.12 C 1.33333 km/h
1580 03-09-2020 19:00:00 15.95 C 12.75 g/m*3 15.95 C 2.53333 km/h
1581 03-09-2020 20:00:00 15.5 C 12.43 g/m*3 15.5 C 1.73333 km/h
1582 03-09-2020 21:00:00 15.28333 C 12.34 g/m*3 15.28 C 2 km/h
1583 03-09-2020 22:00:00 15.63333 C 12.57 g/m*3 15.63 C 0.66667 km/h
1584 03-09-2020 23:00:00 15.75833 C 12.62 g/m*3 15.76 C 0.13333 km/h
1585 04-09-2020 00:00:00 15.825 C 12.67 g/m*3 15.83 C 0 km/h
1586 04-09-2020 01:00:00 15.78333 C 12.64 g/m*3 15.78 C 0.4 km/h
1587 04-09-2020 02:00:00 15.84167 C 12.54 g/m*3 15.84 C 1.06667 km/h
1588 04-09-2020 03:00:00 16.46667 C 12.85 g/m*3 16.47 C 0.8 km/h
1589 04-09-2020 04:00:00 16.7 C 12.81 g/m*3 16.7 C 0 km/h
1590 04-09-2020 05:00:00 16.7 C 12.85 g/m*3 16.7 C 0 km/h
1591 04-09-2020 06:00:00 16.58333 C 12.7 g/m*3 16.58 C 1.73333 km/h
1592 04-09-2020 07:00:00 16.78333 C 12.7 g/m*3 16.78 C 0.8 km/h
1593 04-09-2020 08:00:00 17.175 C 13 g/m*3 17.18 C 0.4 km/h
1594 04-09-2020 09:00:00 18.35 C 13.41 g/m*3 18.35 C 1.2 km/h
1595 04-09-2020 10:00:00 19.25833 C 13.68 g/m*3 19.26 C 0.13333 km/h
1596 04-09-2020 11:00:00 20.375 C 13.81 g/m*3 20.38 C 1.86667 km/h
1597 04-09-2020 12:00:00 22.45 C 14.06 g/m*3 22.45 C 10.49167 km/h
1598 04-09-2020 13:00:00 24.5 C 14.62 g/m*3 24.5 C 14.23333 km/h
1599 04-09-2020 14:00:00 25.675 C 14.66 g/m*3 25.68 C 10.20833 km/h
1600 04-09-2020 15:00:00 25.71667 C 14.64 g/m*3 25.72 C 4.94167 km/h
Sensor: Nr:Datum:Temp:Abs-Feuchte:Windchill:Wind:
Aussen-T/F 1601 04-09-2020 16:00:00 26.34167 C 14.62 g/m*3 26.34 C 2.93333 km/h
1602 04-09-2020 17:00:00 28.15833 C 15.38 g/m*3 28.16 C 2.40833 km/h
1603 04-09-2020 18:00:00 25.54167 C 15.78 g/m*3 25.54 C 7.80833 km/h
1604 04-09-2020 19:00:00 23.40833 C 15.83 g/m*3 23.41 C 4.4 km/h
1605 04-09-2020 20:00:00 21.325 C 15.4 g/m*3 21.33 C 1.475 km/h
1606 04-09-2020 21:00:00 20.075 C 15.14 g/m*3 20.08 C 2.13333 km/h
1607 04-09-2020 22:00:00 19.50833 C 14.64 g/m*3 19.51 C 0.53333 km/h
1608 04-09-2020 23:00:00 18.725 C 14.47 g/m*3 18.73 C 0 km/h
1609 05-09-2020 00:00:00 17.79167 C 13.8 g/m*3 17.79 C 2 km/h
1610 05-09-2020 01:00:00 16.61667 C 13.06 g/m*3 16.62 C 0 km/h
1611 05-09-2020 02:00:00 15.875 C 12.68 g/m*3 15.88 C 0 km/h
1612 05-09-2020 03:00:00 16.04167 C 12.98 g/m*3 16.04 C 0 km/h
1613 05-09-2020 04:00:00 16.50833 C 13.46 g/m*3 16.51 C 0.4 km/h
1614 05-09-2020 05:00:00 16.7 C 13.58 g/m*3 16.7 C 0 km/h
1615 05-09-2020 06:00:00 16.25833 C 12.62 g/m*3 16.26 C 6.04167 km/h
1616 05-09-2020 07:00:00 15.81667 C 11.42 g/m*3 15.82 C 4.00833 km/h
1617 05-09-2020 08:00:00 15.50833 C 11.31 g/m*3 15.51 C 2.26667 km/h
1618 05-09-2020 09:00:00 15.875 C 11.35 g/m*3 15.88 C 3.475 km/h
1619 05-09-2020 10:00:00 16.64167 C 11.42 g/m*3 16.64 C 6.84167 km/h
1620 05-09-2020 11:00:00 17.79167 C 11.57 g/m*3 17.79 C 7.93333 km/h
1621 05-09-2020 12:00:00 18.36667 C 11.37 g/m*3 18.37 C 11.15 km/h
1622 05-09-2020 13:00:00 18.64167 C 11.31 g/m*3 18.64 C 11.025 km/h
1623 05-09-2020 14:00:00 18.825 C 11.17 g/m*3 18.83 C 12.89167 km/h
1624 05-09-2020 15:00:00 17.76667 C 11.07 g/m*3 17.77 C 11.3 km/h
1625 05-09-2020 16:00:00 18.68333 C 10.68 g/m*3 18.68 C 9.69167 km/h
Sensor: Nr:Datum:Temp:Abs-Feuchte:Windchill:Wind:
Aussen-T/F 1626 05-09-2020 17:00:00 19.44167 C 10.05 g/m*3 19.44 C 9.425 km/h
1627 05-09-2020 18:00:00 20.2 C 9.08 g/m*3 20.2 C 7.91667 km/h
1628 05-09-2020 19:00:00 18.6 C 9.23 g/m*3 18.6 C 1.74167 km/h
1629 05-09-2020 20:00:00 16.40833 C 9.19 g/m*3 16.41 C 3.60833 km/h
1630 05-09-2020 21:00:00 14.35833 C 9.35 g/m*3 14.36 C 3.06667 km/h
1631 05-09-2020 22:00:00 13.725 C 9.27 g/m*3 13.73 C 3.6 km/h
1632 05-09-2020 23:00:00 13.08333 C 9.22 g/m*3 13.08 C 4.53333 km/h
1633 06-09-2020 00:00:00 12.55 C 9.19 g/m*3 12.55 C 2.8 km/h
1634 06-09-2020 01:00:00 11.725 C 9.08 g/m*3 11.73 C 0 km/h
1635 06-09-2020 02:00:00 10.51667 C 8.62 g/m*3 10.52 C 0.13333 km/h
1636 06-09-2020 03:00:00 9.65 C 8.34 g/m*3 9.65 C 0.26667 km/h
1637 06-09-2020 04:00:00 9.06667 C 8.17 g/m*3 9.07 C 0.13333 km/h
1638 06-09-2020 05:00:00 8.60833 C 8.03 g/m*3 8.61 C 0.4 km/h
1639 06-09-2020 06:00:00 8.175 C 7.85 g/m*3 8.18 C 0 km/h
1640 06-09-2020 07:00:00 8.03333 C 7.85 g/m*3 8.03 C 0.13333 km/h
1641 06-09-2020 08:00:00 8.125 C 7.92 g/m*3 8.13 C 0.53333 km/h
1642 06-09-2020 09:00:00 8.96667 C 8.42 g/m*3 8.97 C 1.33333 km/h
1643 06-09-2020 10:00:00 10.61667 C 9.31 g/m*3 10.62 C 0.4 km/h
1644 06-09-2020 11:00:00 13.84167 C 9.64 g/m*3 13.84 C 0.53333 km/h
1645 06-09-2020 12:00:00 16.43333 C 9.18 g/m*3 16.43 C 4.825 km/h
1646 06-09-2020 13:00:00 17.45 C 8.83 g/m*3 17.45 C 4.03333 km/h
1647 06-09-2020 14:00:00 18.61667 C 8.8 g/m*3 18.62 C 4.55 km/h
1648 06-09-2020 15:00:00 19.04167 C 8.6 g/m*3 19.04 C 6.30833 km/h
1649 06-09-2020 16:00:00 18.5 C 8.43 g/m*3 18.5 C 5.50833 km/h
1650 06-09-2020 17:00:00 18.56667 C 8.68 g/m*3 18.57 C 7.53333 km/h
Sensor: Nr:Datum:Temp:Abs-Feuchte:Windchill:Wind:
Aussen-T/F 1651 06-09-2020 18:00:00 19.11667 C 8.76 g/m*3 19.12 C 3.34167 km/h
1652 06-09-2020 19:00:00 18.65 C 8.87 g/m*3 18.65 C 2.4 km/h
1653 06-09-2020 20:00:00 14.71667 C 8.58 g/m*3 14.72 C 0 km/h
1654 06-09-2020 21:00:00 12.83333 C 8.62 g/m*3 12.83 C 0 km/h
1655 06-09-2020 22:00:00 12.35 C 8.89 g/m*3 12.35 C 0 km/h
1656 06-09-2020 23:00:00 12.575 C 9.02 g/m*3 12.58 C 0.26667 km/h
1657 07-09-2020 00:00:00 12.59167 C 9.03 g/m*3 12.59 C 0.13333 km/h
1658 07-09-2020 01:00:00 12.19167 C 8.95 g/m*3 12.19 C 0 km/h
1659 07-09-2020 02:00:00 10.725 C 8.44 g/m*3 10.73 C 0.13333 km/h
1660 07-09-2020 03:00:00 9.475 C 8.1 g/m*3 9.48 C 0.13333 km/h
1661 07-09-2020 04:00:00 8.80833 C 7.93 g/m*3 8.81 C 0.13333 km/h
1662 07-09-2020 05:00:00 8.24167 C 7.76 g/m*3 8.24 C 0.4 km/h
1663 07-09-2020 06:00:00 7.81667 C 7.62 g/m*3 7.82 C 0.53333 km/h
1664 07-09-2020 07:00:00 7.6 C 7.57 g/m*3 7.6 C 0 km/h
1665 07-09-2020 08:00:00 7.98333 C 7.85 g/m*3 7.98 C 0.26667 km/h
1666 07-09-2020 09:00:00 8.95833 C 8.39 g/m*3 8.96 C 0.4 km/h
1667 07-09-2020 10:00:00 10.56667 C 9.29 g/m*3 10.57 C 0.93333 km/h
1668 07-09-2020 11:00:00 13.66667 C 10.23 g/m*3 13.67 C 1.73333 km/h
1669 07-09-2020 12:00:00 16.475 C 10 g/m*3 16.48 C 3.34167 km/h
1670 07-09-2020 13:00:00 18.13333 C 9.44 g/m*3 18.13 C 3.875 km/h
1671 07-09-2020 14:00:00 19.43333 C 8.85 g/m*3 19.43 C 6.71667 km/h
1672 07-09-2020 15:00:00 20.7 C 8.84 g/m*3 20.7 C 5.475 km/h
1673 07-09-2020 16:00:00 21.69167 C 8.87 g/m*3 21.69 C 5.35 km/h
1674 07-09-2020 17:00:00 22.85 C 9.02 g/m*3 22.85 C 3.74167 km/h
1675 07-09-2020 18:00:00 22.425 C 10.01 g/m*3 22.43 C 0.66667 km/h
Sensor: Nr:Datum:Temp:Abs-Feuchte:Windchill:Wind:
Aussen-T/F 1676 07-09-2020 19:00:00 20.85 C 10.05 g/m*3 20.85 C 2.53333 km/h
1677 07-09-2020 20:00:00 16.58333 C 9.18 g/m*3 16.58 C 3.73333 km/h
1678 07-09-2020 21:00:00 14.21667 C 9.18 g/m*3 14.22 C 0.53333 km/h
1679 07-09-2020 22:00:00 12.7 C 8.95 g/m*3 12.7 C 0 km/h
1680 07-09-2020 23:00:00 11.675 C 8.68 g/m*3 11.68 C 0 km/h
1681 08-09-2020 00:00:00 10.875 C 8.49 g/m*3 10.88 C 0 km/h
1682 08-09-2020 01:00:00 10.425 C 8.43 g/m*3 10.43 C 0.13333 km/h
1683 08-09-2020 02:00:00 9.775 C 8.24 g/m*3 9.78 C 0 km/h
1684 08-09-2020 03:00:00 9.25 C 8.1 g/m*3 9.25 C 0 km/h
1685 08-09-2020 04:00:00 8.725 C 7.93 g/m*3 8.73 C 0 km/h
1686 08-09-2020 05:00:00 8.41667 C 7.86 g/m*3 8.42 C 0 km/h
1687 08-09-2020 06:00:00 8.05833 C 7.72 g/m*3 8.06 C 0 km/h
1688 08-09-2020 07:00:00 8.125 C 7.83 g/m*3 8.13 C 0 km/h
1689 08-09-2020 08:00:00 8.76667 C 8.17 g/m*3 8.77 C 0 km/h
1690 08-09-2020 09:00:00 9.725 C 8.68 g/m*3 9.73 C 0.8 km/h
1691 08-09-2020 10:00:00 12.20833 C 9.76 g/m*3 12.21 C 2.53333 km/h
1692 08-09-2020 11:00:00 17.40833 C 10.33 g/m*3 17.41 C 6.99167 km/h
1693 08-09-2020 12:00:00 20.70833 C 10.33 g/m*3 20.71 C 10.89167 km/h
1694 08-09-2020 13:00:00 22.10833 C 10.22 g/m*3 22.11 C 10.48333 km/h
1695 08-09-2020 14:00:00 23.06667 C 10.26 g/m*3 23.07 C 9.55833 km/h
1696 08-09-2020 15:00:00 24.23333 C 10.27 g/m*3 24.23 C 10.74167 km/h
1697 08-09-2020 16:00:00 25.63333 C 10.38 g/m*3 25.63 C 9.14167 km/h
1698 08-09-2020 17:00:00 27.58333 C 10.63 g/m*3 27.58 C 9 km/h
1699 08-09-2020 18:00:00 27.83333 C 11.18 g/m*3 27.83 C 6.43333 km/h
1700 08-09-2020 19:00:00 25.13333 C 12.47 g/m*3 25.13 C 4.95 km/h
Sensor: Nr:Datum:Temp:Abs-Feuchte:Windchill:Wind:
Aussen-T/F 1701 08-09-2020 20:00:00 20.625 C 12.44 g/m*3 20.63 C 1.46667 km/h
1702 08-09-2020 21:00:00 18.66667 C 12.26 g/m*3 18.67 C 2.26667 km/h
1703 08-09-2020 22:00:00 17.56667 C 12.04 g/m*3 17.57 C 2.66667 km/h
1704 08-09-2020 23:00:00 16.24167 C 11.73 g/m*3 16.24 C 0 km/h
1705 09-09-2020 00:00:00 15.15833 C 11.41 g/m*3 15.16 C 0 km/h
1706 09-09-2020 01:00:00 14.46667 C 11.23 g/m*3 14.47 C 0 km/h
1707 09-09-2020 02:00:00 13.90833 C 10.98 g/m*3 13.91 C 0 km/h
1708 09-09-2020 03:00:00 13.35 C 10.76 g/m*3 13.35 C 0 km/h
1709 09-09-2020 04:00:00 12.86667 C 10.49 g/m*3 12.87 C 0 km/h
1710 09-09-2020 05:00:00 12.46667 C 10.32 g/m*3 12.47 C 0 km/h
1711 09-09-2020 06:00:00 12.18333 C 10.2 g/m*3 12.18 C 0 km/h
1712 09-09-2020 07:00:00 12.01667 C 10.14 g/m*3 12.02 C 0.13333 km/h
1713 09-09-2020 08:00:00 12.41667 C 10.47 g/m*3 12.42 C 1.2 km/h
1714 09-09-2020 09:00:00 13.48333 C 11.25 g/m*3 13.48 C 1.6 km/h
1715 09-09-2020 10:00:00 16.26667 C 12.88 g/m*3 16.27 C 0.13333 km/h
1716 09-09-2020 11:00:00 20.69167 C 13.52 g/m*3 20.69 C 0.53333 km/h
1717 09-09-2020 12:00:00 22.36667 C 13.68 g/m*3 22.37 C 3.74167 km/h
1718 09-09-2020 13:00:00 22.85 C 13.87 g/m*3 22.85 C 5.225 km/h
1719 09-09-2020 14:00:00 23.69167 C 13.99 g/m*3 23.69 C 7.66667 km/h
1720 09-09-2020 15:00:00 24.1 C 14.19 g/m*3 24.1 C 7.38333 km/h
1721 09-09-2020 16:00:00 23.925 C 14.06 g/m*3 23.93 C 4.55 km/h
1722 09-09-2020 17:00:00 24.525 C 14.16 g/m*3 24.53 C 4.54167 km/h
1723 09-09-2020 18:00:00 24.46667 C 14.72 g/m*3 24.47 C 1.20833 km/h
1724 09-09-2020 19:00:00 22.70833 C 14.54 g/m*3 22.71 C 0 km/h
1725 09-09-2020 20:00:00 21.025 C 14.08 g/m*3 21.03 C 0.13333 km/h
Sensor: Nr:Datum:Temp:Abs-Feuchte:Windchill:Wind:
Aussen-T/F 1726 09-09-2020 21:00:00 19.75 C 13.58 g/m*3 19.75 C 4.8 km/h
1727 09-09-2020 22:00:00 19.65833 C 13.75 g/m*3 19.66 C 1.2 km/h
1728 09-09-2020 23:00:00 20.05833 C 13.73 g/m*3 20.06 C 4.00833 km/h
1729 10-09-2020 00:00:00 20.18333 C 14.59 g/m*3 20.18 C 10.89167 km/h
1730 10-09-2020 01:00:00 18.69167 C 14.51 g/m*3 18.69 C 8.6 km/h
1731 10-09-2020 02:00:00 17.675 C 13.63 g/m*3 17.68 C 4.55833 km/h
1732 10-09-2020 03:00:00 17.175 C 13.05 g/m*3 17.18 C 2.00833 km/h
1733 10-09-2020 04:00:00 16.85833 C 12.55 g/m*3 16.86 C 1.06667 km/h
1734 10-09-2020 05:00:00 16.56667 C 11.82 g/m*3 16.57 C 2.13333 km/h
1735 10-09-2020 06:00:00 16.08333 C 11.56 g/m*3 16.08 C 3.075 km/h
1736 10-09-2020 07:00:00 15.475 C 11.38 g/m*3 15.48 C 5.1 km/h
1737 10-09-2020 08:00:00 15.35833 C 11.29 g/m*3 15.36 C 2.4 km/h
1738 10-09-2020 09:00:00 15.56667 C 11.39 g/m*3 15.57 C 3.875 km/h
1739 10-09-2020 10:00:00 15.93333 C 10.87 g/m*3 15.93 C 6.71667 km/h
1740 10-09-2020 11:00:00 16.7 C 10.67 g/m*3 16.7 C 5.36667 km/h
1741 10-09-2020 12:00:00 17.83333 C 10.28 g/m*3 17.83 C 7.24167 km/h
1742 10-09-2020 13:00:00 18.54167 C 9.52 g/m*3 18.54 C 5.9 km/h
1743 10-09-2020 14:00:00 19.66667 C 9.96 g/m*3 19.67 C 5.5 km/h
1744 10-09-2020 15:00:00 20.84167 C 10.16 g/m*3 20.84 C 7.11667 km/h
1745 10-09-2020 16:00:00 22.06667 C 10.31 g/m*3 22.07 C 7.65833 km/h
1746 10-09-2020 17:00:00 22.73333 C 10.27 g/m*3 22.73 C 8.61667 km/h
1747 10-09-2020 18:00:00 22.45 C 10.24 g/m*3 22.45 C 5.225 km/h
1748 10-09-2020 19:00:00 20.80833 C 9.8 g/m*3 20.81 C 2 km/h
1749 10-09-2020 20:00:00 17.675 C 9.25 g/m*3 17.68 C 1.33333 km/h
1750 10-09-2020 21:00:00 15.60833 C 8.98 g/m*3 15.61 C 3.2 km/h
Sensor: Nr:Datum:Temp:Abs-Feuchte:Windchill:Wind:
Aussen-T/F 1751 10-09-2020 22:00:00 14.325 C 9.01 g/m*3 14.33 C 0.4 km/h
1752 10-09-2020 23:00:00 12.7 C 8.75 g/m*3 12.7 C 0 km/h
1753 11-09-2020 00:00:00 12.08333 C 8.78 g/m*3 12.08 C 0 km/h
1754 11-09-2020 01:00:00 11.95 C 8.78 g/m*3 11.95 C 0 km/h
1755 11-09-2020 02:00:00 11.05833 C 8.52 g/m*3 11.06 C 0 km/h
1756 11-09-2020 03:00:00 10.23333 C 8.35 g/m*3 10.23 C 0 km/h
1757 11-09-2020 04:00:00 9.59167 C 8.23 g/m*3 9.59 C 0 km/h
1758 11-09-2020 05:00:00 8.95833 C 8.03 g/m*3 8.96 C 0 km/h
1759 11-09-2020 06:00:00 8.43333 C 7.87 g/m*3 8.43 C 0 km/h
1760 11-09-2020 07:00:00 8.26667 C 7.88 g/m*3 8.27 C 0 km/h
1761 11-09-2020 08:00:00 8.625 C 8.13 g/m*3 8.63 C 0 km/h
1762 11-09-2020 09:00:00 9.45833 C 8.62 g/m*3 9.46 C 0 km/h
1763 11-09-2020 10:00:00 11.20833 C 9.55 g/m*3 11.21 C 0 km/h
1764 11-09-2020 11:00:00 14.025 C 10.22 g/m*3 14.03 C 0.26667 km/h
1765 11-09-2020 12:00:00 17.6 C 9.97 g/m*3 17.6 C 2.93333 km/h
1766 11-09-2020 13:00:00 19.86667 C 9.7 g/m*3 19.87 C 5.35833 km/h
1767 11-09-2020 14:00:00 21.15 C 10.06 g/m*3 21.15 C 5.09167 km/h
1768 11-09-2020 15:00:00 22.44167 C 10.4 g/m*3 22.44 C 6.45833 km/h
1769 11-09-2020 16:00:00 23.58333 C 10.59 g/m*3 23.58 C 8.6 km/h
1770 11-09-2020 17:00:00 24.6 C 10.8 g/m*3 24.6 C 6.43333 km/h
1771 11-09-2020 18:00:00 24.36667 C 11.27 g/m*3 24.37 C 3.075 km/h
1772 11-09-2020 19:00:00 21.425 C 11.31 g/m*3 21.43 C 2.80833 km/h
1773 11-09-2020 20:00:00 18.3 C 10.65 g/m*3 18.3 C 4.13333 km/h
1774 11-09-2020 21:00:00 16.35833 C 10.47 g/m*3 16.36 C 0.53333 km/h
1775 11-09-2020 22:00:00 15.04167 C 10.27 g/m*3 15.04 C 0 km/h
Sensor: Nr:Datum:Temp:Abs-Feuchte:Windchill:Wind:
Aussen-T/F 1776 11-09-2020 23:00:00 13.93333 C 10.07 g/m*3 13.93 C 0 km/h
1777 12-09-2020 00:00:00 13.05 C 9.85 g/m*3 13.05 C 0 km/h
1778 12-09-2020 01:00:00 12.525 C 9.71 g/m*3 12.53 C 0 km/h
1779 12-09-2020 02:00:00 11.975 C 9.53 g/m*3 11.98 C 0 km/h
1780 12-09-2020 03:00:00 11.475 C 9.35 g/m*3 11.48 C 0 km/h
1781 12-09-2020 04:00:00 10.975 C 9.17 g/m*3 10.98 C 0 km/h
1782 12-09-2020 05:00:00 10.525 C 9.03 g/m*3 10.53 C 0 km/h
1783 12-09-2020 06:00:00 10.225 C 8.9 g/m*3 10.23 C 0 km/h
1784 12-09-2020 07:00:00 10.16667 C 8.94 g/m*3 10.17 C 0 km/h
1785 12-09-2020 08:00:00 10.9 C 9.46 g/m*3 10.9 C 0 km/h
1786 12-09-2020 09:00:00 12.625 C 10.36 g/m*3 12.63 C 0.26667 km/h
1787 12-09-2020 10:00:00 14.675 C 10.94 g/m*3 14.68 C 0.13333 km/h
1788 12-09-2020 11:00:00 17.25 C 11.71 g/m*3 17.25 C 0 km/h
1789 12-09-2020 12:00:00 20.15833 C 12.27 g/m*3 20.16 C 2.80833 km/h
1790 12-09-2020 13:00:00 24.425 C 11.76 g/m*3 24.43 C 11.15833 km/h
1791 12-09-2020 14:00:00 24.90833 C 12.29 g/m*3 24.91 C 6.85 km/h
1792 12-09-2020 15:00:00 25.61667 C 12.43 g/m*3 25.62 C 8.6 km/h
1793 12-09-2020 16:00:00 25.75 C 12.36 g/m*3 25.75 C 10.475 km/h
1794 12-09-2020 17:00:00 26.14167 C 12.76 g/m*3 26.14 C 10.76667 km/h
1795 12-09-2020 18:00:00 25.28333 C 12.84 g/m*3 25.28 C 7.23333 km/h
1796 12-09-2020 19:00:00 23.03333 C 12.66 g/m*3 23.03 C 1.46667 km/h
1797 12-09-2020 20:00:00 19.79167 C 11.85 g/m*3 19.79 C 1.6 km/h
1798 12-09-2020 21:00:00 18.49167 C 10.94 g/m*3 18.49 C 1.20833 km/h
1799 12-09-2020 22:00:00 17.16667 C 10.49 g/m*3 17.17 C 0.66667 km/h
1800 12-09-2020 23:00:00 15.81667 C 10.29 g/m*3 15.82 C 1.06667 km/h
Sensor: Nr:Datum:Temp:Abs-Feuchte:Windchill:Wind:
Aussen-T/F 1801 13-09-2020 00:00:00 14.36667 C 9.98 g/m*3 14.37 C 0.26667 km/h
1802 13-09-2020 01:00:00 13.05 C 9.73 g/m*3 13.05 C 0.13333 km/h
1803 13-09-2020 02:00:00 12.375 C 9.55 g/m*3 12.38 C 0.26667 km/h
1804 13-09-2020 03:00:00 11.73333 C 9.42 g/m*3 11.73 C 0 km/h
1805 13-09-2020 04:00:00 11.35 C 9.32 g/m*3 11.35 C 0 km/h
1806 13-09-2020 05:00:00 10.84167 C 9.12 g/m*3 10.84 C 0 km/h
1807 13-09-2020 06:00:00 10.35 C 8.92 g/m*3 10.35 C 0 km/h
1808 13-09-2020 07:00:00 10.15 C 8.91 g/m*3 10.15 C 0 km/h
1809 13-09-2020 08:00:00 10.66667 C 9.31 g/m*3 10.67 C 0.26667 km/h
1810 13-09-2020 09:00:00 11.60833 C 9.88 g/m*3 11.61 C 0 km/h
1811 13-09-2020 10:00:00 13.1 C 10.67 g/m*3 13.1 C 0 km/h
1812 13-09-2020 11:00:00 15.53333 C 11.27 g/m*3 15.53 C 0.4 km/h
1813 13-09-2020 12:00:00 19.05833 C 11.98 g/m*3 19.06 C 2.26667 km/h
1814 13-09-2020 13:00:00 21.825 C 11.99 g/m*3 21.83 C 0.53333 km/h
1815 13-09-2020 14:00:00 23.725 C 11.78 g/m*3 23.73 C 2.81667 km/h
1816 13-09-2020 15:00:00 25.85833 C 11.17 g/m*3 25.86 C 4.14167 km/h
1817 13-09-2020 16:00:00 26.83333 C 11.13 g/m*3 26.83 C 5.1 km/h
1818 13-09-2020 17:00:00 28.81667 C 11.8 g/m*3 28.82 C 3.86667 km/h
1819 13-09-2020 18:00:00 27.46667 C 13.01 g/m*3 27.47 C 2.66667 km/h
1820 13-09-2020 19:00:00 23.69167 C 11.87 g/m*3 23.69 C 3.2 km/h
1821 13-09-2020 20:00:00 20.53333 C 11.32 g/m*3 20.53 C 1.86667 km/h
1822 13-09-2020 21:00:00 18.25 C 10.95 g/m*3 18.25 C 0 km/h
1823 13-09-2020 22:00:00 16.55833 C 10.63 g/m*3 16.56 C 0 km/h
1824 13-09-2020 23:00:00 15.175 C 10.44 g/m*3 15.18 C 0 km/h
1825 14-09-2020 00:00:00 14.325 C 10.28 g/m*3 14.33 C 0 km/h
Sensor: Nr:Datum:Temp:Abs-Feuchte:Windchill:Wind:
Aussen-T/F 1826 14-09-2020 01:00:00 13.59167 C 10.02 g/m*3 13.59 C 0 km/h
1827 14-09-2020 02:00:00 12.875 C 9.83 g/m*3 12.88 C 0 km/h
1828 14-09-2020 03:00:00 12.33333 C 9.69 g/m*3 12.33 C 0 km/h
1829 14-09-2020 04:00:00 11.64167 C 9.45 g/m*3 11.64 C 0 km/h
1830 14-09-2020 05:00:00 11.25833 C 9.33 g/m*3 11.26 C 0 km/h
1831 14-09-2020 06:00:00 10.83333 C 9.15 g/m*3 10.83 C 0 km/h
1832 14-09-2020 07:00:00 10.725 C 9.19 g/m*3 10.73 C 0 km/h
1833 14-09-2020 08:00:00 11.15833 C 9.54 g/m*3 11.16 C 0 km/h
1834 14-09-2020 09:00:00 12.125 C 10.2 g/m*3 12.13 C 0 km/h
1835 14-09-2020 10:00:00 13.875 C 11.28 g/m*3 13.88 C 0 km/h
1836 14-09-2020 11:00:00 17.325 C 12.59 g/m*3 17.33 C 0 km/h
1837 14-09-2020 12:00:00 21.75833 C 13.7 g/m*3 21.76 C 1.075 km/h
1838 14-09-2020 13:00:00 25.95833 C 13.95 g/m*3 25.96 C 3.33333 km/h
1839 14-09-2020 14:00:00 28.11667 C 13.34 g/m*3 28.12 C 4.01667 km/h
1840 14-09-2020 15:00:00 29.625 C 11.66 g/m*3 29.63 C 7.11667 km/h
1841 14-09-2020 16:00:00 29.875 C 12.2 g/m*3 29.88 C 4.675 km/h
1842 14-09-2020 17:00:00 29.775 C 14.18 g/m*3 29.78 C 1.46667 km/h
1843 14-09-2020 18:00:00 30.61667 C 13.35 g/m*3 30.62 C 3.06667 km/h
1844 14-09-2020 19:00:00 25.86667 C 11.8 g/m*3 25.87 C 7.39167 km/h
1845 14-09-2020 20:00:00 22.39167 C 11.7 g/m*3 22.39 C 2.54167 km/h
1846 14-09-2020 21:00:00 19.975 C 12.17 g/m*3 19.98 C 0 km/h
1847 14-09-2020 22:00:00 18.525 C 11.98 g/m*3 18.52 C 0 km/h
1848 14-09-2020 23:00:00 17.08333 C 11.72 g/m*3 17.08 C 0 km/h
1849 15-09-2020 00:00:00 16.23333 C 11.47 g/m*3 16.23 C 0 km/h
1850 15-09-2020 01:00:00 15.45833 C 11.28 g/m*3 15.46 C 0 km/h
Sensor: Nr:Datum:Temp:Abs-Feuchte:Windchill:Wind:
Aussen-T/F 1851 15-09-2020 02:00:00 14.9 C 11.08 g/m*3 14.9 C 0 km/h
1852 15-09-2020 03:00:00 14.15833 C 10.84 g/m*3 14.16 C 0 km/h
1853 15-09-2020 04:00:00 13.54167 C 10.59 g/m*3 13.54 C 0 km/h
1854 15-09-2020 05:00:00 13.10833 C 10.5 g/m*3 13.11 C 0 km/h
1855 15-09-2020 06:00:00 12.50833 C 10.19 g/m*3 12.51 C 0 km/h
1856 15-09-2020 07:00:00 12.2 C 10.11 g/m*3 12.2 C 0 km/h
1857 15-09-2020 08:00:00 12.53333 C 10.43 g/m*3 12.53 C 0 km/h
1858 15-09-2020 09:00:00 13.69167 C 11.29 g/m*3 13.69 C 0 km/h
1859 15-09-2020 10:00:00 15.39167 C 12.46 g/m*3 15.39 C 0 km/h
1860 15-09-2020 11:00:00 18.00833 C 13.23 g/m*3 18.01 C 0 km/h
1861 15-09-2020 12:00:00 21.76667 C 14.25 g/m*3 21.77 C 0 km/h
1862 15-09-2020 13:00:00 25.79167 C 13.96 g/m*3 25.79 C 1.6 km/h
1863 15-09-2020 14:00:00 29.24167 C 12.37 g/m*3 29.24 C 4.13333 km/h
1864 15-09-2020 15:00:00 30.65833 C 10.87 g/m*3 30.66 C 5.225 km/h
1865 15-09-2020 16:00:00 31.5 C 9.92 g/m*3 31.5 C 4.93333 km/h
1866 15-09-2020 17:00:00 33.19167 C 10.43 g/m*3 33.19 C 4.53333 km/h
1867 15-09-2020 18:00:00 31.875 C 12.58 g/m*3 31.88 C 3.73333 km/h
1868 15-09-2020 19:00:00 27.65833 C 11.92 g/m*3 27.66 C 3.33333 km/h
1869 15-09-2020 20:00:00 24.3 C 11.82 g/m*3 24.3 C 4.4 km/h
1870 15-09-2020 21:00:00 22.05833 C 12.2 g/m*3 22.06 C 0.13333 km/h
1871 15-09-2020 22:00:00 20.48333 C 12.41 g/m*3 20.48 C 0 km/h
1872 15-09-2020 23:00:00 18.90833 C 12.33 g/m*3 18.91 C 0 km/h
1873 16-09-2020 00:00:00 18.13333 C 12.04 g/m*3 18.13 C 0 km/h
1874 16-09-2020 01:00:00 17.29167 C 11.8 g/m*3 17.29 C 0 km/h
1875 16-09-2020 02:00:00 16.225 C 11.64 g/m*3 16.23 C 0 km/h
Sensor: Nr:Datum:Temp:Abs-Feuchte:Windchill:Wind:
Aussen-T/F 1876 16-09-2020 03:00:00 15.49167 C 11.43 g/m*3 15.49 C 0 km/h
1877 16-09-2020 04:00:00 14.95 C 11.31 g/m*3 14.95 C 0 km/h
1878 16-09-2020 05:00:00 14.5 C 11.19 g/m*3 14.5 C 0.4 km/h
1879 16-09-2020 06:00:00 14.25833 C 11.14 g/m*3 14.26 C 0 km/h
1880 16-09-2020 07:00:00 14.1 C 11.15 g/m*3 14.1 C 0.26667 km/h
1881 16-09-2020 08:00:00 14.51667 C 11.45 g/m*3 14.52 C 0 km/h
1882 16-09-2020 09:00:00 15.54167 C 12.13 g/m*3 15.54 C 0 km/h
1883 16-09-2020 10:00:00 18.19167 C 13.13 g/m*3 18.19 C 0.26667 km/h
1884 16-09-2020 11:00:00 20.775 C 13.49 g/m*3 20.78 C 0.13333 km/h
1885 16-09-2020 12:00:00 23.24167 C 14 g/m*3 23.24 C 0 km/h
1886 16-09-2020 13:00:00 24.46667 C 14.33 g/m*3 24.47 C 0.13333 km/h
1887 16-09-2020 14:00:00 26.5 C 14.56 g/m*3 26.5 C 1.6 km/h
1888 16-09-2020 15:00:00 28.38333 C 14.58 g/m*3 28.38 C 1.46667 km/h
1889 16-09-2020 16:00:00 30.15 C 12.08 g/m*3 30.15 C 12.35833 km/h
1890 16-09-2020 17:00:00 28.55833 C 14.56 g/m*3 28.56 C 13.96667 km/h
1891 16-09-2020 18:00:00 26.775 C 15.19 g/m*3 26.78 C 13.56667 km/h
1892 16-09-2020 19:00:00 25.28333 C 15.03 g/m*3 25.28 C 5.63333 km/h
1893 16-09-2020 20:00:00 22.91667 C 14.49 g/m*3 22.92 C 2.53333 km/h
1894 16-09-2020 21:00:00 22.29167 C 14.31 g/m*3 22.29 C 4.69167 km/h
1895 16-09-2020 22:00:00 22.30833 C 14.01 g/m*3 22.31 C 7.66667 km/h
1896 16-09-2020 23:00:00 21.24167 C 13.41 g/m*3 21.24 C 3.75 km/h
1897 17-09-2020 00:00:00 20.75 C 13.12 g/m*3 20.75 C 8.05833 km/h
1898 17-09-2020 01:00:00 20.09167 C 12.51 g/m*3 20.09 C 6.71667 km/h
1899 17-09-2020 02:00:00 18.75 C 12.07 g/m*3 18.75 C 5.23333 km/h
1900 17-09-2020 03:00:00 17.31667 C 11.82 g/m*3 17.32 C 2.8 km/h
Sensor: Nr:Datum:Temp:Abs-Feuchte:Windchill:Wind:
Aussen-T/F 1901 17-09-2020 04:00:00 17.36667 C 11.98 g/m*3 17.37 C 8.74167 km/h
1902 17-09-2020 05:00:00 17.125 C 11.71 g/m*3 17.13 C 7.375 km/h
1903 17-09-2020 06:00:00 16.86667 C 11.44 g/m*3 16.87 C 6.15833 km/h
1904 17-09-2020 07:00:00 16.63333 C 11.36 g/m*3 16.63 C 5.89167 km/h
1905 17-09-2020 08:00:00 16.08333 C 10.89 g/m*3 16.08 C 9.425 km/h
1906 17-09-2020 09:00:00 15.66667 C 10.46 g/m*3 15.67 C 8.06667 km/h
1907 17-09-2020 10:00:00 16.05 C 9.52 g/m*3 16.05 C 6.71667 km/h
1908 17-09-2020 11:00:00 16.4 C 9.11 g/m*3 16.4 C 10.48333 km/h
1909 17-09-2020 12:00:00 17.575 C 9.16 g/m*3 17.58 C 12.76667 km/h
1910 17-09-2020 13:00:00 18.81667 C 8.75 g/m*3 18.82 C 14.23333 km/h
1911 17-09-2020 14:00:00 20.15833 C 7.94 g/m*3 20.16 C 13.29167 km/h
1912 17-09-2020 15:00:00 20.91667 C 7.64 g/m*3 20.92 C 12.5 km/h
1913 17-09-2020 16:00:00 21.61667 C 7.28 g/m*3 21.62 C 14.63333 km/h
1914 17-09-2020 17:00:00 22.10833 C 7.36 g/m*3 22.11 C 15.3 km/h
1915 17-09-2020 18:00:00 21.83333 C 7.63 g/m*3 21.83 C 10.33333 km/h
1916 17-09-2020 19:00:00 19.575 C 8.01 g/m*3 19.58 C 2.40833 km/h
1917 17-09-2020 20:00:00 15.91667 C 8.08 g/m*3 15.92 C 1.34167 km/h
1918 17-09-2020 21:00:00 14.69167 C 8.1 g/m*3 14.69 C 1.6 km/h
1919 17-09-2020 22:00:00 14.66667 C 8.24 g/m*3 14.67 C 2.00833 km/h
1920 17-09-2020 23:00:00 13.575 C 8.15 g/m*3 13.58 C 1.475 km/h
1921 18-09-2020 00:00:00 12.5 C 8.11 g/m*3 12.5 C 0.53333 km/h
1922 18-09-2020 01:00:00 12.25833 C 8.1 g/m*3 12.26 C 2.41667 km/h
1923 18-09-2020 02:00:00 12.55833 C 7.99 g/m*3 12.56 C 3.46667 km/h
1924 18-09-2020 03:00:00 10.925 C 7.75 g/m*3 10.93 C 3.46667 km/h
1925 18-09-2020 04:00:00 10.14167 C 7.61 g/m*3 10.14 C 4.13333 km/h
Sensor: Nr:Datum:Temp:Abs-Feuchte:Windchill:Wind:
Aussen-T/F 1926 18-09-2020 05:00:00 9.55833 C 7.49 g/m*3 9.56 C 1.33333 km/h
1927 18-09-2020 06:00:00 9.28333 C 7.45 g/m*3 9.28 C 0.53333 km/h
1928 18-09-2020 07:00:00 9.18333 C 7.51 g/m*3 9.18 C 1.86667 km/h
1929 18-09-2020 08:00:00 10.18333 C 7.93 g/m*3 10.18 C 0 km/h
1930 18-09-2020 09:00:00 11.2 C 8.2 g/m*3 11.2 C 1.86667 km/h
1931 18-09-2020 10:00:00 13.375 C 8.41 g/m*3 13.38 C 5.21667 km/h
1932 18-09-2020 11:00:00 16.19167 C 8.82 g/m*3 16.19 C 8.33333 km/h
1933 18-09-2020 12:00:00 18.7 C 9.38 g/m*3 18.7 C 8.6 km/h
1934 18-09-2020 13:00:00 21.04167 C 10.18 g/m*3 21.04 C 12.36667 km/h
1935 18-09-2020 14:00:00 22.58333 C 10.24 g/m*3 22.58 C 13.83333 km/h
1936 18-09-2020 15:00:00 23.04167 C 9.98 g/m*3 23.04 C 13.83333 km/h
1937 18-09-2020 16:00:00 23.66667 C 9.91 g/m*3 23.67 C 12.1 km/h
1938 18-09-2020 17:00:00 24.73333 C 9.77 g/m*3 24.73 C 8.46667 km/h
1939 18-09-2020 18:00:00 24.55 C 9.5 g/m*3 24.55 C 6.58333 km/h
1940 18-09-2020 19:00:00 21.19167 C 9.55 g/m*3 21.19 C 4.40833 km/h
1941 18-09-2020 20:00:00 16.91667 C 9.06 g/m*3 16.92 C 3.86667 km/h
1942 18-09-2020 21:00:00 15.46667 C 8.63 g/m*3 15.47 C 5.06667 km/h
1943 18-09-2020 22:00:00 14.61667 C 8.02 g/m*3 14.62 C 0.66667 km/h
1944 18-09-2020 23:00:00 14.05833 C 7.91 g/m*3 14.06 C 2.8 km/h
1945 19-09-2020 00:00:00 13.54167 C 7.74 g/m*3 13.54 C 2.53333 km/h
1946 19-09-2020 01:00:00 12.625 C 7.61 g/m*3 12.63 C 4 km/h
1947 19-09-2020 02:00:00 11.63333 C 7.47 g/m*3 11.63 C 1.6 km/h
1948 19-09-2020 03:00:00 10.375 C 7.31 g/m*3 10.38 C 0.93333 km/h
1949 19-09-2020 04:00:00 9.625 C 7.21 g/m*3 9.63 C 0 km/h
1950 19-09-2020 05:00:00 8.825 C 7.08 g/m*3 8.82 C 0 km/h
Sensor: Nr:Datum:Temp:Abs-Feuchte:Windchill:Wind:
Aussen-T/F 1951 19-09-2020 06:00:00 8.175 C 7.04 g/m*3 8.18 C 0 km/h
1952 19-09-2020 07:00:00 7.68333 C 7.04 g/m*3 7.68 C 0 km/h
1953 19-09-2020 08:00:00 7.94167 C 7.32 g/m*3 7.94 C 0 km/h
1954 19-09-2020 09:00:00 8.91667 C 7.76 g/m*3 8.92 C 0 km/h
1955 19-09-2020 10:00:00 11.41667 C 8.33 g/m*3 11.42 C 0.8 km/h
1956 19-09-2020 11:00:00 15.09167 C 8.6 g/m*3 15.09 C 2.53333 km/h
1957 19-09-2020 12:00:00 19.15 C 8.7 g/m*3 19.15 C 7.93333 km/h
1958 19-09-2020 13:00:00 21.125 C 8.61 g/m*3 21.13 C 6.16667 km/h
1959 19-09-2020 14:00:00 23.24167 C 8.63 g/m*3 23.24 C 8.46667 km/h
1960 19-09-2020 15:00:00 24.33333 C 8.48 g/m*3 24.33 C 8.31667 km/h
1961 19-09-2020 16:00:00 25.29167 C 8.19 g/m*3 25.29 C 9.41667 km/h
1962 19-09-2020 17:00:00 26.2 C 8.17 g/m*3 26.2 C 8.34167 km/h
1963 19-09-2020 18:00:00 26.39167 C 8.38 g/m*3 26.39 C 3.2 km/h
1964 19-09-2020 19:00:00 21.7 C 8.12 g/m*3 21.7 C 2.13333 km/h
1965 19-09-2020 20:00:00 17.99167 C 7.84 g/m*3 17.99 C 4.4 km/h
1966 19-09-2020 21:00:00 16.35833 C 7.92 g/m*3 16.36 C 4.93333 km/h
1967 19-09-2020 22:00:00 15.54167 C 8.16 g/m*3 15.54 C 1.86667 km/h
1968 19-09-2020 23:00:00 14.425 C 8.17 g/m*3 14.43 C 0 km/h
1969 20-09-2020 00:00:00 13.7 C 8.25 g/m*3 13.7 C 0.13333 km/h
1970 20-09-2020 01:00:00 12.70833 C 8.27 g/m*3 12.71 C 0 km/h
1971 20-09-2020 02:00:00 11.76667 C 7.98 g/m*3 11.77 C 0 km/h
1972 20-09-2020 03:00:00 10.6 C 7.73 g/m*3 10.6 C 0 km/h
1973 20-09-2020 04:00:00 9.84167 C 7.5 g/m*3 9.84 C 0 km/h
1974 20-09-2020 05:00:00 9.49167 C 7.6 g/m*3 9.49 C 0 km/h
1975 20-09-2020 06:00:00 8.96667 C 7.46 g/m*3 8.97 C 0 km/h
Sensor: Nr:Datum:Temp:Abs-Feuchte:Windchill:Wind:
Aussen-T/F 1976 20-09-2020 07:00:00 8.3 C 7.32 g/m*3 8.3 C 0 km/h
1977 20-09-2020 08:00:00 8.71667 C 7.73 g/m*3 8.72 C 0 km/h
1978 20-09-2020 09:00:00 9.625 C 8.21 g/m*3 9.63 C 0 km/h
1979 20-09-2020 10:00:00 11.55833 C 9 g/m*3 11.56 C 0 km/h
1980 20-09-2020 11:00:00 14.05833 C 9.46 g/m*3 14.06 C 0 km/h
1981 20-09-2020 12:00:00 18.15833 C 9.75 g/m*3 18.16 C 1.06667 km/h
1982 20-09-2020 13:00:00 21.14167 C 9.27 g/m*3 21.14 C 4.53333 km/h
1983 20-09-2020 14:00:00 22.81667 C 8.88 g/m*3 22.82 C 3.6 km/h
1984 20-09-2020 15:00:00 22.975 C 9.78 g/m*3 22.98 C 1.33333 km/h
1985 20-09-2020 16:00:00 22.65 C 9.75 g/m*3 22.65 C 1.06667 km/h
1986 20-09-2020 17:00:00 23.95833 C 9.93 g/m*3 23.96 C 1.86667 km/h
1987 20-09-2020 18:00:00 21.43333 C 9.47 g/m*3 21.43 C 5.06667 km/h
1988 20-09-2020 19:00:00 18.625 C 8.91 g/m*3 18.63 C 3.6 km/h
1989 20-09-2020 20:00:00 15.78333 C 8.29 g/m*3 15.78 C 1.33333 km/h
1990 20-09-2020 21:00:00 14.3 C 8.13 g/m*3 14.3 C 0 km/h
1991 20-09-2020 22:00:00 13.075 C 8.3 g/m*3 13.08 C 0 km/h
1992 20-09-2020 23:00:00 11.68333 C 8.05 g/m*3 11.68 C 0 km/h
1993 21-09-2020 00:00:00 10.94167 C 7.88 g/m*3 10.94 C 0 km/h
1994 21-09-2020 01:00:00 10.25833 C 7.8 g/m*3 10.26 C 0 km/h
1995 21-09-2020 02:00:00 9.54167 C 7.67 g/m*3 9.54 C 0 km/h
1996 21-09-2020 03:00:00 9.03333 C 7.62 g/m*3 9.03 C 0 km/h
1997 21-09-2020 04:00:00 8.55 C 7.54 g/m*3 8.55 C 0 km/h
1998 21-09-2020 05:00:00 8.15 C 7.44 g/m*3 8.15 C 0 km/h
1999 21-09-2020 06:00:00 7.79167 C 7.35 g/m*3 7.79 C 0 km/h
2000 21-09-2020 07:00:00 7.34167 C 7.22 g/m*3 7.34 C 0 km/h
Sensor: Nr:Datum:Temp:Abs-Feuchte:Windchill:Wind:
Aussen-T/F 2001 21-09-2020 08:00:00 7.525 C 7.4 g/m*3 7.53 C 0 km/h
2002 21-09-2020 09:00:00 8.475 C 7.84 g/m*3 8.48 C 0 km/h
2003 21-09-2020 10:00:00 10.075 C 8.54 g/m*3 10.07 C 0 km/h
2004 21-09-2020 11:00:00 13.05833 C 9.27 g/m*3 13.06 C 0 km/h
2005 21-09-2020 12:00:00 17.375 C 10.1 g/m*3 17.38 C 0 km/h
2006 21-09-2020 13:00:00 20.58333 C 9.88 g/m*3 20.58 C 1.73333 km/h
2007 21-09-2020 14:00:00 23.44167 C 9.01 g/m*3 23.44 C 7.78333 km/h
2008 21-09-2020 15:00:00 24.26667 C 8.56 g/m*3 24.27 C 5.21667 km/h
2009 21-09-2020 16:00:00 24.63333 C 8.44 g/m*3 24.63 C 5.9 km/h
2010 21-09-2020 17:00:00 26.25833 C 8.64 g/m*3 26.26 C 2.93333 km/h
2011 21-09-2020 18:00:00 25.7 C 9.36 g/m*3 25.7 C 3.06667 km/h
2012 21-09-2020 19:00:00 21.13333 C 8.71 g/m*3 21.13 C 5.73333 km/h
2013 21-09-2020 20:00:00 17.55833 C 8.53 g/m*3 17.56 C 0.93333 km/h
2014 21-09-2020 21:00:00 15.46667 C 8.53 g/m*3 15.47 C 0 km/h
2015 21-09-2020 22:00:00 13.98333 C 8.46 g/m*3 13.98 C 0 km/h
2016 21-09-2020 23:00:00 12.9 C 8.51 g/m*3 12.9 C 0 km/h
2017 22-09-2020 00:00:00 11.80833 C 8.37 g/m*3 11.81 C 0 km/h
2018 22-09-2020 01:00:00 11.33333 C 8.3 g/m*3 11.33 C 0 km/h
2019 22-09-2020 02:00:00 10.66667 C 8.11 g/m*3 10.67 C 0 km/h
2020 22-09-2020 03:00:00 9.80833 C 7.97 g/m*3 9.81 C 0 km/h
2021 22-09-2020 04:00:00 9.34167 C 7.89 g/m*3 9.34 C 0 km/h
2022 22-09-2020 05:00:00 8.98333 C 7.85 g/m*3 8.98 C 0 km/h
2023 22-09-2020 06:00:00 8.51667 C 7.72 g/m*3 8.52 C 0 km/h
2024 22-09-2020 07:00:00 8.2 C 7.65 g/m*3 8.2 C 0 km/h
2025 22-09-2020 08:00:00 8.54167 C 7.93 g/m*3 8.54 C 0 km/h
Sensor: Nr:Datum:Temp:Abs-Feuchte:Windchill:Wind:
Aussen-T/F 2026 22-09-2020 09:00:00 9.45833 C 8.44 g/m*3 9.46 C 0 km/h
2027 22-09-2020 10:00:00 11.10833 C 9.2 g/m*3 11.11 C 0 km/h
2028 22-09-2020 11:00:00 14.18333 C 10.12 g/m*3 14.18 C 0 km/h
2029 22-09-2020 12:00:00 18.30833 C 11.09 g/m*3 18.31 C 0.13333 km/h
2030 22-09-2020 13:00:00 22.025 C 10.46 g/m*3 22.03 C 4.29167 km/h
2031 22-09-2020 14:00:00 25.39167 C 9.49 g/m*3 25.39 C 11.15833 km/h
2032 22-09-2020 15:00:00 26.09167 C 9.07 g/m*3 26.09 C 11.025 km/h
2033 22-09-2020 16:00:00 26.51667 C 8.75 g/m*3 26.52 C 11.3 km/h
2034 22-09-2020 17:00:00 27.45833 C 9.39 g/m*3 27.46 C 8.85833 km/h
2035 22-09-2020 18:00:00 27.34167 C 10.25 g/m*3 27.34 C 4.54167 km/h
2036 22-09-2020 19:00:00 22.64167 C 10.15 g/m*3 22.64 C 6.14167 km/h
2037 22-09-2020 20:00:00 19.275 C 9.9 g/m*3 19.27 C 4.26667 km/h
2038 22-09-2020 21:00:00 17.68333 C 9.7 g/m*3 17.68 C 0.66667 km/h
2039 22-09-2020 22:00:00 16.43333 C 9.49 g/m*3 16.43 C 0.66667 km/h
2040 22-09-2020 23:00:00 15.40833 C 9.31 g/m*3 15.41 C 0.66667 km/h
2041 23-09-2020 00:00:00 14.45833 C 9.15 g/m*3 14.46 C 0.13333 km/h
2042 23-09-2020 01:00:00 14.04167 C 9.23 g/m*3 14.04 C 0.53333 km/h
2043 23-09-2020 02:00:00 14.49167 C 9.4 g/m*3 14.49 C 0.93333 km/h
2044 23-09-2020 03:00:00 13.925 C 9.36 g/m*3 13.93 C 0 km/h
2045 23-09-2020 04:00:00 14.06667 C 9.45 g/m*3 14.07 C 0 km/h
2046 23-09-2020 05:00:00 12.775 C 8.94 g/m*3 12.78 C 0.13333 km/h
2047 23-09-2020 06:00:00 12.125 C 8.85 g/m*3 12.13 C 0.4 km/h
2048 23-09-2020 07:00:00 13.225 C 9.12 g/m*3 13.23 C 1.46667 km/h
2049 23-09-2020 08:00:00 14.025 C 9.27 g/m*3 14.03 C 1.33333 km/h
2050 23-09-2020 09:00:00 14.29167 C 9.33 g/m*3 14.29 C 3.89167 km/h
Sensor: Nr:Datum:Temp:Abs-Feuchte:Windchill:Wind:
Aussen-T/F 2051 23-09-2020 10:00:00 17.35833 C 9.01 g/m*3 17.36 C 11.16667 km/h
2052 23-09-2020 11:00:00 19.13333 C 9.62 g/m*3 19.13 C 10.35833 km/h
2053 23-09-2020 12:00:00 20.29167 C 10.55 g/m*3 20.29 C 14.1 km/h
2054 23-09-2020 13:00:00 21.65 C 10.84 g/m*3 21.65 C 11.41667 km/h
2055 23-09-2020 14:00:00 23.03333 C 11.07 g/m*3 23.03 C 12.1 km/h
2056 23-09-2020 15:00:00 23.40833 C 11.2 g/m*3 23.41 C 11.56667 km/h
2057 23-09-2020 16:00:00 23.63333 C 11.24 g/m*3 23.63 C 11.29167 km/h
2058 23-09-2020 17:00:00 23.78333 C 11.28 g/m*3 23.78 C 9.93333 km/h
2059 23-09-2020 18:00:00 22.60833 C 11.1 g/m*3 22.61 C 5.225 km/h
2060 23-09-2020 19:00:00 19.48333 C 11.16 g/m*3 19.48 C 1.46667 km/h
2061 23-09-2020 20:00:00 17.35833 C 11.11 g/m*3 17.36 C 1.33333 km/h
2062 23-09-2020 21:00:00 17.51667 C 11.47 g/m*3 17.52 C 2.54167 km/h
2063 23-09-2020 22:00:00 17.64167 C 11.64 g/m*3 17.64 C 0.53333 km/h
2064 23-09-2020 23:00:00 17.50833 C 11.75 g/m*3 17.51 C 1.6 km/h
2065 24-09-2020 00:00:00 17.73333 C 11.75 g/m*3 17.73 C 4.15833 km/h
2066 24-09-2020 01:00:00 18.28333 C 11.99 g/m*3 18.28 C 4.825 km/h
2067 24-09-2020 02:00:00 17.56667 C 12.81 g/m*3 17.57 C 4.825 km/h
2068 24-09-2020 03:00:00 16.18333 C 12.66 g/m*3 16.18 C 1.2 km/h
2069 24-09-2020 04:00:00 16.03333 C 12.81 g/m*3 16.03 C 1.86667 km/h
2070 24-09-2020 05:00:00 15.95 C 12.75 g/m*3 15.95 C 6.975 km/h
2071 24-09-2020 06:00:00 14.54167 C 10.71 g/m*3 14.54 C 10.08333 km/h
2072 24-09-2020 07:00:00 12.025 C 9.55 g/m*3 12.03 C 6.56667 km/h
2073 24-09-2020 08:00:00 12.25 C 9.62 g/m*3 12.25 C 8.05833 km/h
2074 24-09-2020 09:00:00 12.63333 C 9.51 g/m*3 12.63 C 10.88333 km/h
2075 24-09-2020 10:00:00 13.7 C 9.32 g/m*3 13.7 C 12.23333 km/h
Sensor: Nr:Datum:Temp:Abs-Feuchte:Windchill:Wind:
Aussen-T/F 2076 24-09-2020 11:00:00 14.74167 C 9.1 g/m*3 14.74 C 12.63333 km/h
2077 24-09-2020 12:00:00 16.88333 C 9.21 g/m*3 16.88 C 11.16667 km/h
2078 24-09-2020 13:00:00 17.73333 C 9.06 g/m*3 17.73 C 15.16667 km/h
2079 24-09-2020 14:00:00 18.99167 C 9.08 g/m*3 18.99 C 14.36667 km/h
2080 24-09-2020 15:00:00 19.575 C 9.29 g/m*3 19.58 C 9.80833 km/h
2081 24-09-2020 16:00:00 19.71667 C 9.49 g/m*3 19.72 C 7.25833 km/h
2082 24-09-2020 17:00:00 19.775 C 9.88 g/m*3 19.77 C 4.53333 km/h
2083 24-09-2020 18:00:00 18.85833 C 10.63 g/m*3 18.86 C 2.14167 km/h
2084 24-09-2020 19:00:00 17.05 C 11.02 g/m*3 17.05 C 2.26667 km/h
2085 24-09-2020 20:00:00 16.075 C 10.86 g/m*3 16.08 C 2.26667 km/h
2086 24-09-2020 21:00:00 15.05 C 10.64 g/m*3 15.05 C 1.2 km/h
2087 24-09-2020 22:00:00 14.40833 C 10.66 g/m*3 14.41 C 0.93333 km/h
2088 24-09-2020 23:00:00 13.76667 C 10.49 g/m*3 13.77 C 0.93333 km/h
2089 25-09-2020 00:00:00 13.675 C 10.62 g/m*3 13.68 C 0.13333 km/h
2090 25-09-2020 01:00:00 13.925 C 10.79 g/m*3 13.93 C 0.93333 km/h
2091 25-09-2020 02:00:00 13.73333 C 10.52 g/m*3 13.73 C 10.05 km/h
2092 25-09-2020 03:00:00 12.15 C 9.83 g/m*3 12.15 C 8.59167 km/h
2093 25-09-2020 04:00:00 11.275 C 9.42 g/m*3 11.28 C 3.46667 km/h
2094 25-09-2020 05:00:00 10.76667 C 9.2 g/m*3 10.77 C 4.40833 km/h
2095 25-09-2020 06:00:00 10.50833 C 8.98 g/m*3 10.16 C 5.61667 km/h
2096 25-09-2020 07:00:00 9.875 C 8.53 g/m*3 9.88 C 4.55833 km/h
2097 25-09-2020 08:00:00 9.525 C 8.33 g/m*3 9.53 C 2.40833 km/h
2098 25-09-2020 09:00:00 10.25833 C 8.22 g/m*3 10.26 C 2.8 km/h
2099 25-09-2020 10:00:00 11.35 C 8.39 g/m*3 11.35 C 3.875 km/h
2100 25-09-2020 11:00:00 12.40833 C 8.49 g/m*3 12.41 C 8.6 km/h
Sensor: Nr:Datum:Temp:Abs-Feuchte:Windchill:Wind:
Aussen-T/F 2101 25-09-2020 12:00:00 13.21667 C 8.35 g/m*3 13.22 C 11.96667 km/h
2102 25-09-2020 13:00:00 13.54167 C 8.25 g/m*3 13.54 C 10.88333 km/h
2103 25-09-2020 14:00:00 13.03333 C 8.97 g/m*3 13.03 C 3.61667 km/h
2104 25-09-2020 15:00:00 13.65 C 9.26 g/m*3 13.65 C 3.6 km/h
2105 25-09-2020 16:00:00 14.23333 C 9.1 g/m*3 14.23 C 7.125 km/h
2106 25-09-2020 17:00:00 14.25 C 8.79 g/m*3 14.25 C 7.525 km/h
2107 25-09-2020 18:00:00 12.89167 C 8.7 g/m*3 12.89 C 9.93333 km/h
2108 25-09-2020 19:00:00 11.88333 C 8.54 g/m*3 11.88 C 6.3 km/h
2109 25-09-2020 20:00:00 11.75833 C 8.49 g/m*3 11.76 C 6.7 km/h
2110 25-09-2020 21:00:00 11.53333 C 8.06 g/m*3 11.53 C 7.50833 km/h
2111 25-09-2020 22:00:00 11.425 C 8.07 g/m*3 11.43 C 8.74167 km/h
2112 25-09-2020 23:00:00 11.20833 C 8.14 g/m*3 11.21 C 10.35833 km/h
2113 26-09-2020 00:00:00 10.7 C 8.06 g/m*3 8.94 C 13.7 km/h
2114 26-09-2020 01:00:00 10.61667 C 7.93 g/m*3 9.05 C 12.1 km/h
2115 26-09-2020 02:00:00 10.5 C 7.9 g/m*3 9.04 C 11.15833 km/h
2116 26-09-2020 03:00:00 10.05 C 7.82 g/m*3 7.8 C 16.5 km/h
2117 26-09-2020 04:00:00 9.81667 C 7.59 g/m*3 7.28 C 18.63333 km/h
2118 26-09-2020 05:00:00 9.73333 C 7.39 g/m*3 7.07 C 19.7 km/h
2119 26-09-2020 06:00:00 9.65833 C 7.53 g/m*3 6.92 C 20.23333 km/h
2120 26-09-2020 07:00:00 9.425 C 7.79 g/m*3 7.37 C 13.7 km/h
2121 26-09-2020 08:00:00 9.31667 C 8.14 g/m*3 7.78 C 10.20833 km/h
2122 26-09-2020 09:00:00 9.9 C 8.56 g/m*3 8.79 C 8.46667 km/h
2123 26-09-2020 10:00:00 10.91667 C 8.9 g/m*3 9.85 C 9.275 km/h
2124 26-09-2020 11:00:00 11.58333 C 9.14 g/m*3 11.58 C 7.38333 km/h
2125 26-09-2020 12:00:00 12.04167 C 9.06 g/m*3 12.04 C 11.55 km/h
Sensor: Nr:Datum:Temp:Abs-Feuchte:Windchill:Wind:
Aussen-T/F 2126 26-09-2020 13:00:00 11.48333 C 9.45 g/m*3 11.48 C 5.35833 km/h
2127 26-09-2020 14:00:00 11.69167 C 9.47 g/m*3 11.69 C 10.74167 km/h
2128 26-09-2020 15:00:00 11.375 C 9.32 g/m*3 11.38 C 11.69167 km/h
2129 26-09-2020 16:00:00 10.94167 C 9.01 g/m*3 9.5 C 11.68333 km/h
2130 26-09-2020 17:00:00 10.9 C 8.97 g/m*3 9.85 C 9.15833 km/h
2131 26-09-2020 18:00:00 10.81667 C 9.08 g/m*3 10.55 C 5.48333 km/h
2132 26-09-2020 19:00:00 10.68333 C 9.04 g/m*3 10.68 C 4.95833 km/h
2133 26-09-2020 20:00:00 10.36667 C 8.98 g/m*3 10.37 C 4.54167 km/h
2134 26-09-2020 21:00:00 10.2 C 8.99 g/m*3 10.2 C 2.26667 km/h
2135 26-09-2020 22:00:00 10.075 C 8.97 g/m*3 10.07 C 2.275 km/h
2136 26-09-2020 23:00:00 9.85 C 8.84 g/m*3 9.85 C 3.2 km/h
2137 27-09-2020 00:00:00 9.375 C 8.58 g/m*3 9.38 C 4.66667 km/h
2138 27-09-2020 01:00:00 8.88333 C 8.35 g/m*3 7.77 C 7.65 km/h
2139 27-09-2020 02:00:00 8.91667 C 8.42 g/m*3 7.55 C 8.85833 km/h
2140 27-09-2020 03:00:00 9.325 C 8.64 g/m*3 8.92 C 5.225 km/h
2141 27-09-2020 04:00:00 9.50833 C 8.74 g/m*3 9.51 C 1.74167 km/h
2142 27-09-2020 05:00:00 9.6 C 8.79 g/m*3 9.6 C 0.8 km/h
2143 27-09-2020 06:00:00 9.6 C 8.79 g/m*3 9.6 C 0.26667 km/h
2144 27-09-2020 07:00:00 9.6 C 8.79 g/m*3 9.6 C 0.26667 km/h
2145 27-09-2020 08:00:00 9.8 C 8.96 g/m*3 9.8 C 1.46667 km/h
2146 27-09-2020 09:00:00 10.59167 C 9.43 g/m*3 10.59 C 2.13333 km/h
2147 27-09-2020 10:00:00 11.24167 C 9.75 g/m*3 11.24 C 2 km/h
2148 27-09-2020 11:00:00 12.025 C 9.89 g/m*3 12.03 C 5.075 km/h
2149 27-09-2020 12:00:00 12.61667 C 9.85 g/m*3 12.62 C 5.48333 km/h
2150 27-09-2020 13:00:00 13.30833 C 10 g/m*3 13.31 C 6.71667 km/h
Sensor: Nr:Datum:Temp:Abs-Feuchte:Windchill:Wind:
Aussen-T/F 2151 27-09-2020 14:00:00 13.69167 C 9.59 g/m*3 13.69 C 6.41667 km/h
2152 27-09-2020 15:00:00 13.39167 C 9.35 g/m*3 13.39 C 3.2 km/h
2153 27-09-2020 16:00:00 13.13333 C 9.5 g/m*3 13.13 C 1.6 km/h
2154 27-09-2020 17:00:00 13.1 C 9.8 g/m*3 13.1 C 0 km/h
2155 27-09-2020 18:00:00 12.39167 C 9.7 g/m*3 12.39 C 2.13333 km/h
2156 27-09-2020 19:00:00 11.33333 C 9.22 g/m*3 11.33 C 2.4 km/h
2157 27-09-2020 20:00:00 10.89167 C 9.12 g/m*3 10.89 C 2 km/h
2158 27-09-2020 21:00:00 10.74167 C 9.14 g/m*3 10.74 C 1.46667 km/h
2159 27-09-2020 22:00:00 10.65833 C 9.11 g/m*3 10.66 C 0.26667 km/h
2160 27-09-2020 23:00:00 10.44167 C 9.06 g/m*3 10.44 C 1.46667 km/h
2161 28-09-2020 00:00:00 10.40833 C 9.06 g/m*3 10.41 C 1.33333 km/h
2162 28-09-2020 01:00:00 10.5 C 9.12 g/m*3 10.5 C 0.66667 km/h
2163 28-09-2020 02:00:00 10.39167 C 9.05 g/m*3 10.39 C 1.33333 km/h
2164 28-09-2020 03:00:00 10.20833 C 8.97 g/m*3 10.21 C 0 km/h
2165 28-09-2020 04:00:00 10.15833 C 8.98 g/m*3 10.16 C 0.4 km/h
2166 28-09-2020 05:00:00 10.11667 C 8.94 g/m*3 10.12 C 0.4 km/h
2167 28-09-2020 06:00:00 10.125 C 8.93 g/m*3 10.13 C 0.66667 km/h
2168 28-09-2020 07:00:00 10.075 C 8.86 g/m*3 10.07 C 0.26667 km/h
2169 28-09-2020 08:00:00 10.29167 C 9 g/m*3 10.29 C 0 km/h
2170 28-09-2020 09:00:00 10.79167 C 9.07 g/m*3 10.79 C 0.4 km/h
2171 28-09-2020 10:00:00 11.89167 C 9.08 g/m*3 11.89 C 2.66667 km/h
2172 28-09-2020 11:00:00 12.98333 C 9.14 g/m*3 12.98 C 4.95 km/h
2173 28-09-2020 12:00:00 13.725 C 9.11 g/m*3 13.73 C 4.41667 km/h
2174 28-09-2020 13:00:00 13.81667 C 9.36 g/m*3 13.82 C 5.775 km/h
2175 28-09-2020 14:00:00 14.01667 C 9.42 g/m*3 14.02 C 4.025 km/h
Sensor: Nr:Datum:Temp:Abs-Feuchte:Windchill:Wind:
Aussen-T/F 2176 28-09-2020 15:00:00 14.24167 C 9.13 g/m*3 14.24 C 4.95833 km/h
2177 28-09-2020 16:00:00 14 C 9.14 g/m*3 14 C 6.7 km/h
2178 28-09-2020 17:00:00 13.55833 C 9.11 g/m*3 13.56 C 6.025 km/h
2179 28-09-2020 18:00:00 13.25 C 9.24 g/m*3 13.25 C 2 km/h
2180 28-09-2020 19:00:00 12.45833 C 9.3 g/m*3 12.46 C 1.6 km/h
2181 28-09-2020 20:00:00 11.85833 C 9.08 g/m*3 11.86 C 0.8 km/h
2182 28-09-2020 21:00:00 10.86667 C 8.74 g/m*3 10.87 C 0.53333 km/h
2183 28-09-2020 22:00:00 10.80833 C 8.99 g/m*3 10.81 C 0 km/h
2184 28-09-2020 23:00:00 10.95 C 9.15 g/m*3 10.95 C 0.13333 km/h
2185 29-09-2020 00:00:00 10.975 C 9.19 g/m*3 10.98 C 0.26667 km/h
2186 29-09-2020 01:00:00 11.025 C 9.22 g/m*3 11.03 C 0.4 km/h
2187 29-09-2020 02:00:00 11.09167 C 9.26 g/m*3 11.09 C 0 km/h
2188 29-09-2020 03:00:00 11.13333 C 9.29 g/m*3 11.13 C 0 km/h
2189 29-09-2020 04:00:00 11.2 C 9.36 g/m*3 11.2 C 0 km/h
2190 29-09-2020 05:00:00 11.3 C 9.49 g/m*3 11.3 C 0 km/h
2191 29-09-2020 06:00:00 11.4 C 9.55 g/m*3 11.4 C 0 km/h
2192 29-09-2020 07:00:00 11.59167 C 9.74 g/m*3 11.59 C 0 km/h
2193 29-09-2020 08:00:00 11.81667 C 9.96 g/m*3 11.82 C 0 km/h
2194 29-09-2020 09:00:00 12.2 C 10.28 g/m*3 12.2 C 1.6 km/h
2195 29-09-2020 10:00:00 12.65 C 10.61 g/m*3 12.65 C 3.46667 km/h
2196 29-09-2020 11:00:00 13.18333 C 10.92 g/m*3 13.18 C 3.2 km/h
2197 29-09-2020 12:00:00 13.725 C 11.23 g/m*3 13.73 C 5.06667 km/h
2198 29-09-2020 13:00:00 14.1 C 11.38 g/m*3 14.1 C 6.01667 km/h
2199 29-09-2020 14:00:00 14.30833 C 11.62 g/m*3 14.31 C 6.43333 km/h
2200 29-09-2020 15:00:00 14.26667 C 11.54 g/m*3 14.27 C 7.93333 km/h
Sensor: Nr:Datum:Temp:Abs-Feuchte:Windchill:Wind:
Aussen-T/F 2201 29-09-2020 16:00:00 13.43333 C 10.98 g/m*3 13.43 C 5.21667 km/h
2202 29-09-2020 17:00:00 13.15833 C 10.88 g/m*3 13.16 C 2.14167 km/h
2203 29-09-2020 18:00:00 13.21667 C 10.92 g/m*3 13.22 C 1.86667 km/h
2204 29-09-2020 19:00:00 12.425 C 10.4 g/m*3 12.43 C 4.54167 km/h
2205 29-09-2020 20:00:00 11.55 C 9.84 g/m*3 11.55 C 0.13333 km/h
2206 29-09-2020 21:00:00 10.70833 C 9.34 g/m*3 10.71 C 0 km/h
2207 29-09-2020 22:00:00 10.24167 C 9.15 g/m*3 10.24 C 0 km/h
2208 29-09-2020 23:00:00 10.5 C 9.34 g/m*3 10.5 C 0 km/h

Maximal/Minimal-Werte vom 23.02.2003 - 30.09.2020

Sensor Min Max Avg
Temp
(Aussen-T/F)
-16.4 °C
20-12-2009  01:30:01
40.4 °C
25-07-2019  16:20:00
11.32 °C

Die Daten stammen von einer Davis Vantage Pro 2 Wetter-Station und werden unter Linux mit der Software wview2wettercgi und aufbereitet. Alle Angaben erfolgen ohne Gewähr für ihre Vollständigkeit oder Richtigkeit.
Kontakt: Rainer Krienke krienke@uni-koblenz.de . Meine Webseiten an der Uni Koblenz oder privat.
Version: $Revision: 0.78 $